[[{"header":{"parameterUnit":"m.s-1","parameterCategory":1,"la1":30.6,"la2":29.2853,"lo1":-89.7004,"lo2":-87.6739,"dy":0.0162,"dx":0.0183,"nx":112,"ny":82,"refTime":"2025-03-14T06:00:00:Z","depth":0,"parameterNumber":2,"parameterNumberName":"U-component_of_WINDS"},"data":[0.0,0.0,0.0,0.0,0.0,0.0,0.0,0.0,0.0,0.0,0.0,0.0,0.0,0.0,0.0,0.0,0.0,0.0,0.0,0.0,0.0,0.0,0.0,0.0,0.0,0.0,0.0,0.0,0.0,0.0,0.0,0.0,0.0,0.0,0.0,0.0,0.0,0.0,0.0,0.0,0.0,0.0,0.0,0.0,0.0,0.0,0.0,0.0,0.0,0.0,0.0,0.0,0.0,0.0,0.0,0.0,0.0,0.0,0.0,0.0,0.0,0.0,0.0,0.0,0.0,0.0,0.0,0.0,0.0,0.0,0.0,0.0,0.0,0.0,0.0,0.0,0.0,0.0,0.0,0.0,0.0,0.0,0.0,0.0,0.0,0.0,0.0,0.0,0.0,0.0,-2.0491,-2.14,-2.3065,-2.4006,-2.3714,-2.3617,-2.2614,-2.0425,0.0,0.0,0.0,0.0,0.0,0.0,0.0,0.0,0.0,0.0,0.0,0.0,0.0,0.0,0.0,0.0,0.0,0.0,0.0,0.0,0.0,0.0,0.0,0.0,0.0,0.0,0.0,0.0,0.0,0.0,0.0,0.0,0.0,0.0,0.0,0.0,0.0,0.0,0.0,0.0,0.0,0.0,0.0,0.0,0.0,0.0,0.0,0.0,0.0,0.0,0.0,0.0,0.0,0.0,0.0,0.0,0.0,0.0,0.0,0.0,0.0,0.0,0.0,0.0,0.0,0.0,0.0,0.0,0.0,0.0,0.0,0.0,0.0,0.0,0.0,0.0,0.0,0.0,0.0,0.0,0.0,0.0,0.0,0.0,0.0,0.0,0.0,0.0,0.0,0.0,0.0,0.0,0.0,0.0,0.0,0.0,0.0,0.0,0.0,0.0,0.0,0.0,0.0,0.0,-1.9893,-2.3336,-2.3749,-2.3764,-2.3703,-2.3177,-2.2365,-2.1198,0.0,0.0,0.0,0.0,0.0,0.0,0.0,0.0,0.0,0.0,0.0,0.0,0.0,0.0,0.0,0.0,0.0,0.0,0.0,0.0,0.0,0.0,0.0,0.0,0.0,0.0,0.0,0.0,0.0,0.0,0.0,0.0,0.0,0.0,0.0,0.0,0.0,0.0,0.0,0.0,0.0,0.0,0.0,0.0,0.0,0.0,0.0,0.0,0.0,0.0,0.0,0.0,0.0,0.0,0.0,0.0,0.0,0.0,0.0,0.0,0.0,0.0,0.0,0.0,0.0,0.0,0.0,0.0,0.0,0.0,0.0,0.0,0.0,0.0,0.0,0.0,0.0,0.0,0.0,0.0,0.0,0.0,0.0,0.0,0.0,0.0,0.0,0.0,0.0,0.0,0.0,0.0,0.0,0.0,0.0,0.0,0.0,0.0,0.0,0.0,0.0,0.0,0.0,-1.9477,-2.0796,-2.3878,-2.3896,-2.3639,-2.3437,-2.2984,-2.2209,-2.111,-1.9513,0.0,0.0,0.0,0.0,0.0,0.0,0.0,0.0,0.0,0.0,0.0,0.0,0.0,0.0,0.0,0.0,0.0,0.0,0.0,0.0,0.0,0.0,0.0,0.0,0.0,0.0,0.0,0.0,0.0,0.0,0.0,0.0,0.0,0.0,0.0,0.0,0.0,0.0,0.0,0.0,0.0,0.0,0.0,0.0,0.0,0.0,0.0,0.0,0.0,0.0,0.0,0.0,0.0,0.0,0.0,0.0,0.0,0.0,0.0,0.0,0.0,0.0,0.0,0.0,0.0,0.0,0.0,0.0,0.0,0.0,0.0,0.0,0.0,0.0,0.0,0.0,0.0,0.0,0.0,0.0,0.0,0.0,0.0,0.0,0.0,0.0,0.0,0.0,0.0,0.0,0.0,0.0,0.0,0.0,0.0,0.0,0.0,0.0,0.0,0.0,0.0,0.0,-2.1475,-2.2251,-2.3902,-2.3847,-2.3566,-2.3224,-2.2784,-2.2065,-2.0997,-1.9227,0.0,0.0,0.0,0.0,0.0,0.0,0.0,0.0,0.0,0.0,0.0,0.0,0.0,0.0,0.0,0.0,0.0,0.0,0.0,0.0,0.0,0.0,0.0,0.0,0.0,0.0,0.0,0.0,0.0,0.0,0.0,0.0,0.0,0.0,0.0,0.0,0.0,0.0,0.0,0.0,0.0,0.0,0.0,0.0,0.0,0.0,0.0,0.0,0.0,0.0,0.0,0.0,0.0,0.0,0.0,0.0,0.0,0.0,0.0,0.0,0.0,0.0,0.0,0.0,0.0,0.0,0.0,0.0,0.0,0.0,0.0,0.0,0.0,0.0,0.0,0.0,0.0,0.0,0.0,0.0,0.0,0.0,0.0,0.0,0.0,0.0,0.0,0.0,0.0,0.0,0.0,0.0,0.0,0.0,0.0,0.0,0.0,0.0,0.0,0.0,0.0,0.0,-2.2105,-2.3892,-2.3756,-2.3714,-2.3566,-2.3224,-2.2488,-2.1817,-2.1305,-1.904,0.0,0.0,0.0,0.0,0.0,0.0,0.0,0.0,0.0,0.0,0.0,0.0,0.0,0.0,0.0,0.0,0.0,0.0,0.0,0.0,0.0,0.0,0.0,0.0,0.0,0.0,0.0,0.0,0.0,0.0,0.0,0.0,0.0,0.0,0.0,0.0,0.0,0.0,0.0,0.0,0.0,0.0,0.0,0.0,0.0,0.0,0.0,0.0,0.0,0.0,0.0,0.0,0.0,0.0,0.0,0.0,0.0,0.0,0.0,0.0,0.0,0.0,0.0,0.0,0.0,0.0,0.0,0.0,0.0,0.0,0.0,0.0,0.0,0.0,0.0,0.0,0.0,0.0,0.0,0.0,0.0,0.0,0.0,0.0,0.0,0.0,0.0,0.0,0.0,0.0,0.0,0.0,0.0,0.0,0.0,0.0,0.0,0.0,0.0,0.0,0.0,0.0,-2.1651,-2.3043,0.0,-2.3649,-2.3414,-2.3493,-2.2713,-2.1929,-2.1332,0.0,0.0,0.0,0.0,0.0,0.0,0.0,0.0,0.0,0.0,0.0,0.0,0.0,0.0,0.0,0.0,0.0,0.0,0.0,0.0,0.0,0.0,0.0,0.0,0.0,0.0,0.0,0.0,0.0,0.0,0.0,0.0,0.0,0.0,0.0,0.0,0.0,0.0,0.0,0.0,0.0,0.0,0.0,0.0,0.0,0.0,0.0,0.0,0.0,0.0,0.0,0.0,0.0,0.0,0.0,0.0,0.0,0.0,0.0,0.0,0.0,0.0,0.0,0.0,0.0,0.0,0.0,0.0,0.0,0.0,0.0,0.0,0.0,0.0,0.0,0.0,0.0,0.0,0.0,0.0,0.0,0.0,0.0,0.0,0.0,0.0,0.0,0.0,0.0,0.0,0.0,0.0,0.0,0.0,0.0,0.0,0.0,0.0,0.0,0.0,0.0,0.0,-2.0304,-2.1762,-2.2933,0.0,-2.3621,-2.3369,-2.338,-2.2661,-2.1779,-2.0825,0.0,0.0,0.0,0.0,0.0,0.0,0.0,0.0,0.0,0.0,0.0,0.0,0.0,0.0,0.0,0.0,0.0,0.0,0.0,0.0,0.0,0.0,0.0,0.0,0.0,0.0,0.0,0.0,0.0,0.0,0.0,0.0,0.0,0.0,0.0,0.0,0.0,0.0,0.0,0.0,0.0,0.0,0.0,0.0,0.0,0.0,0.0,0.0,0.0,0.0,0.0,0.0,0.0,0.0,0.0,0.0,0.0,0.0,0.0,0.0,0.0,0.0,0.0,0.0,0.0,0.0,0.0,0.0,0.0,0.0,0.0,0.0,0.0,0.0,0.0,0.0,0.0,0.0,0.0,0.0,0.0,0.0,0.0,0.0,0.0,0.0,0.0,0.0,0.0,0.0,0.0,0.0,0.0,0.0,0.0,0.0,0.0,0.0,0.0,0.0,0.0,0.0,-2.0341,-2.2666,-2.4074,-2.3735,-2.3703,-2.3426,-2.2772,-2.2288,-2.1324,0.0,0.0,0.0,0.0,0.0,0.0,0.0,0.0,0.0,0.0,0.0,0.0,0.0,0.0,0.0,0.0,0.0,0.0,0.0,0.0,0.0,0.0,0.0,0.0,0.0,0.0,0.0,0.0,0.0,0.0,0.0,0.0,0.0,0.0,0.0,0.0,0.0,0.0,0.0,0.0,0.0,0.0,0.0,0.0,0.0,0.0,0.0,0.0,0.0,0.0,0.0,0.0,0.0,0.0,0.0,0.0,0.0,0.0,0.0,0.0,0.0,0.0,0.0,0.0,0.0,0.0,0.0,0.0,0.0,0.0,0.0,0.0,0.0,0.0,0.0,0.0,0.0,0.0,0.0,0.0,0.0,0.0,0.0,0.0,0.0,0.0,0.0,0.0,0.0,0.0,0.0,0.0,0.0,0.0,0.0,0.0,0.0,0.0,0.0,0.0,0.0,0.0,0.0,-2.115,-2.3052,-2.4161,-2.4064,-2.3837,-2.361,-2.3414,-2.2846,-2.1715,-1.9858,0.0,0.0,0.0,0.0,0.0,0.0,0.0,0.0,0.0,0.0,0.0,0.0,0.0,0.0,0.0,0.0,0.0,0.0,0.0,0.0,0.0,0.0,0.0,0.0,0.0,0.0,0.0,0.0,0.0,0.0,0.0,0.0,0.0,0.0,0.0,0.0,0.0,0.0,0.0,0.0,0.0,0.0,0.0,0.0,0.0,0.0,0.0,0.0,0.0,0.0,0.0,0.0,0.0,0.0,0.0,0.0,0.0,0.0,0.0,0.0,0.0,0.0,0.0,0.0,0.0,0.0,0.0,0.0,0.0,0.0,0.0,0.0,0.0,0.0,0.0,0.0,0.0,0.0,0.0,0.0,0.0,0.0,0.0,0.0,0.0,0.0,0.0,0.0,0.0,0.0,0.0,0.0,0.0,0.0,0.0,0.0,0.0,0.0,0.0,0.0,0.0,0.0,-2.1444,-2.3483,-2.4566,-2.4226,-2.4187,-2.3992,-2.3529,-2.3009,-2.1798,-1.9682,0.0,0.0,0.0,0.0,0.0,0.0,0.0,0.0,0.0,0.0,0.0,0.0,0.0,0.0,0.0,0.0,0.0,0.0,0.0,0.0,0.0,0.0,0.0,0.0,0.0,0.0,0.0,0.0,0.0,0.0,0.0,0.0,0.0,0.0,0.0,0.0,0.0,0.0,0.0,0.0,0.0,0.0,0.0,0.0,0.0,0.0,0.0,0.0,0.0,0.0,0.0,0.0,0.0,0.0,0.0,0.0,0.0,0.0,0.0,0.0,0.0,0.0,0.0,0.0,0.0,0.0,0.0,0.0,0.0,0.0,0.0,0.0,0.0,0.0,0.0,0.0,0.0,0.0,0.0,0.0,0.0,0.0,0.0,0.0,0.0,0.0,0.0,0.0,0.0,0.0,0.0,0.0,0.0,0.0,0.0,0.0,0.0,0.0,0.0,0.0,0.0,0.0,-2.149,-2.3942,-2.5154,-2.4483,-2.4735,-2.4498,-2.3401,-2.2958,-2.1747,-1.9419,0.0,0.0,0.0,0.0,0.0,0.0,0.0,0.0,0.0,0.0,0.0,0.0,0.0,0.0,0.0,0.0,0.0,0.0,0.0,0.0,0.0,0.0,0.0,0.0,0.0,0.0,0.0,0.0,0.0,0.0,0.0,0.0,0.0,0.0,0.0,0.0,0.0,0.0,0.0,0.0,0.0,0.0,0.0,0.0,0.0,0.0,0.0,0.0,0.0,0.0,0.0,0.0,0.0,0.0,0.0,0.0,0.0,0.0,0.0,0.0,-1.9132,0.0,0.0,0.0,0.0,0.0,0.0,0.0,0.0,0.0,0.0,0.0,0.0,0.0,0.0,0.0,0.0,0.0,0.0,0.0,0.0,0.0,0.0,0.0,0.0,0.0,0.0,0.0,0.0,0.0,0.0,0.0,0.0,0.0,0.0,0.0,0.0,0.0,0.0,0.0,0.0,0.0,-2.2318,-2.4309,-2.5576,-2.6043,-2.5607,-2.4983,-2.42,-2.3495,-2.2157,-1.9974,-1.8529,0.0,0.0,0.0,0.0,0.0,0.0,0.0,0.0,0.0,0.0,0.0,0.0,0.0,0.0,0.0,0.0,0.0,0.0,0.0,0.0,0.0,0.0,0.0,0.0,0.0,0.0,0.0,0.0,0.0,0.0,0.0,0.0,0.0,0.0,0.0,0.0,0.0,0.0,0.0,0.0,0.0,0.0,0.0,0.0,0.0,0.0,0.0,0.0,0.0,0.0,0.0,0.0,0.0,0.0,0.0,0.0,0.0,0.0,0.0,0.0,-2.106,0.0,0.0,0.0,0.0,0.0,0.0,0.0,0.0,0.0,0.0,0.0,0.0,0.0,0.0,0.0,0.0,0.0,0.0,0.0,0.0,0.0,0.0,0.0,0.0,0.0,0.0,0.0,0.0,0.0,0.0,0.0,0.0,0.0,0.0,0.0,0.0,0.0,0.0,0.0,0.0,-2.3107,-2.4979,-2.6135,-2.6557,-2.6557,-2.5958,-2.4514,-2.4027,-2.286,-2.0721,-1.9564,0.0,0.0,0.0,0.0,0.0,0.0,0.0,0.0,0.0,0.0,0.0,0.0,0.0,0.0,0.0,0.0,0.0,0.0,0.0,0.0,0.0,0.0,0.0,0.0,0.0,0.0,0.0,0.0,0.0,0.0,0.0,0.0,0.0,0.0,0.0,0.0,0.0,0.0,0.0,0.0,0.0,0.0,0.0,0.0,0.0,0.0,0.0,0.0,0.0,0.0,0.0,0.0,0.0,-2.4263,-2.5383,-2.6054,-2.6722,-2.7457,-2.8037,-2.4773,-2.3916,-2.476,-2.3932,0.0,0.0,0.0,0.0,0.0,0.0,0.0,0.0,0.0,0.0,0.0,0.0,0.0,0.0,0.0,0.0,0.0,0.0,0.0,0.0,0.0,0.0,0.0,0.0,-2.3377,-2.3543,0.0,0.0,0.0,0.0,0.0,0.0,0.0,0.0,0.0,0.0,0.0,0.0,-2.3914,-2.5805,-2.6869,-2.7005,-2.7493,-2.6977,-2.4994,-2.4571,-2.3578,-2.1701,-2.072,-1.9433,0.0,0.0,0.0,0.0,0.0,0.0,0.0,0.0,0.0,0.0,0.0,0.0,0.0,0.0,0.0,0.0,0.0,0.0,0.0,0.0,0.0,0.0,0.0,0.0,0.0,0.0,0.0,0.0,0.0,0.0,0.0,0.0,-1.8218,-1.9824,0.0,0.0,0.0,0.0,0.0,0.0,0.0,0.0,0.0,0.0,0.0,0.0,0.0,-2.285,-2.3547,-2.5052,-2.585,-2.5988,-2.7592,-2.8418,-2.8528,-2.8638,-2.9115,-2.9861,-2.9333,0.0,-2.721,-2.5717,0.0,0.0,0.0,0.0,0.0,0.0,0.0,0.0,0.0,0.0,0.0,0.0,0.0,0.0,0.0,0.0,0.0,0.0,0.0,0.0,0.0,0.0,-2.5807,-2.447,-2.4525,-2.4767,0.0,-2.2246,-2.0238,-1.9426,-1.8288,0.0,0.0,0.0,0.0,0.0,0.0,0.0,-2.4897,-2.666,-2.7915,-2.8601,-2.8154,-2.745,-2.6557,-2.5197,-2.402,-2.3163,-2.1817,-2.0933,-2.0654,-1.8751,0.0,0.0,0.0,0.0,0.0,0.0,0.0,0.0,0.0,0.0,0.0,0.0,0.0,0.0,0.0,0.0,0.0,0.0,0.0,0.0,0.0,0.0,0.0,0.0,0.0,0.0,0.0,0.0,0.0,-1.7601,-1.9381,-2.1033,-2.0611,-2.0134,0.0,0.0,0.0,0.0,0.0,0.0,0.0,0.0,0.0,-2.4483,-2.5721,-2.6547,-2.6895,-2.8062,-2.8631,-2.865,-2.9806,-3.0595,-3.1041,-3.1482,-3.2142,-3.2894,-3.2894,-3.2247,-3.098,-2.8466,-2.6686,-2.5428,0.0,0.0,0.0,0.0,-2.378,-2.4053,-2.5381,-2.5609,0.0,-2.5285,0.0,0.0,0.0,0.0,0.0,0.0,0.0,0.0,0.0,0.0,-2.6881,-2.6451,-2.6808,-2.7024,-2.6136,-2.4951,-2.3443,0.0,-2.0446,-1.9434,-1.7465,0.0,0.0,0.0,0.0,-2.307,-2.5474,-2.6966,-2.8117,-2.8913,-2.8675,-2.8104,-2.7158,-2.6014,-2.489,-2.3808,-2.267,-2.1793,-2.1221,-1.9869,-1.8478,0.0,0.0,0.0,0.0,0.0,0.0,0.0,0.0,0.0,0.0,0.0,0.0,0.0,0.0,0.0,0.0,0.0,0.0,0.0,0.0,0.0,0.0,0.0,0.0,0.0,0.0,0.0,0.0,-1.9473,-2.0784,-2.2235,-2.2602,-2.24,0.0,0.0,0.0,0.0,0.0,0.0,-2.419,-2.6308,-2.753,-2.753,-2.8877,-2.961,-2.961,-3.0399,-3.0925,-3.1127,-3.1935,-3.2742,-3.3555,-3.4174,-3.478,-3.5334,-3.5334,-3.4986,-3.4192,-3.0962,-2.8785,-2.7405,-2.6169,-2.5296,-2.4784,-2.5561,-2.5931,-2.626,-2.801,-2.8619,-2.8512,-2.7855,0.0,-2.6818,-2.496,0.0,0.0,0.0,0.0,-2.5694,-2.5658,-2.664,-2.774,-2.8029,-2.8552,-2.8688,-2.7537,-2.73,-2.6349,0.0,-2.2628,-2.1967,-1.9666,0.0,0.0,0.0,0.0,-2.4154,-2.6268,-2.7463,-2.8304,-2.8778,-2.8851,-2.8458,-2.754,-2.6729,-2.5742,-2.4449,-2.3532,-2.2604,-2.1621,-2.0929,-1.9929,-1.8535,0.0,0.0,0.0,0.0,0.0,0.0,0.0,0.0,0.0,0.0,0.0,0.0,0.0,0.0,0.0,0.0,0.0,0.0,0.0,0.0,0.0,0.0,0.0,0.0,0.0,0.0,0.0,0.0,0.0,-2.3969,-2.475,0.0,0.0,0.0,0.0,-2.5099,-2.5897,-2.6704,-2.7512,-2.9127,-3.0026,-3.0026,-3.0834,-3.1286,-3.1286,-3.2082,-3.2871,-3.3623,-3.4435,-3.5261,-3.6119,-3.6156,-3.6193,-3.6229,-3.6229,-3.6211,-3.5917,-3.2632,-3.0779,-2.9898,-2.861,-2.7942,-2.7639,-2.7254,-2.7363,-2.7707,-2.7809,-2.786,-2.815,-2.992,-3.0525,-3.0455,-2.9966,-2.8991,0.0,0.0,-2.7874,-2.806,-2.7742,-2.8265,-2.8909,-2.8925,-2.8976,-2.8976,-2.8891,-2.8874,-2.7977,0.0,-2.4633,-2.4555,-2.3653,0.0,-2.4055,-2.4495,-2.5277,-2.6283,-2.7548,-2.8436,-2.8815,-2.8471,-2.8433,-2.8272,-2.7897,-2.7191,-2.638,-2.5482,-2.448,-2.3545,-2.2665,-2.2337,-2.1451,-1.993,-1.854,0.0,0.0,0.0,0.0,0.0,0.0,0.0,0.0,0.0,0.0,0.0,0.0,0.0,0.0,0.0,0.0,0.0,0.0,0.0,0.0,0.0,0.0,0.0,0.0,0.0,0.0,0.0,0.0,-2.6355,-2.7236,0.0,-2.7317,-2.7281,-2.7409,-2.7695,-2.8466,-2.9108,-2.9585,-3.1132,-3.2233,-3.2752,-3.3598,-3.4208,-3.4555,-3.4835,-3.5128,-3.5404,-3.5697,-3.6009,-3.6321,-3.685,-3.707,-3.707,-3.707,-3.707,-3.6942,-3.5238,-3.3894,-3.2709,-3.1479,-3.076,-3.042,-3.0446,-3.0579,-3.0751,-3.1241,-3.139,-3.1443,-3.1707,-3.1369,-3.0871,-3.0954,-3.0459,-2.9835,-2.9488,-2.9239,-2.911,-2.9235,-2.9499,-2.9837,-3.0294,-3.0431,-3.0277,-2.9803,-2.9702,-2.9245,-2.7706,-2.708,-2.6308,-2.4775,-2.4849,-2.4974,-2.4529,-2.5643,-2.6754,-2.741,-2.8381,-2.8851,-2.8446,-2.8407,-2.8355,-2.8237,-2.7028,-2.6163,-2.5913,-2.4587,-2.3567,-2.3033,-2.2928,-2.2621,-2.2075,-2.0657,-1.8874,0.0,0.0,0.0,0.0,0.0,0.0,0.0,0.0,0.0,0.0,0.0,0.0,0.0,0.0,0.0,0.0,0.0,0.0,0.0,0.0,0.0,0.0,0.0,0.0,0.0,0.0,-2.6715,-2.8044,-2.9145,-2.9702,-2.9427,-2.9647,-2.9812,-2.9812,-3.0815,-3.1543,-3.1829,-3.3287,-3.4396,-3.5019,-3.5522,-3.5945,-3.6285,-3.6303,-3.6431,-3.6703,-3.6703,-3.6835,-3.7129,-3.7661,-3.7915,-3.7915,-3.7915,-3.7915,-3.786,-3.7331,-3.6471,-3.5393,-3.4072,-3.3263,-3.2821,-3.2921,-3.2932,-3.2997,-3.3283,-3.3515,-3.3634,-3.3318,-3.2882,-3.256,-3.2943,-3.2761,-3.2337,-3.1868,-3.1426,-3.1093,-3.1189,-3.1224,-3.1275,-3.1512,-3.1582,-3.136,-3.0632,-3.048,-3.0328,-2.9839,-2.8907,-2.7792,-2.6511,-2.6536,-2.6583,-2.612,-2.7002,-2.7752,-2.7865,-2.8536,-2.8758,-2.8088,-2.8029,-2.8029,-2.8029,-2.6933,-2.6188,-2.6074,-2.484,-2.3887,-2.3398,-2.3247,-2.32,-2.32,-2.1825,-2.0123,-1.8122,0.0,0.0,0.0,0.0,0.0,0.0,0.0,0.0,0.0,0.0,0.0,0.0,0.0,0.0,0.0,0.0,0.0,0.0,0.0,0.0,0.0,0.0,0.0,-2.43,-2.6392,-2.8227,-2.9042,-3.0558,-3.1231,-3.0467,-3.1103,-3.1562,-3.1562,-3.2999,-3.4015,-3.4347,-3.5605,-3.6445,-3.6727,-3.6477,-3.6354,-3.6376,-3.6376,-3.6776,-3.7547,-3.7547,-3.7936,-3.8707,-3.8726,-3.8744,-3.8744,-3.8762,-3.8781,-3.8781,-3.8762,-3.8419,-3.7785,-3.6266,-3.5338,-3.48,-3.4409,-3.4272,-3.4174,-3.3645,-3.3796,-3.4297,-3.4693,-3.5182,-3.5693,-3.6164,-3.5964,-3.5465,-3.4941,-3.4492,-3.4066,-3.3535,-3.3406,-3.322,-3.2513,-3.2327,-3.2107,-3.1396,-3.1207,-3.119,-3.119,-3.0059,-2.9061,-2.9044,-2.9027,-2.9137,-2.9454,-2.9505,0.0,-2.9064,-2.9036,-2.8587,-2.7454,-2.7321,-2.7321,-2.7319,-2.6917,-2.6468,-2.6063,-2.5298,-2.4526,-2.375,-2.3403,-2.3224,-2.3224,-2.198,-2.0561,-1.9055,0.0,0.0,0.0,0.0,0.0,0.0,0.0,0.0,0.0,0.0,0.0,0.0,0.0,0.0,0.0,0.0,0.0,0.0,0.0,0.0,0.0,-2.5613,-2.6814,-2.6814,-2.89,-3.0925,-3.232,-3.339,-3.416,-3.4578,-3.4816,-3.4945,-3.4945,-3.5349,-3.5754,-3.6019,-3.6376,-3.6883,-3.7545,-3.7509,-3.7646,-3.8046,-3.8046,-3.8157,-3.8377,-3.8377,-3.8487,-3.8726,-3.9294,-3.957,-3.9588,-4.0194,-4.0435,-4.038,-3.9808,-3.9256,-3.8669,-3.7658,-3.6738,-3.5939,-3.5833,-3.5542,-3.5176,-3.5057,-3.4968,-3.5,-3.5448,-3.556,-3.5612,-3.6131,-3.5709,-3.4993,-3.4836,-3.4229,-3.3598,-3.3448,-3.3406,-3.3355,-3.3152,-3.2679,-3.2242,-3.2039,-3.1562,-3.119,-3.119,-3.0869,-3.0429,-2.9888,-2.9803,-2.9731,-2.9541,-2.9505,0.0,-2.9759,-2.9803,-2.9365,-2.822,-2.8103,-2.7987,-2.7745,-2.6549,-2.6002,-2.6414,-2.515,-2.4283,-2.4064,-2.3976,-2.3927,-2.3927,-2.2437,-2.1141,0.0,0.0,0.0,0.0,0.0,0.0,0.0,0.0,0.0,0.0,0.0,0.0,0.0,0.0,0.0,0.0,0.0,0.0,0.0,0.0,0.0,0.0,-2.8319,-2.9934,-3.0265,-3.1513,-3.2999,-3.4651,-3.5257,-3.5752,-3.6248,-3.6303,-3.6303,-3.6303,-3.6611,-3.6915,-3.7179,-3.7418,-3.7794,-3.8383,-3.8289,-3.8549,-3.9203,-3.8872,-3.9038,-3.9701,-3.9368,-3.9386,-3.9735,-4.0194,-4.0396,0.0,-4.0893,-4.1095,-4.1058,-4.0598,-4.0213,0.0,0.0,0.0,0.0,0.0,-3.6054,-3.56,-3.56,-3.5651,-3.5781,-3.6276,-3.647,-3.6555,-3.6885,-3.6555,-3.6007,-3.5589,-3.5065,-3.4601,-3.438,-3.4315,-3.423,-3.3931,-3.3525,-3.3139,-3.2835,-3.2171,-3.1667,-3.1667,-3.141,0.0,-3.0632,-3.0565,-3.0472,-3.0256,-3.0224,-3.0247,-3.0326,-3.0357,-3.0043,-2.9274,-2.8891,-2.8614,-2.8425,-2.7063,0.0,0.0,0.0,-2.4548,-2.4208,-2.419,0.0,0.0,0.0,0.0,0.0,0.0,0.0,0.0,-2.0291,-1.9795,0.0,0.0,0.0,0.0,0.0,0.0,0.0,0.0,0.0,0.0,0.0,0.0,0.0,0.0,0.0,0.0,-3.0889,-3.3188,-3.4082,-3.4211,-3.4761,-3.6248,-3.6431,-3.6468,-3.656,-3.656,-3.656,-3.656,-3.7235,-3.7786,-3.812,0.0,0.0,0.0,0.0,-3.9313,-4.0029,-3.9331,-3.9698,-4.1095,-4.0377,-4.0414,-4.1095,-4.1187,-4.1242,-4.1242,-4.1334,-4.137,-4.1352,-4.126,-4.1152,-4.0796,-3.8846,-3.7828,-3.7381,-3.6696,-3.6148,-3.5718,-3.5633,0.0,0.0,-3.6941,-3.7433,-3.7825,-3.7825,-3.7825,-3.7632,-3.6664,-3.6371,-3.6203,-3.5717,-3.56,-3.543,-3.4776,-3.4556,-3.432,-3.3677,-3.2933,-3.2395,-3.2327,-3.1769,-3.1292,-3.1207,-3.119,-3.119,-3.119,-3.1249,-3.1153,-3.0854,-3.0872,-3.0781,-3.0475,0.0,0.0,-2.9165,-2.8035,-2.7013,-2.6249,-2.5786,-2.5227,-2.4502,-2.4465,-2.4465,-2.4465,-2.5172,-2.554,-2.554,-2.6245,-2.6602,-2.6502,-2.2152,-2.1308,0.0,0.0,0.0,0.0,0.0,0.0,0.0,0.0,0.0,0.0,0.0,0.0,0.0,0.0,0.0,-3.1298,-3.328,-3.5059,-3.6574,-3.6776,-3.6905,-3.7235,-3.7272,-3.7529,-3.8175,-3.8248,-3.8248,-3.8248,-3.8377,-3.8756,-3.9491,-3.9617,-3.9987,-4.0691,-4.0666,-4.071,-4.0873,-4.071,-4.0783,-4.1095,0.0,0.0,-4.1113,-4.1772,-4.2066,-4.2103,-4.2745,-4.3039,-4.2983,-4.2341,-4.1442,-4.0366,-3.9525,-3.9148,-3.8879,-3.7291,-3.6667,-3.6468,-3.5842,-3.5672,-3.5832,-3.6374,-3.6921,-3.7341,-3.7341,-3.7341,0.0,-3.658,-3.6097,-3.5739,-3.5622,-3.56,-3.5566,-3.5414,-3.4928,-3.4455,-3.432,-3.3711,-3.3,-3.2412,-3.2192,-3.1904,-3.1292,-3.119,-3.119,-3.119,-3.1487,-3.1646,-3.1599,-3.1934,-3.1904,-3.1255,-3.1058,-3.0558,-2.9588,-2.867,-2.796,-2.7485,-2.6764,-2.63,-2.6153,-2.6135,-2.6135,-2.6135,-2.63,-2.6374,-2.6374,-2.6521,-2.6602,-2.6583,-2.564,-2.5456,0.0,0.0,0.0,0.0,0.0,0.0,0.0,0.0,0.0,0.0,0.0,-2.6072,-2.8258,0.0,-3.1382,-3.3152,-3.5023,-3.6688,-3.7918,-3.8465,-3.8557,-3.8138,-3.8102,-3.8414,-3.9221,-3.9294,-3.9478,-3.9866,-3.9884,-4.0084,-4.0487,-4.0506,-4.0689,-4.1077,-4.1095,-4.1279,-4.1699,-4.1297,-4.1515,-4.2304,-4.1901,-4.1919,-4.2304,-4.2708,-4.2892,-4.291,-4.3331,-4.3515,-4.3478,-4.3057,-4.2515,-4.1832,-4.0967,-4.002,-3.8965,-3.7763,-3.7347,-3.728,-3.6907,-3.6749,-3.6831,-3.7344,-3.7694,-3.7875,-3.7784,-3.7563,-3.7233,-3.6582,-3.6011,-3.56,-3.56,-3.56,-3.56,-3.56,-3.5312,-3.5064,-3.5064,-3.4472,-3.3829,-3.3457,-3.3085,-3.2611,-3.1887,-3.1752,-3.1633,-3.1258,-3.1528,-3.188,-3.2109,-3.2567,-3.2791,-3.2621,-3.2238,-3.1767,-3.1146,-2.9635,-2.8621,-2.8418,-2.7273,-2.6602,-2.6602,-2.6602,-2.6602,-2.6602,-2.6998,-2.7402,-2.7794,-2.8198,-2.8613,-2.8998,-2.8998,-2.8576,0.0,0.0,0.0,0.0,0.0,0.0,0.0,0.0,-2.4822,-2.717,-2.757,-2.8318,-3.1042,-3.2433,-3.3587,-3.4935,-3.6736,-3.8264,-3.9056,-3.9776,-4.0004,-3.9326,-3.9212,-3.9423,-4.0065,-4.012,-4.0396,-4.104,-4.1095,-4.1168,-4.1315,-4.1334,-4.1389,-4.157,-4.1572,-4.1882,-4.2525,-4.1901,-4.2213,-4.3496,-4.2837,-4.2873,-4.3515,-4.3515,-4.3515,-4.3515,-4.3515,-4.3515,-4.3515,-4.3515,-4.3515,-4.341,-4.2366,-4.0948,-3.9373,-3.844,-3.8125,-3.8091,-3.7956,-3.7905,-3.796,-3.8345,-3.8535,-3.8551,-3.83,-3.7983,-3.753,-3.6719,-3.6163,-3.5785,-3.5633,-3.56,-3.56,-3.56,-3.56,-3.56,-3.56,-3.5131,-3.4675,-3.4523,-3.4015,-3.3372,-3.2649,-3.2513,-3.2226,-3.1326,-3.1528,-3.195,-3.2316,-3.2777,-3.3211,-3.3634,-3.3094,-3.2682,-3.2619,-3.0675,-2.9464,-2.9464,-2.8253,-2.753,-2.753,-2.753,-2.753,-2.753,-2.8172,-2.8815,-2.9464,-3.0118,-3.076,-3.1397,-3.1549,-3.0852,-2.5053,-2.3804,-2.3106,-2.4078,-2.4881,-2.5949,0.0,0.0,-2.8845,-3.0958,-3.1017,-3.1474,-3.4039,-3.4872,-3.5851,-3.7888,-3.9006,-3.99,-4.071,-4.1181,-4.138,-4.1287,-4.1018,-4.0857,-4.0948,-4.0967,-4.1003,-4.1095,-4.1095,-4.1407,-4.2139,-4.2176,-4.2488,-4.3221,-4.3222,-4.3276,-4.3368,-4.3277,-4.3331,-4.3515,-4.3423,-4.3423,-4.3515,-4.3515,-4.3515,-4.3515,-4.3515,-4.3515,-4.3515,-4.3515,-4.3515,-4.3444,-4.2827,-4.2469,-4.1982,-3.9709,-3.887,-3.8768,-3.8125,-3.7905,-3.7905,-3.796,-3.8248,-3.8518,-3.8082,-3.8197,-3.8242,-3.7075,-3.6706,-3.6485,-3.5785,-3.56,-3.56,-3.56,-3.56,-3.56,-3.56,-3.5532,-3.5278,-3.4624,-3.4421,-3.4134,-3.3406,-3.3288,-3.2797,-3.141,-3.1528,-3.1825,-3.1879,-3.2299,-3.2745,-3.3229,-3.3186,-3.299,-3.263,-3.1696,-3.114,-3.114,-3.0962,-3.0864,-3.0864,-3.0864,-3.0864,-3.0864,-3.0956,-3.1048,-3.114,-3.1231,-3.1323,-3.1415,-3.2137,-3.199,-2.7652,-2.645,-2.5522,-2.6015,-2.7223,-2.8514,-2.9367,-2.9902,-3.0691,-3.2506,-3.2677,-3.3155,-3.5141,-3.6277,-3.733,0.0,-3.9867,-4.0891,-4.1699,-4.2082,-4.2298,-4.2307,-4.2173,-4.2082,-4.2082,-4.1901,-4.1992,-4.2451,-4.2506,-4.2635,-4.2983,-4.3002,-4.3149,-4.3496,-4.3515,-4.3515,-4.3515,-4.3515,-4.3515,-4.3515,-4.3515,-4.3515,-4.3515,-4.3515,-4.3515,-4.3515,-4.3515,-4.3515,-4.3515,-4.3515,-4.3515,-4.3444,-4.292,-4.2711,-4.2541,-4.1135,-4.0401,-4.0055,-3.977,-3.9423,-3.9231,-3.9525,-3.9572,-3.9463,-3.9477,-3.9158,-3.8698,-3.802,-3.766,-3.7263,-3.6502,-3.6299,-3.618,-3.5701,-3.56,-3.56,-3.56,-3.56,-3.5498,-3.5194,-3.5148,-3.4912,-3.4167,-3.4032,-3.3694,-3.2645,-3.2488,-3.2326,-3.1859,-3.2196,-3.2681,-3.3154,-3.3404,-3.3478,-3.3316,-3.2559,-3.21,-3.21,-3.1659,-3.1397,-3.1397,-3.1397,-3.1397,-3.1397,-3.1397,-3.1623,-3.21,-3.21,-3.2339,-3.2797,-3.3146,-3.3128,-2.8752,-2.816,-2.7675,-2.7883,-2.9461,-3.0929,-3.0697,-3.1306,-3.2389,-3.3864,-3.42,-3.4695,-3.6363,-3.7539,-3.8541,-3.9493,-4.0656,-4.1717,-4.2525,-4.273,-4.2801,-4.2794,-4.26,-4.2555,-4.2779,-4.2493,-4.2635,-4.3441,-4.3515,-4.3515,-4.3515,-4.3515,-4.3515,-4.3515,-4.3515,-4.3515,-4.3515,-4.3515,-4.3515,-4.3515,-4.3515,-4.3515,-4.3515,-4.3515,-4.3515,-4.3515,-4.3515,-4.3515,-4.3515,-4.3515,-4.3515,-4.3462,-4.3069,-4.292,-4.2883,-4.2424,-4.1775,-4.1133,-4.0972,-4.0655,-4.0392,-4.078,-4.0631,-4.0363,-4.0617,-4.0146,-3.9412,-3.886,-3.8474,-3.8024,-3.728,-3.6965,-3.666,-3.6079,-3.5752,-3.56,-3.56,-3.56,-3.56,-3.56,-3.56,-3.543,-3.4895,-3.4793,-3.4556,-3.3812,-3.355,-3.3137,-3.2326,-3.2475,-3.2714,-3.2986,-3.3375,-3.368,-3.3775,-3.3275,-3.2931,-3.2931,-3.2375,-3.2045,-3.2045,-3.2045,-3.2045,-3.2045,-3.2045,-3.2357,-3.2931,-3.2931,-3.3238,-3.3807,-3.3807,-3.3917,-2.7842,-2.8381,-2.9107,-2.984,-3.1762,-3.3283,-3.2417,-3.3196,-3.4443,-3.5666,-3.5916,-3.6488,-3.8282,-3.8867,-3.9494,-4.0811,-4.1719,-4.2543,-4.3349,-4.3082,-4.2797,-4.2797,-4.2108,-4.194,0.0,-4.2493,-4.2635,-4.3441,-4.3515,-4.3515,-4.3515,-4.3515,-4.3515,-4.3515,-4.3515,-4.3515,-4.3515,-4.3515,-4.3515,-4.3515,-4.3515,-4.3515,-4.3515,-4.3515,-4.3515,-4.3515,-4.3515,-4.3515,-4.3515,-4.3515,-4.3515,-4.3515,-4.3479,-4.348,-4.3462,-4.3444,-4.2734,-4.1686,-4.111,-4.088,-4.088,-4.0903,-4.088,-4.088,-4.0886,-4.0868,-4.059,-3.9343,-3.8979,-3.8802,-3.8058,-3.733,-3.6795,-3.6778,-3.6163,-3.56,-3.56,-3.56,-3.56,-3.56,-3.56,-3.5583,-3.5566,-3.5566,-3.5312,-3.4573,-3.446,-3.4189,-3.3461,-3.3144,-3.2876,-3.2538,-3.2937,-3.3394,-3.378,-3.377,-3.3752,-3.3752,-3.3733,-3.3733,-3.3733,-3.3733,-3.3733,-3.3733,-3.3733,-3.3733,-3.3752,-3.3752,-3.377,-3.3807,-3.3807,-3.4229,-2.9751,-3.0586,-3.1315,-3.2619,-3.3846,-3.4727,-3.4747,-3.5203,-3.5884,-3.6655,-3.6341,-3.6399,-3.7904,-3.8231,-3.8932,-4.0791,-4.1791,-4.258,-4.3404,-4.3548,-4.3197,-4.2135,-4.2242,0.0,0.0,0.0,0.0,-4.3441,-4.3515,-4.3515,-4.3515,-4.3515,-4.3515,-4.3515,-4.3515,-4.3515,-4.3515,-4.3515,-4.3515,-4.3515,-4.3515,-4.3515,-4.3515,-4.3515,-4.3515,-4.3515,-4.3515,-4.3515,-4.3515,-4.3515,-4.3515,-4.3515,-4.3515,-4.3515,-4.3515,-4.3515,-4.3249,-4.2847,-4.2284,-4.1578,-4.1041,-4.1814,-4.1556,-4.1064,-4.1853,-4.1534,-4.0897,-4.0877,-4.0311,-3.9734,-3.9755,-3.9003,-3.8228,-3.8088,-3.7587,-3.6992,-3.6502,-3.64,-3.6231,-3.5701,-3.56,-3.56,-3.56,-3.56,-3.5515,-3.5261,-3.4404,-3.3824,-3.392,-3.4096,-3.4288,-3.453,-3.4975,-3.5312,-3.5459,-3.4926,-3.4601,-3.4601,-3.41,-3.3807,-3.3807,-3.3807,-3.3807,-3.3807,-3.3807,-3.4064,-3.4601,-3.4601,-3.489,-3.5459,-3.5459,-3.5605,-3.1256,-3.2442,-3.3419,-3.4857,-3.5722,-3.6262,-3.6394,-3.6688,-3.6951,-3.7004,-3.6737,-3.6657,-3.721,-3.7548,-3.8391,-4.0347,-4.135,-4.2249,-4.3349,-4.3529,-4.3137,-4.2001,-4.2155,-4.2221,0.0,0.0,0.0,-4.3441,-4.3515,-4.3515,-4.3515,-4.3515,-4.3515,-4.3515,-4.3515,-4.3515,-4.3515,-4.3515,-4.3515,-4.3515,-4.3515,-4.3515,-4.3515,-4.3515,-4.3515,-4.3515,-4.3515,-4.3515,-4.3515,-4.3515,-4.3515,-4.3515,-4.3515,-4.3515,-4.3515,-4.3515,-4.3515,-4.3427,-4.2883,-4.2183,-4.1643,-4.2183,-4.1853,-4.1335,-4.1895,-4.1512,-4.0926,-4.1127,-4.0797,-4.045,-4.0701,-4.0025,-3.9258,-3.9121,-3.8477,-3.777,-3.7297,-3.7178,-3.7026,-3.6535,-3.6214,-3.6028,-3.6028,-3.5785,-3.56,-3.56,-3.4967,-3.4507,-3.4579,-3.497,-3.5331,-3.5566,-3.5884,-3.6117,-3.6303,-3.5789,-3.5463,-3.5463,-3.4981,-3.4688,-3.4688,-3.4688,-3.4688,-3.4688,-3.4688,-3.4945,-3.5463,-3.5463,-3.5752,-3.6303,-3.6303,-3.645,-3.2344,-3.3959,-3.5454,-3.6584,-3.7424,-3.7844,-3.7431,-3.7596,-3.7623,-3.6847,-3.702,-3.7088,0.0,0.0,-3.7915,-3.957,-4.0561,-4.1645,-4.3276,-4.3122,-4.2711,0.0,0.0,0.0,0.0,0.0,0.0,-4.3441,0.0,-4.3515,-4.3515,-4.3515,-4.3515,-4.3515,-4.3515,-4.3515,-4.3515,-4.3515,-4.3515,-4.3515,-4.3515,-4.3515,-4.3515,-4.3515,-4.3515,-4.3515,-4.3515,-4.3515,-4.3515,-4.3515,-4.3515,-4.3515,-4.3515,-4.3515,-4.3515,-4.3515,-4.3515,-4.3427,-4.292,-4.2731,-4.2616,-4.2021,-4.1832,-4.1686,-4.1133,-4.0926,-4.0803,-4.036,-4.057,-4.0926,-4.1018,-4.0457,-3.9914,-3.9936,-3.8974,-3.8055,-3.8051,-3.8028,-3.7987,-3.7953,-3.7354,-3.6863,-3.6863,-3.6231,-3.5701,-3.5667,-3.6144,-3.6232,-3.5489,-3.5798,-3.6007,-3.5778,-3.5754,-3.5947,-3.6384,-3.6376,-3.6358,-3.6358,-3.6321,-3.6303,-3.6303,-3.6303,-3.6303,-3.6303,-3.6303,-3.6321,-3.6358,-3.6358,-3.6376,-3.6413,-3.6413,-3.6831,-3.4743,-3.6541,-3.7979,-3.8875,-3.8943,-3.8865,-3.9158,-3.8064,-3.6877,-3.6501,-3.5516,-3.4669,0.0,0.0,0.0,-3.8634,-4.0178,0.0,-4.3276,-4.3398,0.0,-4.2376,0.0,-4.2824,-4.2358,-4.2837,0.0,0.0,-4.3515,-4.3515,-4.3515,-4.3515,-4.3515,-4.3515,-4.3515,-4.3515,-4.3515,-4.3515,-4.3515,-4.3515,-4.3515,-4.3515,-4.3515,-4.3515,-4.3515,-4.3515,-4.3515,-4.3515,-4.3515,-4.3515,-4.3515,-4.3515,-4.3515,-4.3515,-4.3515,-4.3515,-4.3515,-4.3479,-4.3339,-4.3032,-4.2674,-4.2519,-4.2162,-4.1771,-4.1621,-4.1268,-4.1064,-4.1828,-4.1508,-4.1206,-4.2505,-4.2065,-4.1403,-4.1838,-4.1025,-4.0118,-4.0014,-3.9629,-3.9135,-3.8612,-3.8036,-3.7618,-3.7618,-3.7466,-3.7127,-3.6569,-3.7261,-3.7541,-3.6807,-3.713,-3.7549,-3.7862,-3.7909,-3.7958,-3.8068,-3.7547,-3.7199,-3.7199,-3.6615,-3.6303,-3.6303,-3.6303,-3.6303,-3.6303,-3.6303,-3.6597,-3.7199,-3.7199,-3.7496,-3.8083,-3.8083,-3.8193,-3.6872,-3.8542,-3.9863,-4.0304,-3.9924,-3.9351,-3.8936,-3.7643,-3.6076,-3.4481,-3.3678,-3.2963,-3.1898,-3.3225,-3.5169,0.0,0.0,0.0,-4.3221,-4.3631,-4.3496,0.0,-4.3371,0.0,-4.2872,-4.3239,-4.3515,0.0,-4.3515,-4.3515,-4.3515,-4.3515,-4.3515,-4.3515,-4.3515,-4.3515,-4.3515,-4.3515,-4.3515,-4.3515,-4.3515,-4.3515,-4.3515,-4.3515,-4.3515,-4.3515,0.0,-4.3515,-4.3515,-4.3515,-4.3515,-4.3515,-4.3515,-4.3515,-4.3515,-4.3515,-4.3515,-4.3515,-4.3515,-4.3303,-4.2976,-4.248,-4.208,-4.1703,-4.1213,-4.0821,-4.0726,-4.1643,-4.1621,-4.1582,-4.2828,-4.2675,-4.2282,-4.2616,-4.1979,-4.1279,-4.1199,-4.0922,-4.0478,-3.9732,-3.8935,-3.8357,-3.8265,-3.8061,-3.777,-3.7347,-3.8169,-3.8675,-3.8252,-3.824,-3.8366,-3.8658,-3.8707,-3.8707,-3.8707,-3.8285,-3.8028,-3.8028,-3.7606,-3.7349,-3.7349,-3.7349,-3.7349,-3.7349,-3.7349,-3.7569,-3.8028,-3.8028,-3.8267,-3.8707,-3.8707,-3.8707,-3.8781,-4.0104,-4.1224,-4.1132,-4.0506,-3.9494,-3.7878,-3.6629,-3.4945,-3.1874,-3.1715,-3.1445,-2.9244,-3.1476,-3.4229,-3.6009,0.0,-4.0742,-4.3166,-4.3758,-4.3836,-4.3531,-4.3775,-4.382,-4.3531,-4.3515,-4.3515,-4.3515,-4.3515,-4.3515,-4.3515,-4.3515,-4.3515,-4.3515,-4.3515,-4.3515,-4.3515,-4.3515,-4.3515,-4.3515,-4.3515,-4.3515,-4.3515,-4.3515,-4.3515,-4.3515,-4.3515,0.0,-4.3515,-4.3515,-4.3515,-4.3515,-4.3515,-4.3515,-4.3515,-4.3515,-4.3515,-4.3515,-4.3515,-4.3515,-4.3321,-4.2185,-4.181,-4.1595,-4.0458,-4.0096,-4.0204,-4.0733,-4.1335,-4.1937,-4.2539,-4.2751,-4.2807,-4.2807,-4.2362,-4.1937,-4.2021,-4.1979,-4.1742,-4.109,-4.0085,-3.9326,-3.9155,-3.8723,-3.8387,-3.8285,-3.9107,-3.9718,-3.9629,-3.926,-3.9019,-3.9019,-3.9019,-3.9019,-3.9019,-3.8927,-3.8854,-3.8854,-3.8762,-3.8707,-3.8707,-3.8707,-3.8707,-3.8707,-3.8707,-3.8707,-3.8707,-3.8707,-3.8707,-3.8707,-3.8707,-3.8707,-4.027,-4.1368,-4.1937,-4.126,-4.0506,-3.9494,-3.7878,-3.5293,0.0,0.0,-2.9977,-2.928,-2.8209,-3.065,-3.3555,-3.5917,-3.8322,-4.0742,-4.3166,-4.3548,-4.3582,0.0,-4.3546,-4.3546,-4.3515,-4.3515,0.0,0.0,-4.3515,-4.3515,-4.3515,-4.3515,-4.3515,-4.3515,-4.3515,-4.3515,-4.3515,-4.3515,-4.3515,-4.3515,-4.3515,-4.3515,-4.3515,-4.3515,-4.3515,-4.3515,-4.3515,0.0,-4.3515,-4.3515,-4.3515,-4.3515,-4.3515,-4.3515,-4.3515,-4.3515,-4.3515,-4.3515,-4.3515,-4.3515,-4.3321,-4.2185,-4.181,-4.1595,-4.0458,-4.0096,-4.0204,-4.0733,-4.1335,-4.1937,-4.2539,-4.3032,-4.3375,-4.3375,-4.294,-4.2674,-4.3124,-4.2865,-4.2503,-4.2377,-4.1783,-4.1305,-4.1272,-4.119,-4.0914,-4.0306,-4.0713,-4.0848,-4.0256,-4.0483,-4.0673,-4.0673,-4.0673,-4.0673,-4.0673,-4.0065,-3.968,-3.968,-3.9074,-3.8707,-3.8707,-3.8707,-3.8707,-3.8707,-3.8707,-3.8707,-3.8707,-3.8707,-3.8707,-3.8707,-3.8707,-3.8707,-4.1405,-4.2304,-4.2727,-4.1937,-4.0799,-3.9239,-3.6762,0.0,0.0,-2.8833,-2.8014,-2.7501,-2.6696,-2.9182,-3.2008,-3.4045,-3.6431,-3.9019,-4.1846,-4.2249,-4.2561,-4.3387,-4.3515,-4.3515,-4.3515,-4.3515,-4.3515,-4.3515,-4.3515,-4.3515,-4.3515,-4.3515,-4.3515,-4.3515,-4.3515,-4.3515,-4.3515,-4.3515,-4.3515,-4.3515,-4.3515,-4.3515,-4.3515,-4.3515,-4.3515,-4.3515,-4.3515,0.0,-4.3515,-4.3515,-4.3515,-4.3515,-4.3515,-4.3515,-4.3515,-4.3515,-4.3515,-4.3515,-4.3515,-4.3515,-4.3356,-4.2541,-4.2059,-4.1595,-4.0458,-4.0096,-4.0204,-4.0733,-4.1335,-4.1937,-4.2539,-4.3105,-4.3515,-4.3515,-4.3303,-4.3196,-4.3444,-4.3069,-4.2788,-4.305,-4.2404,-4.1895,-4.2203,-4.2,-4.1669,-4.1318,-4.1731,-4.1953,-4.1593,-4.2029,-4.2029,-4.1187,-4.1095,-4.1095,-4.1095,-4.0763,-4.0524,-4.0524,-4.0175,-3.9939,-3.9939,-3.9939,-3.9939,-3.9939,-3.9939,-3.9939,-3.9939,-3.9939,-3.9939,-3.9939,-3.9939,-3.9939,-4.2084,-4.2892,-4.3276,-4.2286,-4.0836,-3.8781,-3.5481,-3.2742,0.0,-2.72,-2.6465,-2.619,-2.5742,-2.8007,-3.0583,0.0,-3.4798,-3.7452,-4.0743,-4.1289,-4.1915,-4.3431,-4.3548,0.0,-4.3515,-4.3515,0.0,-4.3736,-4.3754,0.0,-4.3515,-4.3515,-4.3515,-4.3515,-4.3515,-4.3515,-4.3515,-4.3515,-4.3515,-4.3515,-4.3515,-4.3515,-4.3515,-4.3515,-4.3515,-4.3515,-4.3515,0.0,0.0,-4.3515,-4.3515,-4.3515,-4.3515,-4.3515,-4.3515,-4.3515,-4.3515,-4.3515,-4.3515,-4.3515,-4.341,-4.2883,-4.2302,-4.1617,-4.0594,-4.0179,-4.0204,-4.0733,-4.1335,-4.1937,-4.2539,-4.3105,-4.3515,-4.3515,-4.3515,-4.3515,-4.3515,-4.3178,-4.2995,-4.3427,-4.2772,-4.2306,-4.2789,-4.2482,-4.2165,-4.2165,-4.256,-4.2883,-4.2883,-4.3232,-4.302,-4.1754,-4.1625,-4.1625,-4.1625,-4.1462,-4.1352,-4.1352,-4.1187,-4.1095,-4.1095,-4.1095,-4.1095,-4.1095,-4.1095,-4.1095,-4.1095,-4.1095,-4.1095,-4.1095,-4.1095,-4.1095,-4.2084,-4.2892,-4.313,-4.1589,-4.001,-3.7955,-3.4669,0.0,-2.8712,-2.695,-2.6025,-2.5705,-2.6374,-2.7923,-3.0124,-3.3201,0.0,-3.7532,-4.1058,-4.192,-4.2638,-4.3816,0.0,0.0,-4.3515,-4.3515,-4.3791,-4.4544,-4.4599,0.0,-4.3551,-4.3515,-4.3515,-4.3515,-4.3515,-4.3515,-4.3515,-4.3515,-4.3515,-4.3515,-4.3515,-4.3515,-4.3515,-4.3515,-4.3515,-4.3515,-4.3515,0.0,0.0,-4.3515,-4.3515,-4.3515,-4.3515,-4.3515,-4.3515,-4.3515,-4.3515,-4.3515,-4.3515,-4.3515,-4.341,-4.2883,-4.2302,-4.1664,-4.1018,-4.0497,-4.0204,-4.0733,-4.1335,-4.1937,-4.2539,-4.3105,-4.3515,-4.3515,-4.3515,-4.3515,-4.3515,-4.3462,-4.3444,-4.3479,-4.3427,-4.3356,-4.3427,-4.3392,-4.3339,-4.3339,-4.3392,-4.3427,-4.3427,-4.3462,-4.3441,-4.3313,-4.3277,-4.3277,-4.3277,-4.2598,-4.2194,-4.2194,-4.1515,-4.1095,-4.1095,-4.1095,-4.1095,-4.1095,-4.1095,-4.1095,-4.1095,-4.1095,-4.1095,-4.1095,-4.1095,-4.1095,-4.1956,-4.2892,-4.3112,-4.1515,-3.9884,-3.7845,-3.4559,-3.1298,-2.8546,-2.6932,-2.5566,-2.5071,-2.6355,-2.7115,-2.8662,0.0,-3.3166,-3.4779,-3.8159,-3.9245,-4.03,-4.205,-4.2551,0.0,0.0,0.0,-4.436,-4.4673,0.0,0.0,-4.3551,-4.3515,-4.3515,-4.3515,-4.3515,-4.3515,-4.3515,-4.3515,-4.3515,-4.3515,-4.3515,-4.3515,-4.3515,-4.3515,-4.3515,-4.3515,-4.3515,0.0,0.0,-4.3515,-4.3515,-4.3515,-4.3515,-4.3515,-4.3515,-4.3515,-4.3515,-4.3515,-4.3515,-4.3515,-4.3462,-4.325,-4.2808,-4.2162,-4.1183,-4.1013,-4.1082,-4.0926,-4.1599,-4.2322,-4.2183,-4.2598,-4.3105,-4.3427,-4.3515,-4.3515,-4.3515,-4.3515,-4.3515,-4.3515,-4.3515,-4.3515,-4.3515,-4.3515,-4.3515,-4.3515,-4.3515,-4.3515,-4.3515,-4.3515,-4.3515,-4.3515,-4.3515,-4.3515,-4.3515,-4.3221,-4.302,-4.302,-4.2708,-4.2543,-4.2543,-4.2543,-4.2543,-4.2543,-4.2543,-4.2543,-4.2543,-4.2543,-4.2543,-4.2543,-4.2543,-4.2543,-4.1148,-4.2176,-4.2525,-4.137,-3.9717,-3.7551,-3.4486,-3.1298,-2.8546,-2.6932,-2.5328,-2.4685,-2.629,-2.6602,-2.773,0.0,-3.1997,-3.3344,-3.6726,-3.7802,-3.8985,-4.1021,0.0,-4.2837,0.0,-4.5002,-4.5406,-4.5406,0.0,0.0,-4.4599,-4.4103,-4.3736,-4.3515,-4.3515,-4.3515,-4.3515,-4.3515,-4.3515,-4.3515,-4.3515,-4.3515,-4.3515,-4.3515,-4.3515,-4.3515,-4.3515,0.0,0.0,-4.3515,-4.3515,-4.3515,-4.3515,-4.3515,-4.3515,-4.3515,-4.3515,-4.3515,-4.3515,-4.3515,-4.3515,-4.3515,-4.3232,-4.2751,-4.1729,-4.1599,-4.175,-4.1512,-4.2165,-4.2846,-4.2424,-4.2619,-4.3032,-4.341,-4.3515,-4.3515,-4.3515,-4.3515,-4.3515,-4.3515,-4.3515,-4.3515,-4.3515,-4.3515,-4.3515,-4.3515,-4.3515,-4.3515,-4.3515,-4.3515,-4.3515,-4.3515,-4.3515,-4.3515,-4.3515,-4.3515,-4.3515,-4.3515,-4.3515,-4.3515,-4.3515,-4.3515,-4.3515,-4.3515,-4.3515,-4.3515,-4.3515,-4.3515,-4.3515,-4.3515,-4.3515,-4.3515,-3.9478,-4.0506,-4.1113,-4.1095,-3.9294,-3.6868,-3.4376,-3.1298,-2.8546,-2.6932,-2.5328,-2.4685,-2.629,-2.6602,-2.773,-3.1227,-3.246,-3.4252,-3.786,-3.8796,-3.9714,0.0,0.0,-4.2616,-4.3441,-4.5681,-4.7076,-4.7076,0.0,0.0,-4.7058,-4.5553,-4.4323,-4.3533,-4.3515,-4.3515,-4.3515,-4.3515,-4.3515,-4.3515,-4.3515,-4.3515,-4.3515,-4.3515,-4.3515,0.0,0.0,0.0,0.0,-4.3515,-4.3515,-4.3515,-4.3515,-4.3515,-4.3515,-4.3515,-4.3515,-4.3515,-4.3515,-4.3515,-4.3515,-4.3515,-4.3497,-4.3392,-4.2845,-4.2282,-4.1916,-4.2519,-4.3069,-4.3479,-4.3479,-4.3497,-4.3479,-4.3515,-4.3515,-4.3515,-4.3515,-4.3515,-4.3515,-4.3515,-4.3515,-4.3515,-4.3515,-4.3515,-4.3515,-4.3515,-4.3515,-4.3515,-4.3515,-4.3515,-4.3515,-4.3515,-4.3515,-4.3515,-4.3515,-4.3515,-4.3515,-4.3515,-4.3515,-4.3515,-4.3515,-4.3515,-4.3515,-4.3515,-4.3515,-4.3515,-4.3515,-4.3515,-4.3515,-4.3515,-4.3515,-4.3515,-3.6252,-3.7569,-3.8358,-3.7224,-3.5954,-3.4321,-3.1898,-2.9696,-2.7714,-2.6109,-2.4952,-2.4685,-2.629,-2.6602,-2.8098,-3.2694,0.0,0.0,0.0,0.0,0.0,-4.0677,-4.3104,-4.5076,0.0,0.0,-4.7681,0.0,0.0,0.0,-4.6305,-4.5278,-4.458,-4.4342,-4.3791,-4.3515,-4.3515,-4.3515,-4.3515,-4.3515,-4.3515,-4.3515,-4.3515,-4.3515,-4.3515,0.0,0.0,0.0,0.0,-4.3515,-4.3515,-4.3515,-4.3515,-4.3515,-4.3515,-4.3515,-4.3515,-4.3515,-4.3515,-4.3515,-4.3515,-4.3515,-4.3515,-4.348,-4.3286,-4.3124,-4.2996,-4.3178,-4.3105,-4.3032,-4.341,-4.3232,-4.305,-4.341,-4.3515,-4.3515,-4.3515,-4.3515,-4.3515,-4.3515,-4.3515,-4.3515,-4.3515,-4.3515,-4.3515,-4.3515,-4.3515,-4.3515,-4.3515,-4.3515,-4.3515,-4.3515,-4.3515,-4.3515,-4.3515,-4.3515,-4.3515,-4.3515,-4.3515,-4.3515,-4.3515,-4.3515,-4.3515,-4.3515,-4.3515,-4.3515,-4.3515,-4.3515,-4.3515,-4.3515,-4.3515,-4.3515,-3.3555,-3.5092,-3.5917,-3.5188,-3.416,-3.2797,-3.0687,-2.8962,-2.7339,-2.5723,-2.4768,-2.4593,-2.5915,-2.6207,-2.7623,-3.1722,-3.2705,0.0,0.0,0.0,0.0,-4.1352,0.0,0.0,0.0,-4.7828,-4.8104,0.0,0.0,0.0,-4.6379,-4.5314,-4.4691,-4.4691,-4.392,-4.3515,-4.3515,-4.3515,-4.3515,-4.3515,-4.3515,-4.3515,-4.3515,-4.3515,-4.3515,0.0,0.0,0.0,0.0,-4.3515,-4.3515,-4.3515,-4.3515,-4.3515,-4.3515,-4.3515,-4.3515,-4.3515,-4.3515,-4.3515,-4.3515,-4.3515,-4.3515,-4.3515,-4.3515,-4.3515,-4.3515,-4.3515,-4.325,-4.3069,-4.341,-4.325,-4.3105,-4.3427,-4.3515,-4.3515,-4.3515,-4.3515,-4.3515,-4.3515,-4.3515,-4.3515,-4.3515,-4.3515,-4.3515,-4.3515,-4.3515,-4.3515,-4.3515,-4.3515,-4.3515,-4.3515,-4.3515,-4.3515,-4.3515,-4.3515,-4.3515,-4.3515,-4.3515,-4.3515,-4.3515,-4.3515,-4.3515,-4.3515,-4.3515,-4.3515,-4.3515,-4.3515,-4.3515,-4.3515,-4.3515,-4.3515,0.0,-3.2724,-3.3532,-3.4234,-3.328,-3.1757,-3.021,-2.8705,0.0,-2.5631,-2.4713,-2.4483,-2.5393,-2.5699,-2.6656,-2.9304,-3.0565,0.0,0.0,-3.7638,0.0,0.0,-4.4396,0.0,-4.7021,-4.7846,0.0,0.0,0.0,0.0,-4.7094,-4.5572,-4.4691,-4.4691,-4.392,-4.3515,-4.3515,-4.3515,-4.3515,-4.3515,-4.3515,-4.3515,-4.3515,-4.3515,-4.3515,0.0,0.0,0.0,0.0,-4.3515,-4.3515,-4.3515,-4.3515,-4.3515,-4.3515,-4.3515,-4.3515,-4.3515,-4.3515,-4.3515,-4.3515,-4.3515,-4.3515,-4.3515,-4.3515,-4.3515,-4.3515,-4.3515,-4.3515,-4.3515,-4.3515,-4.3515,-4.3497,-4.357,-4.3551,-4.3533,-4.357,-4.3551,-4.3533,-4.357,-4.3551,-4.3533,-4.3588,-4.3551,-4.3515,-4.3515,-4.3515,-4.3515,-4.3515,-4.3515,-4.3515,-4.3515,-4.3515,-4.3515,-4.3515,-4.3515,-4.3515,-4.3515,-4.3515,-4.3515,-4.3515,-4.3515,-4.3515,-4.3515,-4.3515,-4.3515,-4.3515,-4.3515,-4.3515,-4.3515,-4.3515,-4.3515,-2.6843,0.0,-2.9108,-2.8675,-2.829,-2.775,0.0,-2.6237,-2.5686,-2.4695,-2.4318,-2.4814,-2.6862,-2.6902,-2.8034,-3.237,0.0,-3.5177,-3.7582,0.0,0.0,-4.5387,-4.6191,-4.6929,-4.7921,-4.8196,0.0,0.0,0.0,-4.7094,-4.7094,-4.5572,-4.4691,-4.4691,-4.392,-4.3515,-4.3515,-4.3515,-4.3515,-4.3515,-4.3515,-4.3515,-4.3515,-4.3515,-4.3515,0.0,0.0,0.0,-4.3515,-4.3515,-4.3515,-4.3515,-4.3515,-4.3515,-4.3515,-4.3515,-4.3515,-4.3515,-4.3515,-4.3515,-4.3515,-4.3515,-4.3515,-4.3515,-4.3515,-4.3515,-4.3515,-4.3515,-4.3515,-4.3515,-4.3515,-4.3515,-4.3662,-4.4268,-4.3956,-4.3663,-4.4287,-4.392,-4.3681,-4.4305,-4.392,-4.3699,-4.4305,-4.3901,-4.3515,-4.3515,-4.3515,-4.3515,-4.3515,-4.3515,-4.3515,-4.3515,-4.3515,-4.3515,-4.3515,-4.3515,-4.3515,-4.3515,-4.3515,-4.3515,-4.3515,-4.3515,-4.3515,-4.3515,-4.3515,-4.3515,-4.3515,-4.3515,-4.3515,-4.3515,-4.3515,-4.3515,-2.4842,-2.6557,-2.8246,-2.7813,-2.7703,-2.7482,-2.6678,-2.5925,-2.5172,-2.4373,-2.419,-2.4704,-2.6384,-2.68,-2.8146,0.0,-3.3527,0.0,0.0,0.0,-4.4297,-4.5978,-4.6709,-4.7424,0.0,0.0,0.0,0.0,0.0,-4.6379,-4.6012,-4.4819,-4.4158,-4.4158,-4.3718,-4.3515,-4.3515,-4.3515,-4.3515,-4.3515,-4.3515,-4.3515,-4.3515,-4.3515,-4.3515,0.0,0.0,0.0,-4.3515,-4.3515,-4.3515,-4.3515,-4.3515,-4.3515,-4.3515,-4.3515,-4.3515,-4.3515,-4.3515,-4.3515,-4.3515,-4.3515,-4.3515,-4.3515,-4.3515,-4.3754,-4.4048,-4.4048,-4.4048,-4.414,-4.4507,-4.4599,-4.4709,-4.5149,-4.4911,-4.4709,-4.5168,-4.4911,-4.4727,-4.5168,-4.4892,-4.4727,-4.5186,-4.4892,-4.4599,-4.4599,-4.4599,-4.4599,-4.4599,-4.4599,-4.4452,-4.4085,-4.4048,-4.3901,-4.3533,-4.3515,-4.3515,-4.3515,-4.3515,-4.3515,-4.3515,-4.3515,-4.3515,-4.3515,-4.3515,-4.3515,-4.3515,-4.3515,-4.3515,-4.3515,-4.3515,-4.3515,-2.4502,-2.673,-2.8877,-2.84,-2.8546,-2.8565,-2.764,0.0,0.0,0.0,0.0,0.0,0.0,-2.6957,0.0,0.0,0.0,0.0,-3.9672,-4.2727,-4.4819,-4.5626,-4.6526,0.0,0.0,0.0,0.0,0.0,0.0,-4.5424,-4.4745,-4.3938,-4.3515,-4.3515,-4.3515,-4.3515,-4.3515,-4.3515,-4.3515,-4.3515,-4.3515,-4.3515,-4.3515,-4.3515,-4.3515,-4.3515,0.0,0.0,-4.3515,-4.3515,-4.3515,-4.3515,-4.3515,-4.3515,-4.3515,-4.3515,-4.3515,-4.3515,-4.3515,-4.3515,-4.3515,-4.3515,-4.3515,-4.3533,-4.3662,-4.4158,-4.4746,-4.4984,-4.4966,-4.5039,-4.5718,-4.5902,-4.592,-4.6049,-4.5993,-4.592,-4.6067,-4.5993,-4.5938,-4.6067,-4.5975,-4.5938,-4.6067,-4.5975,-4.5902,-4.5902,-4.5902,-4.5902,-4.5902,-4.5902,-4.5645,-4.4966,-4.4892,-4.4562,-4.3736,-4.3681,-4.3643,-4.3515,-4.3515,-4.3515,-4.3515,-4.3515,-4.3515,-4.3515,-4.3515,-4.3515,-4.3515,-4.3515,-4.3515,-4.3515,-4.3515,-4.3515,-2.586,-2.7592,-2.8345,-2.5621,-2.6465,-2.7603,-2.6109,-2.6098,0.0,0.0,0.0,0.0,0.0,-3.0324,-3.1838,0.0,0.0,-3.8979,0.0,0.0,-4.3975,-4.48,0.0,0.0,0.0,0.0,0.0,0.0,0.0,-4.4837,-4.4727,-4.3938,-4.3515,-4.3515,-4.3515,-4.3515,-4.3515,-4.3515,-4.3515,-4.3515,-4.3515,-4.3515,-4.3515,-4.3515,-4.3515,-4.3515,0.0,-4.3515,-4.3515,-4.3515,-4.3515,-4.3515,-4.3515,-4.3515,-4.3515,-4.3515,-4.3515,-4.3515,-4.3515,-4.3515,-4.3515,-4.3515,-4.3515,-4.3643,-4.4305,-4.4617,-4.4966,-4.6342,-4.6232,-4.5736,-4.5865,-4.5902,-4.6067,-4.6746,-4.6416,-4.6085,-4.6764,-4.6379,-4.6104,-4.6782,-4.6379,-4.6122,-4.6801,-4.6361,-4.5902,-4.5902,-4.5902,-4.5902,-4.5902,-4.5902,-4.5847,-4.5736,-4.5718,-4.5388,-4.458,-4.4525,-4.4232,-4.3551,-4.3515,-4.3515,-4.3515,-4.3515,-4.3515,-4.3515,-4.3515,-4.3515,-4.3515,-4.3515,-4.3515,-4.3515,-4.3515,-4.3515,-2.5107,-2.6796,-2.7897,-2.597,-2.764,-2.9561,-2.8808,-2.8264,0.0,0.0,0.0,0.0,0.0,0.0,-3.3961,-3.7294,0.0,-4.1356,-4.2189,-4.3369,-4.4287,0.0,0.0,0.0,0.0,0.0,0.0,0.0,0.0,0.0,-4.4066,-4.3699,-4.3515,-4.3515,-4.3515,-4.3515,-4.3515,-4.3515,-4.3515,-4.3515,-4.3515,-4.3515,-4.3515,-4.3515,-4.3515,-4.3515,0.0,-4.3515,-4.3515,-4.3515,-4.3515,-4.3515,-4.3515,-4.3515,-4.3515,-4.3515,-4.3515,-4.3515,-4.3515,-4.3773,-4.4158,-4.4158,-4.4433,-4.4874,-4.5241,-4.5663,-4.614,-4.6892,-4.6819,-4.6654,-4.7076,-4.7205,-4.7297,-4.7645,-4.748,-4.7297,-4.7663,-4.7462,-4.7315,-4.7681,-4.7462,-4.7315,-4.7681,-4.7443,-4.7205,-4.7205,-4.7205,-4.7205,-4.7205,-4.7205,-4.704,-4.6581,-4.6562,-4.6232,-4.5424,-4.5351,-4.4819,-4.3588,-4.3515,-4.3515,-4.3515,-4.3515,-4.3515,-4.3515,-4.3515,-4.3515,-4.3515,-4.3515,-4.3515,-4.3515,-4.3515,-4.3515,-2.4942,-2.6392,-2.7732,-2.7512,-2.9292,-3.1176,-3.136,-3.0595,-2.9904,0.0,0.0,0.0,0.0,-3.388,0.0,-4.0139,-4.1994,-4.2868,-4.263,-4.3644,-4.4415,-4.4415,0.0,0.0,0.0,0.0,0.0,0.0,0.0,0.0,-4.3533,-4.3515,-4.3515,-4.3515,-4.3515,-4.3515,-4.3515,-4.3515,-4.3515,-4.3515,-4.3515,-4.3515,-4.3515,-4.3515,-4.3515,-4.3515,-4.3515,-4.3515,-4.3515,-4.3515,-4.3515,-4.3515,-4.3515,-4.3515,-4.3515,-4.3515,-4.3608,-4.3773,-4.3773,-4.4305,-4.4984,-4.4984,-4.5406,-4.5938,-4.6122,-4.6599,-4.7131,-4.7333,-4.7369,-4.7516,-4.8141,-4.8306,-4.8306,-4.8306,-4.8306,-4.8306,-4.8306,-4.8306,-4.8306,-4.8306,-4.8306,-4.8306,-4.8306,-4.8306,-4.8306,-4.8306,-4.8306,-4.8306,-4.8306,-4.8306,-4.8067,-4.7443,-4.7369,-4.7058,-4.625,-4.6012,-4.5369,-4.414,-4.3883,-4.3773,-4.3773,-4.3606,-4.3515,-4.3515,-4.3515,-4.3515,-4.3515,-4.3515,-4.3515,-4.3515,-4.3515,-4.3515,-2.7137,-2.7669,-2.8136,-2.9586,-3.0118,-3.0485,-3.1231,-3.1898,-3.2546,-3.3311,0.0,0.0,0.0,-3.7331,-4.0286,-4.2835,-4.3367,-4.344,-4.3423,0.0,-4.3589,-4.3589,0.0,0.0,0.0,0.0,0.0,0.0,0.0,0.0,-4.3515,-4.3515,-4.3515,-4.3515,-4.3515,-4.3515,-4.3515,-4.3515,-4.3515,-4.3515,-4.3515,-4.3515,-4.3515,-4.3515,-4.3515,-4.3515,-4.3515,-4.3515,-4.3515,-4.3515,-4.3515,-4.3515,-4.3515,-4.3515,-4.3515,-4.3515,-4.3975,-4.4617,-4.4617,-4.5149,-4.581,-4.581,-4.5847,-4.6049,-4.6782,-4.7058,-4.7259,-4.8012,-4.8214,-4.8233,-4.8288,-4.8306,-4.8306,-4.8306,-4.8306,-4.8306,-4.8306,-4.8306,-4.8306,-4.8306,-4.8306,-4.8306,-4.8306,-4.8306,-4.8306,-4.8306,-4.8306,-4.8306,-4.8306,-4.8306,-4.8288,-4.8233,-4.8214,-4.7902,-4.7076,-4.6342,-4.5847,-4.5736,-4.5039,-4.4617,-4.4617,-4.3901,-4.3515,-4.3515,-4.3515,-4.3515,-4.3515,-4.3515,-4.3515,-4.3515,-4.3515,-4.3515,-2.6146,-2.7045,-2.8062,-2.917,-3.021,0.0,0.0,-3.4302,-3.5275,-3.6578,-3.7092,0.0,0.0,0.0,-4.1111,-4.2525,-4.3167,-4.3515,-4.3515,-4.3515,0.0,0.0,0.0,0.0,0.0,0.0,0.0,0.0,0.0,0.0,-4.3515,-4.3515,-4.3515,-4.3515,-4.3515,-4.3515,-4.3515,-4.3515,-4.3515,-4.3515,-4.3515,-4.3515,-4.3515,-4.3515,-4.3515,-4.3515,-4.3515,-4.3515,-4.3515,-4.3515,-4.3515,-4.3515,-4.3515,-4.3515,-4.3552,-4.4066,-4.4452,-4.4782,-4.5278,-4.5975,-4.6636,-4.6636,-4.6985,-4.7462,-4.7736,-4.7846,-4.7901,-4.8214,-4.8306,-4.8306,-4.8306,-4.8306,-4.8306,-4.8306,-4.8306,-4.8306,-4.8306,-4.8306,-4.8306,-4.8306,-4.8306,-4.8306,-4.8306,-4.8306,-4.8306,-4.8306,-4.8306,-4.8306,-4.8306,-4.8306,-4.8306,-4.8306,-4.8306,-4.8196,-4.7865,-4.7572,-4.7388,-4.7388,-4.6177,-4.5223,-4.4709,-4.4415,-4.4011,-4.3515,-4.3515,-4.3515,-4.3515,-4.3515,-4.3515,-4.3515,-4.3515,-4.3515,-2.5852,-2.677,-2.7989,-2.8803,0.0,0.0,-3.5183,-3.6248,-3.7202,-3.9074,-3.9258,-3.9405,-4.0451,0.0,0.0,0.0,-4.313,-4.3515,-4.3515,0.0,0.0,0.0,0.0,0.0,0.0,0.0,0.0,0.0,0.0,0.0,0.0,-4.3515,-4.3515,-4.3515,-4.3515,-4.3515,-4.3515,-4.3515,-4.3515,-4.3515,-4.3515,-4.3515,-4.3515,-4.3515,-4.3515,-4.3515,-4.3515,-4.3515,-4.3515,-4.3515,-4.3515,-4.3515,-4.3515,-4.3662,-4.3956,-4.4507,-4.5021,-4.5535,-4.6104,-4.6819,-4.748,-4.748,-4.7846,-4.8306,-4.8306,-4.8306,-4.8306,-4.8306,-4.8306,-4.8306,-4.8306,-4.8306,-4.8306,-4.8306,-4.8306,-4.8306,-4.8306,-4.8306,-4.8306,-4.8306,-4.8306,-4.8306,-4.8306,-4.8306,-4.8306,-4.8306,-4.8306,-4.8306,-4.8306,-4.8306,-4.8306,-4.8306,-4.8306,-4.8306,-4.8306,-4.8306,-4.8306,-4.8306,-4.7278,-4.6305,-4.548,-4.5223,-4.4819,-4.4268,-4.4267,-4.4267,-4.4267,-4.4267,-4.4267,-4.4267,-4.4267,-4.4267,-2.6814,-2.7181,-2.7989,-2.8803,0.0,0.0,-3.6776,-3.7529,-3.8208,-4.0634,-4.0487,-4.0396,-4.2011,-4.1662,0.0,-4.3222,-4.3496,-4.3515,-4.3515,0.0,0.0,0.0,0.0,0.0,0.0,0.0,0.0,0.0,0.0,0.0,0.0,-4.3515,-4.3515,-4.3515,-4.3515,-4.3515,-4.3515,-4.3515,-4.3515,-4.3515,-4.3515,-4.3515,-4.3515,-4.3515,-4.3515,-4.3515,-4.3515,-4.3515,-4.3515,-4.3515,-4.3515,-4.3515,-4.3515,-4.3993,-4.4691,-4.4727,-4.5718,-4.7094,-4.7113,-4.7626,-4.8306,-4.8306,-4.8306,-4.8306,-4.8306,-4.8306,-4.8306,-4.8306,-4.8306,-4.8306,-4.8306,-4.8306,-4.8306,-4.8306,-4.8306,-4.8306,-4.8306,-4.8306,-4.8306,-4.8306,-4.8306,-4.8306,-4.8306,-4.8306,-4.8306,-4.8306,-4.8306,-4.8306,-4.8306,-4.8306,-4.8306,-4.8306,-4.8306,-4.8306,-4.8306,-4.8306,-4.8306,-4.8306,-4.8306,-4.7938,-4.7131,-4.6342,-4.5902,-4.5902,-4.5902,-4.5902,-4.5902,-4.5902,-4.5902,-4.5902,-4.5902,-4.5902,-2.598,-2.677,-2.8136,-2.9512,0.0,0.0,0.0,-3.92,0.0,0.0,-4.2139,-4.1735,-4.2213,-4.2103,0.0,-4.258,-4.313,-4.3515,0.0,0.0,0.0,0.0,0.0,0.0,0.0,0.0,0.0,0.0,0.0,0.0,0.0,-4.3515,-4.3515,-4.3515,-4.3515,-4.3515,-4.3515,-4.3515,-4.3515,-4.3515,-4.3515,-4.3515,-4.3515,-4.3515,-4.3515,-4.3515,-4.3515,-4.3515,-4.3515,-4.3515,-4.3515,-4.3515,-4.3515,-4.3993,-4.4782,-4.5351,-4.6214,-4.7186,-4.7736,-4.8104,-4.8306,-4.8306,-4.8306,-4.8306,-4.8306,-4.8306,-4.8306,-4.8306,-4.8306,-4.8306,-4.8306,-4.8306,-4.8306,-4.8306,-4.8306,-4.8306,-4.8306,-4.8306,-4.8306,-4.8306,-4.8306,-4.8306,-4.8306,-4.8306,-4.8306,-4.8306,-4.8306,-4.8306,-4.8306,-4.8306,-4.8306,-4.8306,-4.8306,-4.8306,-4.8306,-4.8306,-4.8306,-4.8306,-4.8306,-4.7938,-4.7131,-4.6856,-4.6489,-4.5902,-4.5902,-4.5902,-4.5902,-4.5902,-4.5902,-4.5902,-4.5902,-4.5902,-2.6403,-2.7291,-2.8741,-3.0668,-3.3335,-3.6435,-4.0047,0.0,0.0,0.0,-4.2855,-4.2396,-4.2708,-4.2525,0.0,-4.2708,-4.3167,-4.3515,0.0,0.0,0.0,0.0,0.0,0.0,0.0,0.0,0.0,0.0,0.0,0.0,0.0,-4.3515,-4.3515,-4.3515,-4.3515,-4.3515,-4.3515,-4.3515,-4.3515,-4.3515,-4.3515,-4.3515,-4.3515,-4.3515,-4.3515,-4.3515,-4.3515,-4.3515,-4.3515,-4.3515,-4.3515,-4.3515,-4.3515,-4.3993,-4.48,-4.5608,-4.6416,-4.7223,-4.8012,-4.8306,-4.8306,-4.8306,-4.8306,-4.8306,-4.8306,-4.8306,-4.8306,-4.8306,-4.8306,-4.8306,-4.8306,-4.8306,-4.8306,-4.8306,-4.8306,-4.8306,-4.8306,-4.8306,-4.8306,-4.8306,-4.8306,-4.8306,-4.8306,-4.8306,-4.8306,-4.8306,-4.8306,-4.8306,-4.8306,-4.8306,-4.8306,-4.8306,-4.8306,-4.8306,-4.8306,-4.8306,-4.8306,-4.8306,-4.8306,-4.8067,-4.759,-4.7571,-4.7352,-4.6856,-4.6856,-4.6856,-4.6856,-4.6856,-4.6856,-4.6856,-4.6856,-4.6856,-2.7493,-2.8393,-2.9684,-3.2106,-3.4743,0.0,-4.1534,-4.2983,-4.3515,-4.3515,0.0,-4.2635,-4.3369,-4.2892,-4.2653,-4.3386,-4.3515,0.0,0.0,0.0,0.0,0.0,0.0,0.0,0.0,0.0,0.0,0.0,0.0,0.0,0.0,-4.3515,-4.3515,-4.3515,-4.3515,-4.3515,-4.3515,-4.3515,-4.3515,-4.3515,-4.3515,-4.3515,-4.3515,-4.3515,-4.3515,-4.3515,-4.3515,-4.3515,-4.3515,-4.3515,-4.3515,-4.3515,-4.3515,-4.3993,-4.48,-4.5608,-4.6416,-4.7223,-4.8012,-4.8306,-4.8306,-4.8306,-4.8306,-4.8306,-4.8306,-4.8306,-4.8306,-4.8306,-4.8306,-4.8306,-4.8306,-4.8306,-4.8306,-4.8306,-4.8306,-4.8306,-4.8306,-4.8306,-4.8306,-4.8306,-4.8306,-4.8306,-4.8306,-4.8306,-4.8306,-4.8306,-4.8306,-4.8306,-4.8306,-4.8306,-4.8306,-4.8306,-4.8306,-4.8306,-4.8306,-4.8306,-4.8306,-4.8306,-4.8306,-4.8306,-4.8306,-4.8306,-4.8306,-4.8306,-4.8306,-4.8306,-4.8306,-4.8306,-4.8306,-4.8306,-4.8306,-4.8306,-2.6814,-2.8374,0.0,-3.2944,-3.6835,-4.0634,-4.2763,-4.3386,-4.3515,-4.3515,-4.3368,-4.3277,-4.3478,-4.3368,-4.3313,-4.3478,-4.3515,0.0,0.0,0.0,0.0,0.0,0.0,0.0,0.0,0.0,0.0,0.0,0.0,0.0,-4.3515,-4.3515,-4.3515,-4.3515,-4.3515,-4.3515,-4.3515,-4.3515,-4.3515,0.0,-4.3515,-4.3515,-4.3515,-4.3515,-4.3515,-4.3515,-4.3515,-4.3515,-4.3515,-4.3515,-4.3515,-4.3515,-4.3515,-4.3993,-4.48,-4.5608,-4.6416,-4.7223,-4.8012,-4.8306,-4.8306,-4.8306,-4.8306,-4.8306,-4.8306,-4.8306,-4.8306,-4.8306,-4.8306,-4.8306,-4.8306,-4.8306,-4.8306,-4.8306,-4.8306,-4.8306,-4.8306,-4.8306,-4.8306,-4.8306,-4.8306,-4.8306,-4.8306,-4.8306,-4.8306,-4.8306,-4.8306,-4.8306,-4.8306,-4.8306,-4.8306,-4.8306,-4.8306,-4.8306,-4.8306,-4.8306,-4.8306,-4.8306,-4.8306,-4.8306,-4.8306,-4.8306,-4.8306,-4.8306,-4.8306,-4.8306,-4.8306,-4.8306,-4.8306,-4.8306,-4.8306,-4.8306,-2.6759,0.0,0.0,-3.4578,0.0,-4.1407,-4.2653,-4.3222,-4.3515,-4.3515,-4.3515,-4.3515,-4.3515,-4.3515,-4.3515,-4.3515,0.0,0.0,0.0,0.0,0.0,0.0,0.0,0.0,0.0,0.0,0.0,0.0,0.0,-4.3515,-4.3515,-4.3515,-4.3515,-4.3515,-4.3515,-4.3515,-4.3515,-4.3515,-4.3515,-4.3515,-4.3515,-4.3515,-4.3515,-4.3515,-4.3515,-4.3515,-4.3515,-4.3515,-4.3515,-4.3515,-4.3515,-4.3515,-4.3515,-4.3993,-4.48,-4.5608,-4.6416,-4.7223,-4.8012,-4.8306,-4.8306,-4.8306,-4.8306,-4.8306,-4.8306,-4.8306,-4.8306,-4.8306,-4.8306,-4.8306,-4.8306,-4.8306,-4.8306,-4.8306,-4.8306,-4.8306,-4.8306,-4.8306,-4.8306,-4.8306,-4.8306,-4.8306,-4.8306,-4.8306,-4.8306,-4.8306,-4.8655,-4.8912,-4.8912,-4.8912,-4.9058,-4.9462,-4.8783,-4.8471,-4.8893,-4.8545,-4.8306,-4.8306,-4.8306,-4.8306,-4.8306,-4.8306,-4.8306,-4.8306,-4.8306,-4.8306,-4.8306,-4.8306,-4.8306,-4.8306,-4.8306,-4.8306,-2.6796,0.0,-3.1097,-3.6391,-3.9313,0.0,-4.2084,-4.28,-4.3331,-4.3478,-4.3515,-4.3515,-4.3515,-4.3515,-4.3515,0.0,0.0,0.0,0.0,0.0,0.0,0.0,0.0,0.0,0.0,0.0,0.0,0.0,0.0,-4.3515,-4.3515,-4.3515,-4.3515,-4.3515,-4.3515,-4.3515,-4.3515,-4.3515,-4.3515,-4.3515,-4.3515,-4.3515,-4.3515,-4.3515,-4.3515,-4.3515,-4.3515,-4.3515,-4.3515,-4.3515,-4.3515,-4.3515,-4.3515,-4.3993,-4.48,-4.5608,-4.6416,-4.7223,-4.8012,-4.8306,-4.8306,-4.8306,-4.8306,-4.8306,-4.8306,-4.8306,-4.8306,-4.8306,-4.8306,-4.8306,-4.8306,-4.8416,-4.8526,-4.8526,-4.8636,-4.8691,-4.8545,-4.8526,-4.8581,-4.871,-4.8746,-4.8746,-4.8746,-4.8746,-4.8746,-4.8746,-4.9334,-4.9812,-4.9812,-4.9812,-5.005,-5.0729,-4.9572,-4.9022,-4.9757,-4.915,-4.8673,-4.8526,-4.8526,-4.8471,-4.8324,-4.8306,-4.8306,-4.8306,-4.8306,-4.8306,-4.8306,-4.8306,-4.8306,-4.8306,-4.8306,-4.8306,-2.6264,0.0,-3.4027,0.0,-3.9313,-4.0451,0.0,0.0,-4.2653,0.0,-4.3515,-4.3515,-4.3515,-4.3515,0.0,0.0,0.0,0.0,0.0,0.0,0.0,0.0,0.0,0.0,0.0,0.0,0.0,0.0,-4.3515,-4.3515,-4.3515,-4.3515,-4.3515,-4.3515,-4.3515,-4.3515,-4.3515,-4.3515,-4.3515,-4.3515,-4.3515,-4.3515,-4.3515,-4.3515,-4.3515,-4.3515,-4.3515,-4.3515,-4.3515,-4.3515,-4.3515,-4.3515,-4.3515,-4.3993,-4.48,-4.5608,-4.6416,-4.7223,-4.8012,-4.8306,-4.8306,-4.8306,-4.8306,-4.8306,-4.8306,-4.8306,-4.8306,-4.8306,-4.8306,-4.8306,-4.8306,-4.8857,-4.9445,-4.9445,-4.9958,-5.0288,-4.9592,-4.9445,-4.9647,-5.0325,-5.0472,-5.0472,-5.0472,-5.0472,-5.0472,-5.0472,-5.0563,-5.0637,-5.0637,-5.0637,-5.0674,-5.0802,-5.06,-5.0508,-5.0637,-5.0527,-5.0178,-4.9482,-4.9445,-4.9077,-4.8343,-4.8306,-4.8306,-4.8306,-4.8306,-4.8306,-4.8306,-4.8306,-4.8306,-4.8306,-4.8306,-4.8306,-2.7024,-3.0155,-3.3238,0.0,-3.8303,-3.9533,-4.0689,0.0,-4.1864,-4.2653,-4.2818,-4.2965,-4.3423,-4.3515,0.0,0.0,0.0,0.0,0.0,0.0,0.0,0.0,0.0,0.0,0.0,0.0,0.0,0.0,-4.3515,-4.3515,-4.3515,-4.3515,-4.3515,-4.3515,-4.3515,-4.3515,-4.3515,-4.3515,-4.3515,-4.3515,-4.3515,-4.3515,-4.3515,-4.3515,-4.3515,-4.3515,-4.3515,-4.3515,-4.3515,-4.3515,-4.3515,-4.3515,-4.3515,-4.3993,-4.48,-4.5608,-4.6416,-4.7223,-4.8012,-4.8306,-4.8306,-4.8306,-4.8306,-4.8306,-4.8306,-4.8306,-4.8306,-4.8306,-4.8306,-4.8416,-4.8893,-4.9317,-4.9721,-5.016,-5.0545,-5.0839,-5.0932,-5.0582,-5.038,-5.0729,-5.0802,-5.0802,-5.0802,-5.0802,-5.0802,-5.0802,-5.1187,-5.1463,-5.1463,-5.1463,-5.1646,-5.2105,-5.1353,-5.0986,-5.1426,-5.1059,-5.0655,-5.0288,-5.027,-4.9884,-4.9058,-4.9022,-4.8802,-4.8324,-4.8306,-4.8306,-4.8306,-4.8306,-4.8306,-4.8306,-4.8306,-4.8306,0.0,0.0,-3.1268,-3.4541,-3.6578,-3.8083,0.0,0.0,-4.0765,0.0,-4.2011,-4.2249,-4.3039,0.0,0.0,0.0,0.0,0.0,0.0,0.0,0.0,0.0,0.0,0.0,0.0,0.0,0.0,0.0,-4.3515,-4.3515,-4.3515,-4.3515,-4.3515,-4.3515,-4.3515,-4.3515,-4.3515,-4.3515,-4.3515,-4.3515,-4.3515,-4.3515,-4.3515,-4.3515,-4.3515,-4.3515,-4.3515,-4.3515,-4.3515,-4.3515,-4.3515,-4.3515,-4.3515,-4.4121,-4.5094,-4.5681,-4.6544,-4.748,-4.8104,-4.8306,-4.8306,-4.8306,-4.8306,-4.8306,-4.8306,-4.8306,-4.8306,-4.8306,-4.8306,-4.8508,-4.9372,-4.9757,-5.0105,-5.0912,-5.1261,-5.1518,-5.1903,-5.1683,-5.1408,-5.1408,-5.1408,-5.1408,-5.1408,-5.1408,-5.1408,-5.1408,-5.1922,-5.2307,-5.2307,-5.2307,-5.2527,-5.3151,-5.2142,-5.1646,-5.2252,-5.1756,-5.1316,-5.1114,-5.1096,-5.0729,-4.9941,-4.9904,-4.9591,-4.8948,-4.8728,-4.8526,-4.8306,-4.8306,-4.8306,-4.8306,-4.8306,-4.8306,0.0,-2.677,0.0,-3.1977,-3.3995,0.0,0.0,0.0,0.0,-4.0838,-4.115,-4.1407,0.0,0.0,0.0,0.0,0.0,0.0,0.0,0.0,0.0,0.0,0.0,0.0,0.0,0.0,0.0,0.0,-4.3515,-4.3515,-4.3515,-4.3515,-4.3515,-4.3515,-4.3515,-4.3515,-4.3515,-4.3515,-4.3515,-4.3515,-4.3515,-4.3515,-4.3515,-4.3515,-4.3515,-4.3515,-4.3515,-4.3515,-4.3515,-4.3515,-4.3515,-4.3515,-4.3515,-4.4452,-4.5847,-4.5883,-4.6893,-4.8251,-4.8306,-4.8306,-4.8306,-4.8306,-4.8306,-4.8306,-4.8306,-4.8306,-4.8306,-4.8306,-4.8306,-4.8508,-4.9372,-5.016,-5.0949,-5.1738,-5.2527,-5.2894,-5.216,-5.2564,-5.3096,-5.3096,-5.3096,-5.3096,-5.3096,-5.3096,-5.3096,-5.3096,-5.3093,-5.3151,-5.3151,-5.3151,-5.3148,-5.3185,-5.3133,-5.3075,-5.3133,-5.3093,-5.2747,-5.1977,-5.194,-5.1573,-5.0765,-5.0747,-5.0729,-5.0674,-4.9903,-4.9133,-4.8306,-4.8306,-4.8306,-4.8306,-4.8306,-4.8306,0.0,0.0,0.0,-3.0393,-3.2271,-3.383,-3.5238,-3.678,-3.823,-3.9331,-3.9974,-4.0579,0.0,0.0,0.0,0.0,0.0,0.0,0.0,0.0,0.0,0.0,0.0,0.0,0.0,0.0,0.0,0.0,0.0,-4.3515,-4.3515,-4.3515,-4.3515,-4.3515,-4.3515,-4.3515,-4.3515,-4.3515,-4.3515,-4.3515,-4.3515,-4.3515,-4.3515,-4.3515,-4.3515,-4.3515,-4.3515,-4.3515,-4.3515,-4.3515,-4.3515,-4.3515,-4.3515,-4.3863,-4.447,-4.5516,-4.6269,-4.6911,-4.7939,-4.8306,-4.8306,-4.8306,-4.8306,-4.8306,-4.8306,-4.8306,-4.8306,-4.8306,-4.8673,-4.926,-5.0141,-5.0967,-5.1775,-5.2582,-5.3004,-5.3112,-5.2839,-5.3004,-5.3185,-5.3185,-5.3185,-5.3185,-5.3185,-5.3185,-5.3185,-5.3185,-5.3185,-5.3185,-5.3185,-5.3185,-5.3185,-5.3185,-5.3185,-5.3185,-5.3185,-5.3185,-5.3096,-5.2803,-5.2766,-5.2417,-5.1591,-5.1573,-5.1334,-5.082,-5.0508,-4.9958,-4.9132,-4.8563,-4.8306,-4.8306,-4.8306,-4.8306,-2.3685,0.0,0.0,0.0,0.0,-3.1549,-3.3715,0.0,-3.6321,-3.7955,-3.8707,0.0,0.0,0.0,0.0,0.0,0.0,0.0,0.0,0.0,0.0,0.0,0.0,0.0,0.0,0.0,0.0,0.0,0.0,0.0,-4.3515,-4.3515,-4.3515,-4.3515,-4.3515,-4.3515,-4.3515,-4.3515,-4.3515,-4.3515,-4.3515,-4.3515,-4.3515,-4.3515,-4.3515,-4.3515,-4.3515,-4.3515,-4.3515,-4.3515,-4.3515,-4.3515,-4.3515,-4.3663,-4.403,-4.5094,-4.5847,-4.6471,-4.7516,-4.8086,-4.8306,-4.8306,-4.8306,-4.8306,-4.8306,-4.8306,-4.8361,-4.8655,-4.9114,-4.9774,-5.0912,-5.1793,-5.2546,-5.3057,-5.3185,-5.3185,-5.3185,-5.3185,-5.3185,-5.3185,-5.3185,-5.3185,-5.3185,-5.3185,-5.3185,-5.3185,-5.3185,-5.3185,-5.3185,-5.3185,-5.3185,-5.3185,-5.3185,-5.3185,-5.3185,-5.3185,-5.3185,-5.3185,-5.3185,-5.2968,-5.2417,-5.2399,-5.2142,-5.1628,-5.1334,-5.093,-5.04,-4.9279,-4.8728,-4.871,-4.8434,-4.8306,0.0,0.0,0.0,0.0,0.0,0.0,-3.3683,0.0,-3.3445,-3.6684,-3.7401,0.0,0.0,0.0,0.0,0.0,0.0,0.0,0.0,0.0,0.0,0.0,0.0,0.0,0.0,0.0,0.0,0.0,-4.3515,-4.3515,-4.3515,-4.3515,-4.3515,-4.3515,-4.3515,-4.3515,-4.3515,-4.3515,-4.3515,-4.3515,-4.3515,-4.3515,-4.3515,-4.3515,-4.3515,-4.3515,-4.3515,-4.3515,-4.3515,-4.3515,-4.3515,-4.3515,-4.3515,-4.3975,-4.4654,-4.4709,-4.5718,-4.7076,-4.7113,-4.7645,-4.8306,-4.8306,-4.8306,-4.8306,-4.8306,-4.8306,-4.8489,-4.9353,-4.9629,-5.0014,-5.161,-5.2619,-5.3185,-5.3185,-5.3185,-5.3185,-5.3185,-5.3185,-5.3185,-5.3185,-5.3185,-5.3185,-5.3185,-5.3185,-5.3185,-5.3185,-5.3185,-5.3185,-5.3185,-5.3185,-5.3185,-5.3185,-5.3185,-5.3185,-5.3185,-5.3185,-5.3185,-5.3185,-5.3185,-5.3185,-5.3185,-5.3185,-5.3185,-5.3185,-5.2435,-5.2032,-5.2013,-5.0418,-4.961,-4.9517,-4.8746,-4.8379,-2.2539,0.0,0.0,0.0,0.0,0.0,0.0,0.0,0.0,-3.3491,0.0,0.0,0.0,0.0,0.0,0.0,0.0,0.0,0.0,0.0,0.0,0.0,0.0,0.0,0.0,0.0,0.0,0.0,-4.3515,-4.3515,-4.3515,-4.3515,-4.3515,-4.3515,-4.3515,-4.3515,-4.3515,-4.3515,-4.3515,-4.3515,-4.3515,-4.3515,-4.3515,-4.3515,-4.3515,-4.3515,-4.3515,-4.3515,-4.3515,-4.3515,-4.3515,-4.3515,-4.3515,-4.3626,-4.3975,-4.5149,-4.5847,-4.6397,-4.7553,-4.8122,-4.8306,-4.8306,-4.8306,-4.8306,-4.8306,-4.8306,-4.8489,-4.9353,-5.0033,-5.0839,-5.2454,-5.3041,-5.3185,-5.3185,-5.3185,-5.3185,-5.3185,-5.3185,-5.3185,-5.3185,-5.3185,-5.3185,-5.3185,-5.3185,-5.3185,-5.3185,-5.3185,-5.3185,-5.3185,-5.3185,-5.3185,-5.3185,-5.3185,-5.3185,-5.3185,-5.3185,-5.3185,-5.3185,-5.3185,-5.3185,-5.3185,-5.3185,-5.3185,-5.3185,-5.2986,-5.2876,-5.2858,-5.1261,-5.0453,-5.0435,-5.0215,-5.0105,-2.2816,0.0,0.0,0.0,0.0,0.0,-2.768,-2.8516,0.0,0.0,0.0,0.0,0.0,0.0,0.0,0.0,0.0,0.0,0.0,0.0,0.0,0.0,0.0,0.0,0.0,-4.28,-4.3002,-4.3002,-4.3296,-4.3515,-4.3515,-4.3515,-4.3515,-4.3515,-4.3515,-4.3515,-4.3515,-4.3515,-4.3515,-4.3515,-4.3515,-4.3515,-4.3515,-4.3515,-4.3515,-4.3515,-4.3515,-4.3515,-4.3515,-4.3515,-4.3515,-4.3515,-4.3515,-4.3515,-4.3662,-4.4929,-4.5608,-4.6085,-4.737,-4.8012,-4.8306,-4.8306,-4.8306,-4.8306,-4.8306,-4.8306,-4.8563,-4.9756,-5.0912,-5.2032,-5.2947,-5.3185,-5.3185,-5.3185,-5.3185,-5.3185,-5.3185,-5.3185,-5.3185,-5.3185,-5.3185,-5.3185,-5.3185,-5.3185,-5.3185,-5.3185,-5.3185,-5.3185,-5.3185,-5.3185,-5.3185,-5.3185,-5.3185,-5.3185,-5.3185,-5.3185,-5.3185,-5.3185,-5.3185,-5.3185,-5.3185,-5.3185,-5.3185,-5.3185,-5.3185,-5.3185,-5.3185,-5.1922,-5.1132,-5.0802,-5.0802,-5.0802,-2.2991,0.0,0.0,0.0,0.0,0.0,-2.8702,-2.8535,-2.8421,0.0,0.0,0.0,0.0,0.0,0.0,0.0,0.0,0.0,0.0,0.0,0.0,0.0,0.0,0.0,-4.1095,-4.1754,-4.2176,-4.2176,-4.291,-4.3369,-4.3369,-4.346,-4.3515,-4.3515,-4.3515,-4.3515,-4.3515,-4.3515,-4.3515,-4.3515,-4.3515,-4.3515,-4.3515,-4.3515,-4.3515,-4.3515,-4.3515,-4.3515,-4.3515,-4.3515,-4.3515,-4.3515,-4.3515,-4.3515,-4.3625,-4.4507,-4.5296,-4.603,-4.6911,-4.77,-4.8306,-4.8306,-4.8306,-4.8306,-4.8306,-4.8306,-4.8655,-5.0325,-5.1903,-5.3096,-5.3167,-5.3185,-5.3185,-5.3185,-5.3185,-5.3185,-5.3185,-5.3185,-5.3185,-5.3185,-5.3185,-5.3185,-5.3185,-5.3185,-5.3185,-5.3185,-5.3185,-5.3185,-5.3185,-5.3185,-5.3185,-5.3185,-5.3185,-5.3185,-5.3185,-5.3185,-5.3185,-5.3185,-5.3185,-5.3185,-5.3185,-5.3185,-5.3185,-5.3185,-5.3185,-5.3185,-5.3185,-5.2472,-5.1775,-5.1077,-5.1077,-5.1077,0.0,0.0,0.0,0.0,0.0,0.0,-2.556,-2.5921,-2.6601,0.0,0.0,0.0,0.0,0.0,0.0,0.0,0.0,0.0,0.0,0.0,0.0,0.0,0.0,0.0,-4.104,-4.1242,-4.1334,-4.1334,-4.2084,-4.2525,-4.2525,-4.3149,-4.3515,-4.3515,-4.3515,-4.3515,-4.3515,-4.3515,-4.3515,-4.3515,-4.3515,-4.3515,-4.3515,-4.3515,-4.3515,-4.3515,-4.3515,-4.3515,-4.3515,-4.3515,-4.3515,-4.3515,-4.3515,-4.3515,-4.368,-4.5131,-4.5773,-4.6104,-4.7572,-4.8177,-4.8306,-4.8306,-4.8306,-4.8306,-4.8306,-4.8306,-4.8655,-5.0325,-5.1481,-5.238,-5.3041,-5.3185,-5.3185,-5.3185,-5.3185,-5.3185,-5.3185,-5.3185,-5.3185,-5.3185,-5.3185,-5.3185,-5.3185,-5.3185,-5.3185,-5.3185,-5.3185,-5.3185,-5.3185,-5.3185,-5.3185,-5.3185,-5.3185,-5.3185,-5.3185,-5.3185,-5.3185,-5.3185,-5.3185,-5.3185,-5.3185,-5.3185,-5.3185,-5.3185,-5.3185,-5.3185,-5.3185,-5.3041,-5.2894,-5.2747,-5.2747,-5.2747,0.0,0.0,0.0,-2.5612,0.0,0.0,0.0,-2.557,-2.5718,-2.6483,-2.6556,-2.6936,0.0,0.0,0.0,0.0,0.0,0.0,0.0,0.0,0.0,0.0,0.0,0.0,-3.9276,-4.0029,-4.0671,-4.1058,-4.1462,-4.1699,-4.1699,-4.2451,-4.2892,-4.2892,-4.3277,-4.3515,-4.3515,-4.3515,-4.3515,-4.3515,-4.3515,-4.3515,-4.3515,-4.3515,-4.3515,-4.3515,-4.3515,-4.3515,-4.3515,-4.3515,-4.3515,-4.3515,-4.3515,-4.3515,-4.3698,-4.5314,-4.5902,-4.6122,-4.7737,-4.8306,-4.8306,-4.8306,-4.8306,-4.8306,-4.8306,-4.8893,-4.9719,-5.0563,-5.1665,-5.2692,-5.3093,-5.3185,-5.3185,-5.3185,-5.3185,-5.3185,-5.3185,-5.3185,-5.3185,-5.3185,-5.3185,-5.3185,-5.3185,-5.3185,-5.3185,-5.3185,-5.3185,-5.3185,-5.3185,-5.3185,-5.3185,-5.3185,-5.3185,-5.3185,-5.3185,-5.3185,-5.3185,-5.3185,-5.3185,-5.3185,-5.3185,-5.3185,-5.3185,-5.3185,-5.3185,-5.3185,-5.3185,-5.3185,-5.3185,-5.3185,-5.3185,-5.3185,0.0,0.0,0.0,0.0,0.0,-2.5578,0.0,0.0,0.0,-2.6182,0.0,0.0,0.0,0.0,0.0,0.0,0.0,0.0,0.0,0.0,0.0,0.0,0.0,0.0,0.0,-3.8285,-3.9423,-4.0545,-4.0343,-4.038,-4.0838,-4.1644,-4.2139,-4.2304,-4.2928,-4.3332,-4.3515,-4.3515,-4.3515,-4.3515,-4.3515,-4.3515,-4.3515,-4.3515,-4.3515,-4.3515,-4.3515,-4.3515,-4.3515,-4.3515,-4.3515,-4.3515,-4.3515,-4.3515,-4.3698,-4.5314,-4.5902,-4.6122,-4.7737,-4.8306,-4.8306,-4.8306,-4.8306,-4.8306,-4.8306,-4.926,-5.0398,-5.071,-5.1738,-5.2821,-5.3112,-5.3185,-5.3185,-5.3185,-5.3185,-5.3185,-5.3185,-5.3185,-5.3185,-5.3185,-5.3185,-5.3185,-5.3185,-5.3185,-5.3185,-5.3185,-5.3185,-5.3185,-5.3185,-5.3185,-5.3185,-5.3185,-5.3185,-5.3185,-5.3185,-5.3185,-5.3185,-5.3185,-5.3185,-5.3185,-5.3185,-5.3185,-5.3185,-5.3185,-5.3185,-5.3185,-5.3185,-5.3185,-5.3185,-5.3185,-5.3185,-5.3185,0.0,0.0,0.0,0.0,-2.7807,0.0,0.0,0.0,-2.5434,-2.3591,0.0,0.0,0.0,0.0,0.0,0.0,0.0,0.0,0.0,0.0,0.0,0.0,0.0,0.0,0.0,-3.5885,-3.6509,-3.8799,-3.7661,-3.7771,-3.9918,-4.0799,-4.157,-4.2286,-4.2396,-4.2782,-4.3496,-4.3515,-4.3515,-4.3515,-4.3515,-4.3515,-4.3515,-4.3515,-4.3515,-4.3515,-4.3515,-4.3515,-4.3515,-4.3515,-4.3515,-4.3515,-4.3515,-4.3515,-4.3698,-4.5314,-4.5902,-4.6122,-4.7737,-4.8306,-4.8306,-4.8306,-4.8306,-4.8306,-4.8306,-4.8434,-4.8893,-5.038,-5.093,-5.1408,-5.2839,-5.3185,-5.3185,-5.3185,-5.3185,-5.3185,-5.3185,-5.3185,-5.3185,-5.3185,-5.3185,-5.3185,-5.3185,-5.3185,-5.3185,-5.3185,-5.3185,-5.3185,-5.3185,-5.3185,-5.3185,-5.3185,-5.3185,-5.3185,-5.3185,-5.3185,-5.3185,-5.3185,-5.3185,-5.3185,-5.3185,-5.3185,-5.3185,-5.3185,-5.3185,-5.3185,-5.3185,-5.3185,-5.3185,-5.3185,-5.3185,-5.3185,0.0,0.0,0.0,0.0,0.0,0.0,-2.5266,0.0,-2.4224,0.0,0.0,0.0,0.0,0.0,0.0,0.0,0.0,0.0,0.0,0.0,0.0,0.0,0.0,0.0,0.0,0.0,0.0,0.0,-3.6211,-3.6413,-3.841,-3.9698,-4.0561,-4.0891,-4.1809,-4.2451,-4.28,-4.3276,-4.3515,-4.3515,-4.3515,-4.3515,-4.3515,-4.3515,-4.3515,-4.3515,-4.3515,-4.3515,-4.3515,-4.3515,-4.3515,-4.3515,-4.3515,-4.3515,-4.3643,-4.4782,-4.5498,-4.6067,-4.7223,-4.7901,-4.8306,-4.8306,-4.8306,-4.8306,-4.8306,-4.8985,-4.9903,-5.06,-5.1481,-5.2362,-5.3023,-5.3185,-5.3185,-5.3185,-5.3185,-5.3185,-5.3185,-5.3185,-5.3185,-5.3185,-5.3185,-5.3185,-5.3185,-5.3185,-5.3185,-5.3185,-5.3185,-5.3185,-5.3185,-5.3185,-5.3185,-5.3185,-5.3185,-5.3185,-5.3185,-5.3185,-5.3185,-5.3185,-5.3185,-5.3185,-5.3185,-5.3185,-5.3185,-5.3185,-5.3185,-5.3185,-5.3185,-5.3185,-5.3185,-5.3185,-5.3185,-5.3185,-3.0446,0.0,0.0,0.0,0.0,0.0,0.0,0.0,0.0,0.0,0.0,0.0,0.0,0.0,0.0,0.0,0.0,0.0,0.0,0.0,0.0,0.0,0.0,0.0,0.0,0.0,0.0,0.0,0.0,-3.4802,-3.7364,-3.8612,-3.9439,-3.9898,-4.124,-4.2084,-4.2304,-4.3094,-4.3515,-4.3515,-4.3515,-4.3515,-4.3515,-4.3515,-4.3515,-4.3515,-4.3515,-4.3515,-4.3515,-4.3515,-4.3515,-4.3515,-4.3515,-4.3515,-4.3606,-4.4415,-4.5223,-4.6012,-4.6819,-4.7626,-4.8306,-4.8306,-4.8306,-4.8306,-4.8306,-4.9297,-5.049,-5.0729,-5.1811,-5.2931,-5.313,-5.3185,-5.3185,-5.3185,-5.3185,-5.3185,-5.3185,-5.3185,-5.3185,-5.3185,-5.3185,-5.3185,-5.3185,-5.3185,-5.3185,-5.3185,-5.3185,-5.3185,-5.3185,-5.3185,-5.3185,-5.3185,-5.3185,-5.3185,-5.3185,-5.3185,-5.3185,-5.3185,-5.3185,-5.3185,-5.3185,-5.3185,-5.3185,-5.3185,-5.3185,-5.3185,-5.3185,-5.3185,-5.3185,-5.3185,-5.3185,-5.3185,0.0,0.0,0.0,-2.911,0.0,0.0,0.0,0.0,-2.697,0.0,0.0,0.0,0.0,0.0,0.0,0.0,0.0,0.0,0.0,0.0,0.0,0.0,0.0,0.0,0.0,0.0,0.0,0.0,0.0,0.0,-3.7235,-3.7547,-3.83,-3.9845,-4.0708,-4.1499,-4.2286,-4.3094,-4.3515,-4.3515,-4.3515,-4.3515,-4.3515,-4.3515,-4.3515,-4.3515,-4.3515,-4.3515,-4.3515,-4.3515,-4.3515,-4.3515,-4.3515,-4.3515,-4.3606,-4.4415,-4.5223,-4.6012,-4.6819,-4.7626,-4.8306,-4.8306,-4.8306,-4.8306,-4.8306,-4.8875,-4.9719,-5.0563,-5.1389,-5.2215,-5.3004,-5.3185,-5.3185,-5.3185,-5.3185,-5.3185,-5.3185,-5.3185,-5.3185,-5.3185,-5.3185,-5.3185,-5.3185,-5.3185,-5.3185,-5.3185,-5.3185,-5.3185,-5.3185,-5.3185,-5.3185,-5.3185,-5.3185,-5.3185,-5.3185,-5.3185,-5.3185,-5.3185,-5.3185,-5.3185,-5.3185,-5.3185,-5.3185,-5.3185,-5.3185,-5.3185,-5.3185,-5.3185,-5.3185,-5.3185,-5.3185,-5.3185,0.0,0.0,-3.6141,-3.2132,0.0,0.0,0.0,0.0,0.0,0.0,0.0,0.0,0.0,0.0,0.0,0.0,0.0,0.0,0.0,0.0,0.0,0.0,0.0,0.0,0.0,0.0,0.0,0.0,-3.147,0.0,0.0,-3.689,-3.7988,-3.9074,-4.0398,-4.148,-4.2286,-4.3094,-4.3515,-4.3515,-4.3515,-4.3515,-4.3515,-4.3515,-4.3515,-4.3515,-4.3515,-4.3515,-4.3515,-4.3515,-4.3515,-4.3515,-4.3515,-4.3515,-4.3606,-4.4415,-4.5223,-4.6085,-4.7443,-4.8086,-4.8306,-4.8306,-4.8306,-4.8416,-4.8985,-4.9719,-5.0527,-5.1353,-5.2179,-5.2858,-5.3133,-5.3185,-5.3185,-5.3185,-5.3185,-5.3185,-5.3185,-5.3185,-5.3185,-5.3185,-5.3185,-5.3369,-5.3904,-5.3995,-5.3812,-5.3277,-5.3185,-5.3185,-5.3185,-5.3185,-5.3387,-5.394,-5.3995,-5.3995,-5.3995,-5.3995,-5.3775,-5.3222,-5.3702,-5.3775,-5.3203,-5.3185,-5.3185,-5.3185,-5.3185,-5.3185,-5.3185,-5.3185,-5.3185,-5.3185,-5.3185,-5.3185,-3.6479,-3.7324,0.0,-3.4229,-3.3142,0.0,-2.7996,0.0,0.0,0.0,0.0,0.0,0.0,0.0,0.0,0.0,0.0,0.0,0.0,-2.453,0.0,0.0,0.0,0.0,0.0,0.0,-2.7886,-3.0356,-3.0283,0.0,0.0,0.0,-3.7569,-3.867,-4.0251,-4.148,-4.2286,-4.3094,-4.3515,-4.3515,-4.3515,-4.3515,-4.3515,-4.3515,-4.3515,-4.3515,-4.3515,-4.3515,-4.3515,-4.3515,-4.3515,-4.3515,-4.3515,-4.3663,-4.3993,-4.4525,-4.5388,-4.6526,-4.7847,-4.8306,-4.8306,-4.8306,-4.8306,-4.8471,-4.9353,-5.016,-5.0967,-5.1756,-5.2582,-5.3185,-5.3185,-5.3185,-5.3185,-5.3185,-5.3185,-5.3185,-5.3185,-5.3185,-5.3185,-5.3185,-5.3424,-5.3794,-5.4308,-5.4638,-5.4638,-5.4124,-5.4051,-5.4051,-5.4051,-5.4051,-5.4252,-5.4766,-5.4821,-5.4821,-5.4821,-5.4821,-5.4601,-5.4087,-5.4546,-5.4583,-5.4069,-5.4051,-5.4051,-5.4051,-5.4051,-5.3922,-5.3628,-5.3628,-5.3482,-5.3185,-5.3185,-5.3185]},{"header":{"parameterUnit":"m.s-1","parameterCategory":1,"la1":30.6,"la2":29.2853,"lo1":-89.7004,"lo2":-87.6739,"dy":0.0162,"dx":0.0183,"nx":112,"ny":82,"refTime":"2025-03-14T06:00:00:Z","depth":0,"parameterNumber":3,"parameterNumberName":"V-component_of_WINDS"},"data":[0.0,0.0,0.0,0.0,0.0,0.0,0.0,0.0,0.0,0.0,0.0,0.0,0.0,0.0,0.0,0.0,0.0,0.0,0.0,0.0,0.0,0.0,0.0,0.0,0.0,0.0,0.0,0.0,0.0,0.0,0.0,0.0,0.0,0.0,0.0,0.0,0.0,0.0,0.0,0.0,0.0,0.0,0.0,0.0,0.0,0.0,0.0,0.0,0.0,0.0,0.0,0.0,0.0,0.0,0.0,0.0,0.0,0.0,0.0,0.0,0.0,0.0,0.0,0.0,0.0,0.0,0.0,0.0,0.0,0.0,0.0,0.0,0.0,0.0,0.0,0.0,0.0,0.0,0.0,0.0,0.0,0.0,0.0,0.0,0.0,0.0,0.0,0.0,0.0,0.0,0.7081,0.6492,0.7942,0.9185,0.9762,0.9994,0.9657,0.8617,0.0,0.0,0.0,0.0,0.0,0.0,0.0,0.0,0.0,0.0,0.0,0.0,0.0,0.0,0.0,0.0,0.0,0.0,0.0,0.0,0.0,0.0,0.0,0.0,0.0,0.0,0.0,0.0,0.0,0.0,0.0,0.0,0.0,0.0,0.0,0.0,0.0,0.0,0.0,0.0,0.0,0.0,0.0,0.0,0.0,0.0,0.0,0.0,0.0,0.0,0.0,0.0,0.0,0.0,0.0,0.0,0.0,0.0,0.0,0.0,0.0,0.0,0.0,0.0,0.0,0.0,0.0,0.0,0.0,0.0,0.0,0.0,0.0,0.0,0.0,0.0,0.0,0.0,0.0,0.0,0.0,0.0,0.0,0.0,0.0,0.0,0.0,0.0,0.0,0.0,0.0,0.0,0.0,0.0,0.0,0.0,0.0,0.0,0.0,0.0,0.0,0.0,0.0,0.0,0.6898,0.8235,0.9146,0.9692,0.9788,1.0838,1.0727,0.8944,0.0,0.0,0.0,0.0,0.0,0.0,0.0,0.0,0.0,0.0,0.0,0.0,0.0,0.0,0.0,0.0,0.0,0.0,0.0,0.0,0.0,0.0,0.0,0.0,0.0,0.0,0.0,0.0,0.0,0.0,0.0,0.0,0.0,0.0,0.0,0.0,0.0,0.0,0.0,0.0,0.0,0.0,0.0,0.0,0.0,0.0,0.0,0.0,0.0,0.0,0.0,0.0,0.0,0.0,0.0,0.0,0.0,0.0,0.0,0.0,0.0,0.0,0.0,0.0,0.0,0.0,0.0,0.0,0.0,0.0,0.0,0.0,0.0,0.0,0.0,0.0,0.0,0.0,0.0,0.0,0.0,0.0,0.0,0.0,0.0,0.0,0.0,0.0,0.0,0.0,0.0,0.0,0.0,0.0,0.0,0.0,0.0,0.0,0.0,0.0,0.0,0.0,0.0,0.6165,0.7034,0.8632,0.9413,0.9943,1.0312,1.1241,1.1134,0.9537,0.8944,0.0,0.0,0.0,0.0,0.0,0.0,0.0,0.0,0.0,0.0,0.0,0.0,0.0,0.0,0.0,0.0,0.0,0.0,0.0,0.0,0.0,0.0,0.0,0.0,0.0,0.0,0.0,0.0,0.0,0.0,0.0,0.0,0.0,0.0,0.0,0.0,0.0,0.0,0.0,0.0,0.0,0.0,0.0,0.0,0.0,0.0,0.0,0.0,0.0,0.0,0.0,0.0,0.0,0.0,0.0,0.0,0.0,0.0,0.0,0.0,0.0,0.0,0.0,0.0,0.0,0.0,0.0,0.0,0.0,0.0,0.0,0.0,0.0,0.0,0.0,0.0,0.0,0.0,0.0,0.0,0.0,0.0,0.0,0.0,0.0,0.0,0.0,0.0,0.0,0.0,0.0,0.0,0.0,0.0,0.0,0.0,0.0,0.0,0.0,0.0,0.0,0.0,0.7159,0.7607,0.8907,0.9484,1.0064,1.0737,1.1205,1.0941,0.9735,0.9094,0.0,0.0,0.0,0.0,0.0,0.0,0.0,0.0,0.0,0.0,0.0,0.0,0.0,0.0,0.0,0.0,0.0,0.0,0.0,0.0,0.0,0.0,0.0,0.0,0.0,0.0,0.0,0.0,0.0,0.0,0.0,0.0,0.0,0.0,0.0,0.0,0.0,0.0,0.0,0.0,0.0,0.0,0.0,0.0,0.0,0.0,0.0,0.0,0.0,0.0,0.0,0.0,0.0,0.0,0.0,0.0,0.0,0.0,0.0,0.0,0.0,0.0,0.0,0.0,0.0,0.0,0.0,0.0,0.0,0.0,0.0,0.0,0.0,0.0,0.0,0.0,0.0,0.0,0.0,0.0,0.0,0.0,0.0,0.0,0.0,0.0,0.0,0.0,0.0,0.0,0.0,0.0,0.0,0.0,0.0,0.0,0.0,0.0,0.0,0.0,0.0,0.0,0.7964,0.8933,0.9658,0.9762,1.0064,1.0737,1.0606,1.0058,0.9043,0.818,0.0,0.0,0.0,0.0,0.0,0.0,0.0,0.0,0.0,0.0,0.0,0.0,0.0,0.0,0.0,0.0,0.0,0.0,0.0,0.0,0.0,0.0,0.0,0.0,0.0,0.0,0.0,0.0,0.0,0.0,0.0,0.0,0.0,0.0,0.0,0.0,0.0,0.0,0.0,0.0,0.0,0.0,0.0,0.0,0.0,0.0,0.0,0.0,0.0,0.0,0.0,0.0,0.0,0.0,0.0,0.0,0.0,0.0,0.0,0.0,0.0,0.0,0.0,0.0,0.0,0.0,0.0,0.0,0.0,0.0,0.0,0.0,0.0,0.0,0.0,0.0,0.0,0.0,0.0,0.0,0.0,0.0,0.0,0.0,0.0,0.0,0.0,0.0,0.0,0.0,0.0,0.0,0.0,0.0,0.0,0.0,0.0,0.0,0.0,0.0,0.0,0.0,0.7667,0.8472,0.0,0.9917,1.0364,1.0185,1.1262,1.1083,0.9028,0.0,0.0,0.0,0.0,0.0,0.0,0.0,0.0,0.0,0.0,0.0,0.0,0.0,0.0,0.0,0.0,0.0,0.0,0.0,0.0,0.0,0.0,0.0,0.0,0.0,0.0,0.0,0.0,0.0,0.0,0.0,0.0,0.0,0.0,0.0,0.0,0.0,0.0,0.0,0.0,0.0,0.0,0.0,0.0,0.0,0.0,0.0,0.0,0.0,0.0,0.0,0.0,0.0,0.0,0.0,0.0,0.0,0.0,0.0,0.0,0.0,0.0,0.0,0.0,0.0,0.0,0.0,0.0,0.0,0.0,0.0,0.0,0.0,0.0,0.0,0.0,0.0,0.0,0.0,0.0,0.0,0.0,0.0,0.0,0.0,0.0,0.0,0.0,0.0,0.0,0.0,0.0,0.0,0.0,0.0,0.0,0.0,0.0,0.0,0.0,0.0,0.0,0.6843,0.7706,0.8432,0.0,0.9935,1.0466,1.044,1.1453,1.1247,0.9217,0.0,0.0,0.0,0.0,0.0,0.0,0.0,0.0,0.0,0.0,0.0,0.0,0.0,0.0,0.0,0.0,0.0,0.0,0.0,0.0,0.0,0.0,0.0,0.0,0.0,0.0,0.0,0.0,0.0,0.0,0.0,0.0,0.0,0.0,0.0,0.0,0.0,0.0,0.0,0.0,0.0,0.0,0.0,0.0,0.0,0.0,0.0,0.0,0.0,0.0,0.0,0.0,0.0,0.0,0.0,0.0,0.0,0.0,0.0,0.0,0.0,0.0,0.0,0.0,0.0,0.0,0.0,0.0,0.0,0.0,0.0,0.0,0.0,0.0,0.0,0.0,0.0,0.0,0.0,0.0,0.0,0.0,0.0,0.0,0.0,0.0,0.0,0.0,0.0,0.0,0.0,0.0,0.0,0.0,0.0,0.0,0.0,0.0,0.0,0.0,0.0,0.0,0.7328,0.825,0.9061,0.971,0.9788,1.0338,1.1665,1.0931,1.0143,0.0,0.0,0.0,0.0,0.0,0.0,0.0,0.0,0.0,0.0,0.0,0.0,0.0,0.0,0.0,0.0,0.0,0.0,0.0,0.0,0.0,0.0,0.0,0.0,0.0,0.0,0.0,0.0,0.0,0.0,0.0,0.0,0.0,0.0,0.0,0.0,0.0,0.0,0.0,0.0,0.0,0.0,0.0,0.0,0.0,0.0,0.0,0.0,0.0,0.0,0.0,0.0,0.0,0.0,0.0,0.0,0.0,0.0,0.0,0.0,0.0,0.0,0.0,0.0,0.0,0.0,0.0,0.0,0.0,0.0,0.0,0.0,0.0,0.0,0.0,0.0,0.0,0.0,0.0,0.0,0.0,0.0,0.0,0.0,0.0,0.0,0.0,0.0,0.0,0.0,0.0,0.0,0.0,0.0,0.0,0.0,0.0,0.0,0.0,0.0,0.0,0.0,0.0,0.762,0.839,0.8883,0.9087,0.951,0.9961,1.0364,1.0989,1.0768,0.9313,0.0,0.0,0.0,0.0,0.0,0.0,0.0,0.0,0.0,0.0,0.0,0.0,0.0,0.0,0.0,0.0,0.0,0.0,0.0,0.0,0.0,0.0,0.0,0.0,0.0,0.0,0.0,0.0,0.0,0.0,0.0,0.0,0.0,0.0,0.0,0.0,0.0,0.0,0.0,0.0,0.0,0.0,0.0,0.0,0.0,0.0,0.0,0.0,0.0,0.0,0.0,0.0,0.0,0.0,0.0,0.0,0.0,0.0,0.0,0.0,0.0,0.0,0.0,0.0,0.0,0.0,0.0,0.0,0.0,0.0,0.0,0.0,0.0,0.0,0.0,0.0,0.0,0.0,0.0,0.0,0.0,0.0,0.0,0.0,0.0,0.0,0.0,0.0,0.0,0.0,0.0,0.0,0.0,0.0,0.0,0.0,0.0,0.0,0.0,0.0,0.0,0.0,0.7726,0.8518,0.8911,0.8818,0.9528,1.0061,1.02,1.1191,1.1167,0.9679,0.0,0.0,0.0,0.0,0.0,0.0,0.0,0.0,0.0,0.0,0.0,0.0,0.0,0.0,0.0,0.0,0.0,0.0,0.0,0.0,0.0,0.0,0.0,0.0,0.0,0.0,0.0,0.0,0.0,0.0,0.0,0.0,0.0,0.0,0.0,0.0,0.0,0.0,0.0,0.0,0.0,0.0,0.0,0.0,0.0,0.0,0.0,0.0,0.0,0.0,0.0,0.0,0.0,0.0,0.0,0.0,0.0,0.0,0.0,0.0,0.0,0.0,0.0,0.0,0.0,0.0,0.0,0.0,0.0,0.0,0.0,0.0,0.0,0.0,0.0,0.0,0.0,0.0,0.0,0.0,0.0,0.0,0.0,0.0,0.0,0.0,0.0,0.0,0.0,0.0,0.0,0.0,0.0,0.0,0.0,0.0,0.0,0.0,0.0,0.0,0.0,0.0,0.7769,0.8685,0.9124,0.8911,0.9681,1.0367,1.0819,1.1384,1.1351,1.0489,0.0,0.0,0.0,0.0,0.0,0.0,0.0,0.0,0.0,0.0,0.0,0.0,0.0,0.0,0.0,0.0,0.0,0.0,0.0,0.0,0.0,0.0,0.0,0.0,0.0,0.0,0.0,0.0,0.0,0.0,0.0,0.0,0.0,0.0,0.0,0.0,0.0,0.0,0.0,0.0,0.0,0.0,0.0,0.0,0.0,0.0,0.0,0.0,0.0,0.0,0.0,0.0,0.0,0.0,0.0,0.0,0.0,0.0,0.0,0.0,0.5554,0.0,0.0,0.0,0.0,0.0,0.0,0.0,0.0,0.0,0.0,0.0,0.0,0.0,0.0,0.0,0.0,0.0,0.0,0.0,0.0,0.0,0.0,0.0,0.0,0.0,0.0,0.0,0.0,0.0,0.0,0.0,0.0,0.0,0.0,0.0,0.0,0.0,0.0,0.0,0.0,0.0,0.8123,0.8818,0.9277,0.9479,0.9479,0.9904,1.1092,1.1081,1.1107,1.1301,1.0324,0.0,0.0,0.0,0.0,0.0,0.0,0.0,0.0,0.0,0.0,0.0,0.0,0.0,0.0,0.0,0.0,0.0,0.0,0.0,0.0,0.0,0.0,0.0,0.0,0.0,0.0,0.0,0.0,0.0,0.0,0.0,0.0,0.0,0.0,0.0,0.0,0.0,0.0,0.0,0.0,0.0,0.0,0.0,0.0,0.0,0.0,0.0,0.0,0.0,0.0,0.0,0.0,0.0,0.0,0.0,0.0,0.0,0.0,0.0,0.0,0.6666,0.0,0.0,0.0,0.0,0.0,0.0,0.0,0.0,0.0,0.0,0.0,0.0,0.0,0.0,0.0,0.0,0.0,0.0,0.0,0.0,0.0,0.0,0.0,0.0,0.0,0.0,0.0,0.0,0.0,0.0,0.0,0.0,0.0,0.0,0.0,0.0,0.0,0.0,0.0,0.0,0.841,0.9092,0.9512,0.9666,0.9666,1.0094,1.1204,1.114,1.1273,1.1843,1.1153,0.0,0.0,0.0,0.0,0.0,0.0,0.0,0.0,0.0,0.0,0.0,0.0,0.0,0.0,0.0,0.0,0.0,0.0,0.0,0.0,0.0,0.0,0.0,0.0,0.0,0.0,0.0,0.0,0.0,0.0,0.0,0.0,0.0,0.0,0.0,0.0,0.0,0.0,0.0,0.0,0.0,0.0,0.0,0.0,0.0,0.0,0.0,0.0,0.0,0.0,0.0,0.0,0.0,0.8831,0.9239,0.9451,0.9726,0.9993,1.017,0.8621,0.8352,0.8951,0.8124,0.0,0.0,0.0,0.0,0.0,0.0,0.0,0.0,0.0,0.0,0.0,0.0,0.0,0.0,0.0,0.0,0.0,0.0,0.0,0.0,0.0,0.0,0.0,0.0,1.1592,1.1387,0.0,0.0,0.0,0.0,0.0,0.0,0.0,0.0,0.0,0.0,0.0,0.0,0.8704,0.9392,0.978,0.9863,1.0007,1.0491,1.1423,1.136,1.1627,1.2372,1.1963,1.1107,0.0,0.0,0.0,0.0,0.0,0.0,0.0,0.0,0.0,0.0,0.0,0.0,0.0,0.0,0.0,0.0,0.0,0.0,0.0,0.0,0.0,0.0,0.0,0.0,0.0,0.0,0.0,0.0,0.0,0.0,0.0,0.0,0.6653,0.7264,0.0,0.0,0.0,0.0,0.0,0.0,0.0,0.0,0.0,0.0,0.0,0.0,0.0,0.8317,0.8571,0.9118,0.944,0.9459,1.0077,1.0378,1.0419,1.0459,1.0633,1.0868,1.0604,0.0,0.987,0.9233,0.0,0.0,0.0,0.0,0.0,0.0,0.0,0.0,0.0,0.0,0.0,0.0,0.0,0.0,0.0,0.0,0.0,0.0,0.0,0.0,0.0,0.0,1.2448,1.3424,1.3281,1.2824,0.0,1.1061,0.9653,0.9084,0.8047,0.0,0.0,0.0,0.0,0.0,0.0,0.0,0.9031,0.967,1.016,1.0445,1.0247,1.0675,1.2138,1.1683,1.1878,1.3239,1.2564,1.2025,1.1804,1.0447,0.0,0.0,0.0,0.0,0.0,0.0,0.0,0.0,0.0,0.0,0.0,0.0,0.0,0.0,0.0,0.0,0.0,0.0,0.0,0.0,0.0,0.0,0.0,0.0,0.0,0.0,0.0,0.0,0.0,0.6406,0.7054,0.7655,0.7502,0.7328,0.0,0.0,0.0,0.0,0.0,0.0,0.0,0.0,0.0,0.8911,0.9394,0.9695,0.9822,1.0214,1.0421,1.0428,1.0848,1.1136,1.1337,1.1497,1.1739,1.2013,1.2013,1.1737,1.1276,1.0361,0.9713,0.9286,0.0,0.0,0.0,0.0,1.0931,1.1634,1.2208,1.2318,0.0,1.1724,0.0,0.0,0.0,0.0,0.0,0.0,0.0,0.0,0.0,0.0,1.3882,1.4965,1.5167,1.498,1.4487,1.3724,1.2531,0.0,0.967,0.8882,0.7639,0.0,0.0,0.0,0.0,0.9059,0.9938,1.0082,1.0234,1.0559,1.0472,1.0718,1.1598,1.1244,1.1508,1.2759,1.2277,1.2049,1.219,1.1327,1.0375,0.0,0.0,0.0,0.0,0.0,0.0,0.0,0.0,0.0,0.0,0.0,0.0,0.0,0.0,0.0,0.0,0.0,0.0,0.0,0.0,0.0,0.0,0.0,0.0,0.0,0.0,0.0,0.0,0.7088,0.7539,0.8065,0.8199,0.8125,0.0,0.0,0.0,0.0,0.0,0.0,0.8804,0.9608,1.002,1.002,1.0546,1.0814,1.0814,1.1102,1.1256,1.1329,1.1623,1.1917,1.2254,1.2438,1.2659,1.2904,1.2904,1.2777,1.2445,1.1269,1.0512,1.0076,1.0673,1.0836,1.0937,1.2329,1.3035,1.338,1.4118,1.4386,1.4293,1.3774,0.0,1.1349,1.0275,0.0,0.0,0.0,0.0,1.2049,1.3607,1.4502,1.5219,1.6061,1.6484,1.6521,1.5859,1.5722,1.4907,0.0,1.1344,1.0743,0.917,0.0,0.0,0.0,0.0,0.9974,1.048,1.037,1.0407,1.0867,1.0895,1.1102,1.1548,1.1311,1.1427,1.2157,1.2023,1.1987,1.2077,1.1992,1.1419,1.0353,0.0,0.0,0.0,0.0,0.0,0.0,0.0,0.0,0.0,0.0,0.0,0.0,0.0,0.0,0.0,0.0,0.0,0.0,0.0,0.0,0.0,0.0,0.0,0.0,0.0,0.0,0.0,0.0,0.0,0.8724,0.8978,0.0,0.0,0.0,0.0,0.9104,0.9426,0.9719,1.0013,1.0601,1.0929,1.0929,1.1223,1.1349,1.1349,1.1677,1.1964,1.2238,1.2576,1.2878,1.3146,1.316,1.3173,1.3186,1.3186,1.318,1.3073,1.1877,1.1202,1.0993,1.1668,1.2295,1.2962,1.3924,1.4973,1.5916,1.5974,1.5964,1.5967,1.5783,1.4397,1.2576,1.1316,1.1347,0.0,0.0,1.3822,1.5038,1.5776,1.6278,1.6607,1.6658,1.6687,1.6687,1.6638,1.6629,1.6112,0.0,1.341,1.2851,1.251,0.0,1.1313,1.0524,1.0632,1.0652,1.0197,1.0385,1.0881,1.1648,1.1741,1.2074,1.2824,1.2535,1.2196,1.195,1.2139,1.2126,1.183,1.2477,1.2416,1.1535,1.0383,0.0,0.0,0.0,0.0,0.0,0.0,0.0,0.0,0.0,0.0,0.0,0.0,0.0,0.0,0.0,0.0,0.0,0.0,0.0,0.0,0.0,0.0,0.0,0.0,0.0,0.0,0.0,0.0,0.9593,0.9913,0.0,0.9976,0.9963,1.001,1.008,1.0361,1.0308,0.9756,1.0304,1.0707,1.0879,1.112,1.1695,1.2534,1.2679,1.2786,1.2886,1.2993,1.3106,1.322,1.3367,1.3447,1.3447,1.3447,1.3447,1.34,1.2826,1.2799,1.3257,1.381,1.4631,1.5584,1.6703,1.7345,1.7754,1.8037,1.8169,1.788,1.6156,1.4296,1.259,1.1573,1.1883,1.2741,1.3477,1.4499,1.5601,1.6667,1.7031,1.7227,1.749,1.7525,1.748,1.7207,1.7148,1.6885,1.5956,1.536,1.462,1.3312,1.3422,1.3105,1.1405,1.1551,1.1598,1.0832,1.0647,1.0895,1.171,1.1803,1.1927,1.2205,1.1752,1.1342,1.1133,1.0851,1.0833,1.1141,1.14,1.1402,1.1096,1.0131,0.8927,0.0,0.0,0.0,0.0,0.0,0.0,0.0,0.0,0.0,0.0,0.0,0.0,0.0,0.0,0.0,0.0,0.0,0.0,0.0,0.0,0.0,0.0,0.0,0.0,0.0,0.0,0.969,1.0207,1.0608,1.0847,1.0747,1.0827,1.0888,1.0888,1.1216,1.0977,0.9921,1.0816,1.1259,1.1042,1.1585,1.2289,1.3206,1.3213,1.326,1.3313,1.3313,1.3407,1.3514,1.3707,1.3753,1.3753,1.3753,1.3753,1.3733,1.3587,1.4046,1.4842,1.4948,1.5643,1.6723,1.7875,1.8301,1.8385,1.9071,1.9058,1.8404,1.634,1.4597,1.3155,1.2276,1.2699,1.3643,1.4565,1.5497,1.6532,1.7736,1.8027,1.8057,1.8193,1.8188,1.8105,1.7686,1.7598,1.751,1.7184,1.6689,1.5925,1.4657,1.5013,1.4849,1.3094,1.3206,1.3089,1.208,1.1747,1.1875,1.2543,1.2626,1.2626,1.2626,1.1921,1.1285,1.08,1.0258,1.0109,1.0448,1.0686,1.0788,1.0788,0.9803,0.8776,0.7693,0.0,0.0,0.0,0.0,0.0,0.0,0.0,0.0,0.0,0.0,0.0,0.0,0.0,0.0,0.0,0.0,0.0,0.0,0.0,0.0,0.0,0.0,0.0,0.8844,0.9606,1.0274,1.0606,1.1122,1.1329,1.1089,1.1282,1.1449,1.1449,1.2011,1.1837,1.0706,1.226,1.2638,1.1536,1.2605,1.3187,1.324,1.324,1.334,1.362,1.362,1.3808,1.4088,1.4095,1.4102,1.4102,1.4108,1.4115,1.4115,1.4108,1.4748,1.5651,1.4929,1.5319,1.6413,1.7391,1.7746,1.7933,1.8987,1.8637,1.7569,1.6548,1.5481,1.4421,1.3476,1.3895,1.4872,1.5924,1.6963,1.7971,1.9022,1.9287,1.918,1.8724,1.8617,1.849,1.8081,1.8018,1.8008,1.8008,1.7311,1.6736,1.6726,1.6716,1.6443,1.562,1.5482,0.0,1.3785,1.3617,1.3789,1.4178,1.4222,1.4222,1.4183,1.3201,1.2097,1.0929,1.0479,1.0097,0.9777,1.0389,1.0737,1.0737,0.95,0.8543,0.7893,0.0,0.0,0.0,0.0,0.0,0.0,0.0,0.0,0.0,0.0,0.0,0.0,0.0,0.0,0.0,0.0,0.0,0.0,0.0,0.0,0.0,0.9291,0.976,0.976,1.0483,1.1256,1.1764,1.2194,1.2476,1.2585,1.2672,1.2719,1.2719,1.2866,1.2486,1.1443,1.1863,1.2073,1.1928,1.2233,1.2871,1.3848,1.3848,1.3888,1.3968,1.3968,1.4008,1.4095,1.4302,1.4402,1.4409,1.4629,1.4767,1.4747,1.4489,1.502,1.5968,1.555,1.6549,1.8262,1.8554,1.9147,1.9851,2.0138,1.9383,1.8123,1.7051,1.5833,1.4569,1.3509,1.4382,1.5809,1.6106,1.7488,1.8912,1.9214,1.9287,1.9258,1.9141,1.8867,1.8568,1.8451,1.8223,1.8008,1.8008,1.7822,1.7568,1.7256,1.7207,1.6821,1.5666,1.5482,0.0,1.4234,1.4096,1.4243,1.4651,1.4707,1.4337,1.342,1.2663,1.1611,1.0106,0.9528,0.917,0.9087,0.9263,0.9335,0.9335,0.8585,0.7983,0.0,0.0,0.0,0.0,0.0,0.0,0.0,0.0,0.0,0.0,0.0,0.0,0.0,0.0,0.0,0.0,0.0,0.0,0.0,0.0,0.0,0.0,1.0307,1.0895,1.1015,1.147,1.2011,1.2612,1.2832,1.3013,1.3193,1.3213,1.3213,1.3213,1.328,1.2891,1.1856,1.2384,1.2554,1.2194,1.2672,1.3368,1.4269,1.4148,1.4208,1.4499,1.4329,1.4335,1.4462,1.4629,1.4703,0.0,1.4934,1.5008,1.4995,1.4776,1.5085,0.0,0.0,0.0,0.0,0.0,1.9678,2.0605,2.0605,1.9762,1.8527,1.7449,1.619,1.5048,1.4436,1.5048,1.6173,1.7118,1.8253,1.9278,1.9749,1.9862,1.9813,1.959,1.9355,1.9085,1.8909,1.8574,1.8237,1.8237,1.8135,0.0,1.7686,1.7646,1.7416,1.6642,1.6539,1.6167,1.512,1.497,1.4856,1.4516,1.4365,1.3956,1.3217,1.2298,0.0,0.0,0.0,0.8904,0.8811,0.8804,0.0,0.0,0.0,0.0,0.0,0.0,0.0,0.0,0.741,0.7229,0.0,0.0,0.0,0.0,0.0,0.0,0.0,0.0,0.0,0.0,0.0,0.0,0.0,0.0,0.0,0.0,1.1243,1.212,1.2405,1.2452,1.2652,1.3193,1.326,1.3273,1.3307,1.3307,1.3307,1.3307,1.3507,1.3242,1.2248,0.0,0.0,0.0,0.0,1.4309,1.4569,1.4315,1.4449,1.5008,1.4696,1.471,1.5008,1.5042,1.5062,1.5062,1.5095,1.5109,1.5102,1.5068,1.508,1.5253,1.5793,1.6596,1.758,1.8798,1.9831,2.0674,2.0625,0.0,0.0,1.7868,1.6764,1.5861,1.5861,1.5861,1.6314,1.843,1.9085,1.9402,2.0362,2.0605,2.0507,2.0078,1.9951,1.9814,1.9443,1.9014,1.8656,1.8617,1.8295,1.8066,1.8018,1.8008,1.8008,1.8008,1.7906,1.7402,1.6147,1.59,1.5347,1.4089,0.0,0.0,1.3291,1.2081,1.1189,1.0839,0.9834,0.9151,0.8918,0.8905,0.8905,0.8905,0.9131,0.9264,0.9264,0.9552,0.9715,0.9646,0.8063,0.7756,0.0,0.0,0.0,0.0,0.0,0.0,0.0,0.0,0.0,0.0,0.0,0.0,0.0,0.0,0.0,1.143,1.2154,1.2804,1.3267,1.334,1.3387,1.3507,1.352,1.3613,1.3895,1.3921,1.3921,1.3921,1.3968,1.401,1.3985,1.4273,1.4455,1.4459,1.4701,1.4867,1.4877,1.4867,1.4894,1.5008,0.0,0.0,1.5015,1.5204,1.5311,1.5324,1.5558,1.5665,1.5645,1.5411,1.5701,1.6411,1.7443,1.7996,1.8388,2.0142,2.0904,2.1055,2.0693,2.044,2.0118,1.9036,1.7908,1.6968,1.6968,1.6968,0.0,1.8638,1.9599,2.0323,2.0566,2.0605,2.0586,2.0498,2.0166,1.9893,1.9814,1.9463,1.9053,1.8666,1.8539,1.8373,1.8066,1.8008,1.8008,1.8008,1.7364,1.6782,1.6493,1.5791,1.509,1.445,1.4318,1.3765,1.2521,1.1985,1.1297,1.031,0.9841,0.9573,0.9519,0.9512,0.9512,0.9512,0.9573,0.9599,0.9599,0.9653,0.9715,0.9708,0.9332,0.9265,0.0,0.0,0.0,0.0,0.0,0.0,0.0,0.0,0.0,0.0,0.0,0.9683,1.1131,0.0,1.1655,1.2934,1.3182,1.3353,1.3801,1.3953,1.3986,1.3881,1.3868,1.3981,1.4275,1.4302,1.4369,1.4559,1.4566,1.4589,1.4736,1.4743,1.481,1.5001,1.5008,1.5075,1.5177,1.5082,1.511,1.5398,1.5251,1.5257,1.5398,1.5545,1.5611,1.5618,1.5718,1.5784,1.5771,1.5671,1.5843,1.6373,1.824,1.9035,1.9374,2.0986,2.1562,2.1523,2.1309,2.1271,2.105,1.9961,1.9206,1.8626,1.787,1.8017,1.8513,1.8891,1.9756,2.0605,2.0605,2.0605,2.0605,2.0605,2.0439,2.0244,2.0244,1.9902,1.9531,1.9316,1.9102,1.8828,1.8364,1.8286,1.8217,1.8047,1.7207,1.6419,1.5965,1.5057,1.4173,1.347,1.3271,1.2875,1.2112,1.1524,1.0951,1.0378,0.9927,0.9715,0.9715,0.9715,0.9715,0.9715,0.9826,0.9973,1.0151,1.0298,1.0414,1.0555,1.0555,1.0401,0.0,0.0,0.0,0.0,0.0,0.0,0.0,0.0,0.9621,1.026,1.0583,1.1191,1.2739,1.2735,1.2893,1.4159,1.401,1.388,1.4215,1.4232,1.4117,1.3926,1.4127,1.4349,1.4583,1.4603,1.4703,1.4988,1.5008,1.5035,1.5089,1.5095,1.5115,1.513,1.5182,1.5244,1.5478,1.5251,1.5364,1.5778,1.5591,1.5605,1.5784,1.5784,1.5784,1.5784,1.5784,1.5784,1.5784,1.5784,1.5784,1.6015,1.8257,1.9312,1.9738,2.1417,2.2012,2.1992,2.1914,2.1885,2.1751,2.082,2.0382,2.0015,1.9044,1.9197,1.9693,1.9472,2.0046,2.0713,2.0625,2.0605,2.0605,2.0605,2.0605,2.0605,2.0605,2.0283,2.0019,1.9932,1.9639,1.9268,1.8802,1.8724,1.8559,1.8086,1.7207,1.6324,1.5587,1.4593,1.3629,1.2659,1.2374,1.2138,1.1913,1.1203,1.076,1.076,1.0318,1.002,1.002,1.002,1.002,1.002,1.0254,1.0488,1.076,1.0962,1.1196,1.1389,1.1483,1.1229,0.9617,0.8664,0.8639,0.9851,1.0465,1.1148,0.0,0.0,1.3145,1.2942,1.3648,1.4013,1.3024,1.3737,1.4394,1.4166,1.4294,1.4522,1.4867,1.3879,1.3146,1.3117,1.4174,1.4921,1.4955,1.4961,1.4975,1.5008,1.5008,1.5122,1.5337,1.5351,1.5464,1.5678,1.5732,1.5698,1.5731,1.5752,1.5718,1.5784,1.5751,1.5751,1.5784,1.5784,1.5784,1.5784,1.5784,1.5784,1.5784,1.5784,1.5784,1.592,1.7358,1.7918,1.8309,2.1336,2.2441,2.2383,2.2012,2.1885,2.1885,2.1751,2.1038,2.0373,2.1218,2.0847,2.0227,2.0816,2.1032,2.1064,2.0713,2.0605,2.0605,2.0605,2.0605,2.0605,2.0605,2.0566,2.0419,1.999,1.9873,1.9707,1.9287,1.9219,1.8936,1.8135,1.7207,1.6567,1.6463,1.5623,1.4665,1.3637,1.3534,1.3078,1.1997,1.1536,1.1295,1.1295,1.1269,1.1196,1.1196,1.1196,1.1196,1.1196,1.1229,1.1262,1.1295,1.1329,1.1362,1.1395,1.1697,1.1643,1.0476,1.012,1.0344,1.0942,1.2085,1.3258,1.3968,1.4343,1.4639,1.4814,1.5237,1.546,1.5234,1.5259,1.532,0.0,1.5005,1.4883,1.5177,1.408,1.3286,1.339,1.3805,1.408,1.408,1.4787,1.5284,1.5451,1.5471,1.5518,1.5645,1.5651,1.5705,1.5778,1.5784,1.5784,1.5784,1.5784,1.5784,1.5784,1.5784,1.5784,1.5784,1.5784,1.5784,1.5784,1.5784,1.5784,1.5784,1.5784,1.5784,1.592,1.7178,1.7692,1.7948,2.0007,2.12,2.1805,2.1593,2.2021,2.2479,2.1796,2.171,2.1706,2.0605,2.0875,2.1395,2.0804,2.1091,2.1514,2.1074,2.0957,2.0889,2.0664,2.0605,2.0605,2.0605,2.0605,2.0546,2.037,2.0293,2.0156,1.9727,1.9648,1.9453,1.8848,1.7731,1.6873,1.6629,1.579,1.4807,1.3818,1.32,1.2684,1.2167,1.185,1.1683,1.1683,1.1523,1.1389,1.1389,1.1389,1.1389,1.1389,1.1389,1.151,1.1683,1.1683,1.177,1.1937,1.2064,1.2058,1.0714,1.0845,1.1428,1.2088,1.3582,1.5002,1.5514,1.5737,1.5885,1.6153,1.6175,1.6178,1.6142,1.5934,1.5817,1.5806,1.5403,1.5184,1.5478,1.4297,1.3444,1.3596,1.3432,1.3316,1.3386,1.4631,1.5518,1.5758,1.5784,1.5784,1.5784,1.5784,1.5784,1.5784,1.5784,1.5784,1.5784,1.5784,1.5784,1.5784,1.5784,1.5784,1.5784,1.5784,1.5784,1.5784,1.5784,1.5784,1.5784,1.5784,1.5784,1.5872,1.6803,1.7178,1.7271,1.8172,1.948,2.0845,2.1159,2.1845,2.2448,2.1569,2.1889,2.2259,2.0306,2.0843,2.1959,2.1099,2.1436,2.1953,2.1523,2.1288,2.1112,2.083,2.0693,2.0605,2.0605,2.0605,2.0605,2.0605,2.0605,2.0507,2.0146,2.0088,1.9951,1.9521,1.8597,1.7805,1.7415,1.6413,1.5342,1.4214,1.3273,1.2592,1.2335,1.2111,1.2027,1.2027,1.1784,1.1663,1.1663,1.1663,1.1663,1.1663,1.1663,1.1777,1.2027,1.2027,1.2098,1.2305,1.2305,1.2345,1.0134,1.0365,1.121,1.3599,1.498,1.6233,1.8062,1.8024,1.7455,1.6821,1.67,1.615,1.4504,1.5212,1.5857,1.5157,1.5236,1.5484,1.5724,1.4415,1.3391,1.3391,1.3176,1.3123,0.0,1.4631,1.5518,1.5758,1.5784,1.5784,1.5784,1.5784,1.5784,1.5784,1.5784,1.5784,1.5784,1.5784,1.5784,1.5784,1.5784,1.5784,1.5784,1.5784,1.5784,1.5784,1.5784,1.5784,1.5784,1.5784,1.5784,1.5784,1.5825,1.5879,1.5872,1.592,1.7483,1.9716,2.089,2.1337,2.1337,2.1293,2.1337,2.1337,2.1284,2.1275,2.1469,2.2203,2.2448,2.2402,2.1973,2.1553,2.119,2.1181,2.0879,2.0605,2.0605,2.0605,2.0605,2.0605,2.0605,2.0595,2.0586,2.0586,2.0439,1.9961,1.9845,1.9689,1.927,1.7996,1.6616,1.5303,1.4279,1.328,1.2378,1.2291,1.2285,1.2285,1.2278,1.2278,1.2278,1.2278,1.2278,1.2278,1.2278,1.2278,1.2285,1.2285,1.2291,1.2305,1.2305,1.2458,1.0828,1.1664,1.2692,1.393,1.5873,1.7456,1.7372,1.7985,1.8284,1.7288,1.6946,1.6492,1.5362,1.5543,1.5631,1.5099,1.5211,1.5498,1.5744,1.4624,1.362,1.3285,1.3268,0.0,0.0,0.0,0.0,1.5758,1.5784,1.5784,1.5784,1.5784,1.5784,1.5784,1.5784,1.5784,1.5784,1.5784,1.5784,1.5784,1.5784,1.5784,1.5784,1.5784,1.5784,1.5784,1.5784,1.5784,1.5784,1.5784,1.5784,1.5784,1.5784,1.5784,1.5784,1.5784,1.6332,1.7203,1.8495,1.9943,2.1025,1.9443,1.9988,2.098,1.9405,2.0034,2.1176,2.0659,2.166,2.2423,2.0366,2.0957,2.1794,2.068,2.0942,2.1357,2.1074,2.1016,2.0918,2.0664,2.0605,2.0605,2.0605,2.0605,2.0556,2.041,1.9863,1.9186,1.8369,1.7232,1.608,1.4924,1.3954,1.3247,1.2906,1.2712,1.2636,1.2636,1.2412,1.2305,1.2305,1.2305,1.2305,1.2305,1.2305,1.2398,1.2636,1.2636,1.2699,1.2906,1.2906,1.2959,1.1376,1.2332,1.3375,1.4349,1.5998,1.7296,1.6971,1.7401,1.7575,1.6766,1.6117,1.5513,1.494,1.4885,1.4929,1.4835,1.505,1.5378,1.5724,1.4617,1.3808,1.3952,1.3545,1.3464,0.0,0.0,0.0,1.5758,1.5784,1.5784,1.5784,1.5784,1.5784,1.5784,1.5784,1.5784,1.5784,1.5784,1.5784,1.5784,1.5784,1.5784,1.5784,1.5784,1.5784,1.5784,1.5784,1.5784,1.5784,1.5784,1.5784,1.5784,1.5784,1.5784,1.5784,1.5784,1.5784,1.5967,1.7271,1.8726,1.9807,1.8726,1.9405,2.044,1.9314,2.0079,2.1248,2.0899,2.1578,2.2019,2.0182,2.078,2.1593,2.0528,2.1109,2.1807,2.1533,2.1465,2.1377,2.1094,2.0908,2.0801,2.0801,2.0713,2.0605,2.0605,1.9783,1.8882,1.8001,1.7009,1.5915,1.4732,1.4045,1.3548,1.3213,1.3026,1.2951,1.2951,1.2732,1.2625,1.2625,1.2625,1.2625,1.2625,1.2625,1.2719,1.2951,1.2951,1.3013,1.3213,1.3213,1.3267,1.1812,1.2402,1.3256,1.4874,1.5502,1.5966,1.696,1.6396,1.5584,1.5262,1.4303,1.3453,0.0,0.0,1.3753,1.4402,1.4763,1.5209,1.5698,1.4481,1.3981,0.0,0.0,0.0,0.0,0.0,0.0,1.5758,0.0,1.5784,1.5784,1.5784,1.5784,1.5784,1.5784,1.5784,1.5784,1.5784,1.5784,1.5784,1.5784,1.5784,1.5784,1.5784,1.5784,1.5784,1.5784,1.5784,1.5784,1.5784,1.5784,1.5784,1.5784,1.5784,1.5784,1.5784,1.5784,1.5967,1.7178,1.7645,1.787,1.9039,1.9451,1.9716,2.0845,2.1248,2.1525,2.2545,2.2085,2.1248,2.1069,2.0837,2.0612,2.0569,2.1216,2.186,2.1748,2.179,2.1821,2.1802,2.1512,2.1229,2.1229,2.0918,2.0664,2.0644,1.9676,1.8761,1.8327,1.7315,1.6126,1.4729,1.4582,1.4205,1.3333,1.324,1.3233,1.3233,1.322,1.3213,1.3213,1.3213,1.3213,1.3213,1.3213,1.322,1.3233,1.3233,1.324,1.3253,1.3253,1.336,1.2645,1.33,1.3917,1.4535,1.534,1.585,1.5326,1.533,1.5087,1.3966,1.3147,1.2619,0.0,0.0,0.0,1.4062,1.4673,0.0,1.5698,1.5475,0.0,1.5371,0.0,1.5165,1.5365,1.5591,0.0,0.0,1.5784,1.5784,1.5784,1.5784,1.5784,1.5784,1.5784,1.5784,1.5784,1.5784,1.5784,1.5784,1.5784,1.5784,1.5784,1.5784,1.5784,1.5784,1.5784,1.5784,1.5784,1.5784,1.5784,1.5784,1.5784,1.5784,1.5784,1.5784,1.5784,1.5825,1.615,1.6897,1.7731,1.8048,1.8772,1.9534,1.9852,2.0576,2.098,1.9505,2.0133,2.0657,1.7933,1.8509,1.9582,1.8682,2.0009,2.1107,1.9896,2.0355,2.0918,2.053,2.1138,2.1719,2.1719,2.1631,2.1435,2.1113,1.9448,1.8108,1.7605,1.6629,1.5506,1.4345,1.4221,1.4145,1.3903,1.362,1.3493,1.3493,1.3327,1.3213,1.3213,1.3213,1.3213,1.3213,1.3213,1.332,1.3493,1.3493,1.3647,1.3861,1.3861,1.3901,1.342,1.4028,1.4509,1.4669,1.5076,1.5155,1.4316,1.4262,1.3984,1.2678,1.2258,1.1997,1.161,1.2134,1.2844,0.0,0.0,0.0,1.5678,1.5343,1.5136,0.0,1.5199,0.0,1.5551,1.5684,1.5784,0.0,1.5784,1.5784,1.5784,1.5784,1.5784,1.5784,1.5784,1.5784,1.5784,1.5784,1.5784,1.5784,1.5784,1.5784,1.5784,1.5784,1.5784,1.5784,0.0,1.5784,1.5784,1.5784,1.5784,1.5784,1.5784,1.5784,1.5784,1.5784,1.5784,1.5784,1.5784,1.6244,1.7037,1.8141,1.8956,1.9724,2.0773,2.1534,2.1712,1.9807,1.9852,1.9889,1.7304,1.7677,1.8549,1.787,1.9131,2.0245,1.9376,1.9684,2.0016,1.954,2.092,2.1923,2.121,2.1534,2.1807,2.1562,1.9606,1.8086,1.7837,1.6133,1.4776,1.4166,1.4088,1.4088,1.4088,1.3935,1.3841,1.3841,1.3687,1.3594,1.3594,1.3594,1.3594,1.3594,1.3594,1.3674,1.3841,1.3841,1.3928,1.4088,1.4088,1.4088,1.4115,1.4646,1.5055,1.5022,1.4743,1.4326,1.374,1.3287,1.2719,1.1562,1.1543,1.1484,1.068,1.1456,1.2458,1.3106,0.0,1.4779,1.5658,1.4854,1.4561,1.5683,1.4806,1.4609,1.5683,1.5784,1.5784,1.5784,1.5784,1.5784,1.5784,1.5784,1.5784,1.5784,1.5784,1.5784,1.5784,1.5784,1.5784,1.5784,1.5784,1.5784,1.5784,1.5784,1.5784,1.5784,1.5784,0.0,1.5784,1.5784,1.5784,1.5784,1.5784,1.5784,1.5784,1.5784,1.5784,1.5784,1.5784,1.5784,1.6197,1.8672,1.9497,1.9951,2.2369,2.3091,2.2862,2.1658,2.044,1.9222,1.8002,1.7544,1.7458,1.7458,1.8365,1.9222,1.9039,1.9131,1.9133,1.8726,2.0535,2.1631,2.0166,2.0861,2.1553,2.1495,1.9658,1.8205,1.8164,1.5862,1.4202,1.4202,1.4202,1.4202,1.4202,1.4168,1.4142,1.4142,1.4108,1.4088,1.4088,1.4088,1.4088,1.4088,1.4088,1.4088,1.4088,1.4088,1.4088,1.4088,1.4088,1.4088,1.4707,1.5057,1.5264,1.5068,1.4743,1.4326,1.374,1.2846,0.0,0.0,1.0948,1.0693,1.0267,1.1156,1.2254,1.3073,1.3948,1.4779,1.5658,1.5635,1.554,0.0,1.5581,1.5581,1.5784,1.5784,0.0,0.0,1.5784,1.5784,1.5784,1.5784,1.5784,1.5784,1.5784,1.5784,1.5784,1.5784,1.5784,1.5784,1.5784,1.5784,1.5784,1.5784,1.5784,1.5784,1.5784,0.0,1.5784,1.5784,1.5784,1.5784,1.5784,1.5784,1.5784,1.5784,1.5784,1.5784,1.5784,1.5784,1.6197,1.8672,1.9497,1.9951,2.2369,2.3091,2.2862,2.1658,2.044,1.9222,1.8002,1.6897,1.6109,1.6109,1.7077,1.7731,1.6662,1.7264,1.7987,1.7933,1.9042,1.9923,1.9631,1.9757,1.979,1.9387,1.8233,1.7286,1.6932,1.5692,1.4854,1.4854,1.4854,1.4854,1.4854,1.4583,1.4442,1.4442,1.4222,1.4088,1.4088,1.4088,1.4088,1.4088,1.4088,1.4088,1.4088,1.4088,1.4088,1.4088,1.4088,1.4088,1.507,1.5398,1.5551,1.5264,1.485,1.4282,1.338,0.0,0.0,1.0494,1.0231,1.0043,0.9684,1.0621,1.165,1.2392,1.326,1.4202,1.5231,1.5378,1.5491,1.5792,1.5784,1.5784,1.5784,1.5784,1.5784,1.5784,1.5784,1.5784,1.5784,1.5784,1.5784,1.5784,1.5784,1.5784,1.5784,1.5784,1.5784,1.5784,1.5784,1.5784,1.5784,1.5784,1.5784,1.5784,1.5784,0.0,1.5784,1.5784,1.5784,1.5784,1.5784,1.5784,1.5784,1.5784,1.5784,1.5784,1.5784,1.5784,1.6103,1.7948,1.9001,1.9951,2.2369,2.3091,2.2862,2.1658,2.044,1.9222,1.8002,1.6763,1.5784,1.5784,1.6244,1.6527,1.592,1.6803,1.7505,1.685,1.8218,1.9314,1.868,1.9085,1.943,1.9212,1.8199,1.7378,1.7175,1.6134,1.5297,1.5042,1.5008,1.5008,1.5008,1.4836,1.475,1.475,1.4623,1.4586,1.4586,1.4586,1.4586,1.4586,1.4586,1.4586,1.4586,1.4586,1.4586,1.4586,1.4586,1.4586,1.5317,1.5611,1.5698,1.5391,1.4863,1.4115,1.2958,1.1917,0.0,0.99,0.9633,0.9532,0.9337,1.0194,1.1169,0.0,1.2665,1.3539,1.4428,1.4875,1.5153,1.538,1.5635,0.0,1.5784,1.5784,0.0,1.5919,1.5925,0.0,1.5784,1.5784,1.5784,1.5784,1.5784,1.5784,1.5784,1.5784,1.5784,1.5784,1.5784,1.5784,1.5784,1.5784,1.5784,1.5784,1.5784,0.0,0.0,1.5784,1.5784,1.5784,1.5784,1.5784,1.5784,1.5784,1.5784,1.5784,1.5784,1.5784,1.6015,1.7271,1.8503,1.9906,2.2041,2.2906,2.2862,2.1658,2.044,1.9222,1.8002,1.6763,1.5784,1.5784,1.5784,1.5784,1.5784,1.6574,1.699,1.5967,1.739,1.8395,1.7451,1.8087,1.8718,1.8718,1.7902,1.7271,1.7271,1.6433,1.5658,1.5197,1.515,1.515,1.515,1.5142,1.5102,1.5102,1.5042,1.5008,1.5008,1.5008,1.5008,1.5008,1.5008,1.5008,1.5008,1.5008,1.5008,1.5008,1.5008,1.5008,1.5317,1.5611,1.5698,1.5137,1.4563,1.3814,1.2619,0.0,1.0486,0.9842,0.9472,0.9324,0.9599,1.0198,1.1002,1.2084,0.0,1.3199,1.3192,1.4434,1.5046,1.4184,0.0,0.0,1.5784,1.5784,1.5939,1.6213,1.6233,0.0,1.5798,1.5784,1.5784,1.5784,1.5784,1.5784,1.5784,1.5784,1.5784,1.5784,1.5784,1.5784,1.5784,1.5784,1.5784,1.5784,1.5784,0.0,0.0,1.5784,1.5784,1.5784,1.5784,1.5784,1.5784,1.5784,1.5784,1.5784,1.5784,1.5784,1.6015,1.7271,1.8503,1.9761,2.1069,2.2217,2.2862,2.1658,2.044,1.9222,1.8002,1.6763,1.5784,1.5784,1.5784,1.5784,1.5784,1.5872,1.592,1.5825,1.5967,1.6103,1.5967,1.6062,1.615,1.615,1.6062,1.5967,1.5967,1.5872,1.5758,1.5711,1.5752,1.5752,1.5752,1.5504,1.5357,1.5357,1.511,1.5008,1.5008,1.5008,1.5008,1.5008,1.5008,1.5008,1.5008,1.5008,1.5008,1.5008,1.5008,1.5008,1.5271,1.5611,1.5691,1.511,1.4566,1.3774,1.2579,1.143,1.0425,0.9836,0.9305,0.9125,0.9593,0.9903,1.022,0.0,1.1057,1.1468,1.2123,1.2894,1.368,1.4479,1.5173,0.0,0.0,0.0,1.6146,1.6315,0.0,0.0,1.5798,1.5784,1.5784,1.5784,1.5784,1.5784,1.5784,1.5784,1.5784,1.5784,1.5784,1.5784,1.5784,1.5784,1.5784,1.5784,1.5784,0.0,0.0,1.5784,1.5784,1.5784,1.5784,1.5784,1.5784,1.5784,1.5784,1.5784,1.5784,1.5784,1.5872,1.6386,1.7404,1.8772,2.0702,2.1123,2.0989,2.1248,1.9898,1.8457,1.8726,1.7863,1.6763,1.5967,1.5784,1.5784,1.5784,1.5784,1.5784,1.5784,1.5784,1.5784,1.5784,1.5784,1.5784,1.5784,1.5784,1.5784,1.5784,1.5784,1.5784,1.5784,1.5784,1.5784,1.5784,1.5678,1.5658,1.5658,1.5545,1.5484,1.5484,1.5484,1.5484,1.5484,1.5484,1.5484,1.5484,1.5484,1.5484,1.5484,1.5484,1.5484,1.4977,1.5351,1.5478,1.5109,1.4456,1.3667,1.2552,1.143,1.0425,0.9836,0.9218,0.8985,0.9601,0.9715,0.9752,0.0,0.9974,1.0314,1.1141,1.1828,1.2808,1.4225,0.0,1.5591,0.0,1.638,1.6583,1.6583,0.0,0.0,1.6233,1.6052,1.5919,1.5784,1.5784,1.5784,1.5784,1.5784,1.5784,1.5784,1.5784,1.5784,1.5784,1.5784,1.5784,1.5784,1.5784,0.0,0.0,1.5784,1.5784,1.5784,1.5784,1.5784,1.5784,1.5784,1.5784,1.5784,1.5784,1.5784,1.5784,1.5784,1.6433,1.7544,1.9625,1.9898,1.9579,2.0079,1.8718,1.7311,1.8172,1.7762,1.6897,1.6015,1.5784,1.5784,1.5784,1.5784,1.5784,1.5784,1.5784,1.5784,1.5784,1.5784,1.5784,1.5784,1.5784,1.5784,1.5784,1.5784,1.5784,1.5784,1.5784,1.5784,1.5784,1.5784,1.5784,1.5784,1.5784,1.5784,1.5784,1.5784,1.5784,1.5784,1.5784,1.5784,1.5784,1.5784,1.5784,1.5784,1.5784,1.5784,1.4369,1.4743,1.5015,1.5008,1.4302,1.3373,1.2512,1.143,1.0425,0.9836,0.9218,0.8985,0.9601,0.9715,0.9752,0.9883,1.0196,1.0349,1.0233,1.1584,1.2713,0.0,0.0,1.5511,1.5758,1.6627,1.7192,1.7192,0.0,0.0,1.7186,1.6636,1.6132,1.5791,1.5784,1.5784,1.5784,1.5784,1.5784,1.5784,1.5784,1.5784,1.5784,1.5784,1.5784,0.0,0.0,0.0,0.0,1.5784,1.5784,1.5784,1.5784,1.5784,1.5784,1.5784,1.5784,1.5784,1.5784,1.5784,1.5784,1.5784,1.5832,1.6062,1.7365,1.8549,1.9268,1.8048,1.6803,1.5825,1.5825,1.5832,1.5825,1.5784,1.5784,1.5784,1.5784,1.5784,1.5784,1.5784,1.5784,1.5784,1.5784,1.5784,1.5784,1.5784,1.5784,1.5784,1.5784,1.5784,1.5784,1.5784,1.5784,1.5784,1.5784,1.5784,1.5784,1.5784,1.5784,1.5784,1.5784,1.5784,1.5784,1.5784,1.5784,1.5784,1.5784,1.5784,1.5784,1.5784,1.5784,1.5784,1.3239,1.3674,1.3961,1.3594,1.3086,1.2492,1.161,1.0808,1.0087,0.9471,0.9051,0.8985,0.9601,0.9715,0.9881,1.0426,0.0,0.0,0.0,0.0,0.0,1.2777,1.4895,1.6406,0.0,0.0,1.7414,0.0,0.0,0.0,1.6854,1.648,1.6226,1.6139,1.5939,1.5784,1.5784,1.5784,1.5784,1.5784,1.5784,1.5784,1.5784,1.5784,1.5784,0.0,0.0,0.0,0.0,1.5784,1.5784,1.5784,1.5784,1.5784,1.5784,1.5784,1.5784,1.5784,1.5784,1.5784,1.5784,1.5784,1.5784,1.5879,1.6292,1.6662,1.6882,1.652,1.6763,1.6897,1.6015,1.6433,1.6904,1.6015,1.5784,1.5784,1.5784,1.5784,1.5784,1.5784,1.5784,1.5784,1.5784,1.5784,1.5784,1.5784,1.5784,1.5784,1.5784,1.5784,1.5784,1.5784,1.5784,1.5784,1.5784,1.5784,1.5784,1.5784,1.5784,1.5784,1.5784,1.5784,1.5784,1.5784,1.5784,1.5784,1.5784,1.5784,1.5784,1.5784,1.5784,1.5784,1.2254,1.2772,1.3073,1.2851,1.2476,1.1937,1.1169,1.0541,0.9917,0.9331,0.8984,0.8951,0.9432,0.9313,0.9343,1.0002,0.9999,0.0,0.0,0.0,0.0,1.3736,0.0,0.0,0.0,1.7467,1.7508,0.0,0.0,0.0,1.6881,1.6493,1.6321,1.6321,1.5985,1.5784,1.5784,1.5784,1.5784,1.5784,1.5784,1.5784,1.5784,1.5784,1.5784,0.0,0.0,0.0,0.0,1.5784,1.5784,1.5784,1.5784,1.5784,1.5784,1.5784,1.5784,1.5784,1.5784,1.5784,1.5784,1.5784,1.5784,1.5784,1.5784,1.5784,1.5784,1.5784,1.6386,1.6803,1.6015,1.6386,1.6763,1.5967,1.5784,1.5784,1.5784,1.5784,1.5784,1.5784,1.5784,1.5784,1.5784,1.5784,1.5784,1.5784,1.5784,1.5784,1.5784,1.5784,1.5784,1.5784,1.5784,1.5784,1.5784,1.5784,1.5784,1.5784,1.5784,1.5784,1.5784,1.5784,1.5784,1.5784,1.5784,1.5784,1.5784,1.5784,1.5784,1.5784,1.5784,1.5784,0.0,1.1911,1.2204,1.2502,1.2154,1.1598,1.0995,1.0448,0.0,0.9297,0.8964,0.8911,0.9211,0.8692,0.8404,0.9029,0.8836,0.0,0.0,1.1958,0.0,0.0,1.6104,0.0,1.7172,1.7474,0.0,0.0,0.0,0.0,1.7199,1.6643,1.6321,1.6321,1.5985,1.5784,1.5784,1.5784,1.5784,1.5784,1.5784,1.5784,1.5784,1.5784,1.5784,0.0,0.0,0.0,0.0,1.5784,1.5784,1.5784,1.5784,1.5784,1.5784,1.5784,1.5784,1.5784,1.5784,1.5784,1.5784,1.5784,1.5784,1.5784,1.5784,1.5784,1.5784,1.5784,1.5784,1.5784,1.5784,1.5784,1.5832,1.5804,1.5798,1.5791,1.5804,1.5798,1.5791,1.5804,1.5798,1.5791,1.5811,1.5798,1.5784,1.5784,1.5784,1.5784,1.5784,1.5784,1.5784,1.5784,1.5784,1.5784,1.5784,1.5784,1.5784,1.5784,1.5784,1.5784,1.5784,1.5784,1.5784,1.5784,1.5784,1.5784,1.5784,1.5784,1.5784,1.5784,1.5784,1.5784,0.9737,0.0,1.0595,1.0472,1.0332,1.01,0.0,0.9517,0.9317,0.8958,0.8851,0.9031,0.9744,0.9034,0.8839,1.0284,0.0,1.0797,1.0865,0.0,0.0,1.4911,1.6187,1.7139,1.7442,1.7542,0.0,0.0,0.0,1.7199,1.7199,1.6643,1.6321,1.6321,1.5985,1.5784,1.5784,1.5784,1.5784,1.5784,1.5784,1.5784,1.5784,1.5784,1.5784,0.0,0.0,0.0,1.5784,1.5784,1.5784,1.5784,1.5784,1.5784,1.5784,1.5784,1.5784,1.5784,1.5784,1.5784,1.5784,1.5784,1.5784,1.5784,1.5784,1.5784,1.5784,1.5784,1.5784,1.5784,1.5784,1.5784,1.5838,1.6112,1.5999,1.5892,1.6119,1.5985,1.5899,1.6126,1.5985,1.5905,1.6126,1.5979,1.5784,1.5784,1.5784,1.5784,1.5784,1.5784,1.5784,1.5784,1.5784,1.5784,1.5784,1.5784,1.5784,1.5784,1.5784,1.5784,1.5784,1.5784,1.5784,1.5784,1.5784,1.5784,1.5784,1.5784,1.5784,1.5784,1.5784,1.5784,0.9011,0.9666,1.0281,1.0157,1.0117,1.0037,0.9677,0.9404,0.9131,0.8871,0.8804,0.8991,0.957,0.9032,0.8874,0.0,1.0772,0.0,0.0,0.0,1.5091,1.5607,1.6598,1.732,0.0,0.0,0.0,0.0,0.0,1.6938,1.6804,1.6313,1.6072,1.6072,1.5912,1.5784,1.5784,1.5784,1.5784,1.5784,1.5784,1.5784,1.5784,1.5784,1.5784,0.0,0.0,0.0,1.5784,1.5784,1.5784,1.5784,1.5784,1.5784,1.5784,1.5784,1.5784,1.5784,1.5784,1.5784,1.5784,1.5784,1.5784,1.5784,1.5784,1.5925,1.6032,1.6032,1.6032,1.6066,1.6199,1.6233,1.6273,1.6433,1.6346,1.6273,1.644,1.6346,1.6279,1.644,1.6339,1.6279,1.6446,1.6339,1.6233,1.6233,1.6233,1.6233,1.6233,1.6233,1.6179,1.6046,1.6032,1.5979,1.5791,1.5784,1.5784,1.5784,1.5784,1.5784,1.5784,1.5784,1.5784,1.5784,1.5784,1.5784,1.5784,1.5784,1.5784,1.5784,1.5784,1.5784,0.8918,0.9762,1.0546,1.0372,1.0425,1.0432,1.006,0.0,0.0,0.0,0.0,0.0,0.0,0.9118,0.0,0.0,0.0,0.0,1.4293,1.5551,1.6313,1.6607,1.6991,0.0,0.0,0.0,0.0,0.0,0.0,1.6533,1.6286,1.5992,1.5784,1.5784,1.5784,1.5784,1.5784,1.5784,1.5784,1.5784,1.5784,1.5784,1.5784,1.5784,1.5784,1.5784,0.0,0.0,1.5784,1.5784,1.5784,1.5784,1.5784,1.5784,1.5784,1.5784,1.5784,1.5784,1.5784,1.5784,1.5784,1.5784,1.5784,1.5791,1.5838,1.6072,1.6342,1.6429,1.6422,1.6393,1.664,1.6707,1.6714,1.676,1.674,1.6714,1.6767,1.674,1.672,1.6767,1.6734,1.672,1.6767,1.6734,1.6707,1.6707,1.6707,1.6707,1.6707,1.6707,1.6613,1.6366,1.6339,1.6219,1.5919,1.5899,1.5831,1.5784,1.5784,1.5784,1.5784,1.5784,1.5784,1.5784,1.5784,1.5784,1.5784,1.5784,1.5784,1.5784,1.5784,1.5784,0.9412,1.0077,1.0352,0.9325,0.9633,1.0047,0.9471,0.9499,0.0,0.0,0.0,0.0,0.0,1.0257,1.0153,0.0,0.0,1.3137,0.0,0.0,1.6005,1.6306,0.0,0.0,0.0,0.0,0.0,0.0,0.0,1.6319,1.6279,1.5992,1.5784,1.5784,1.5784,1.5784,1.5784,1.5784,1.5784,1.5784,1.5784,1.5784,1.5784,1.5784,1.5784,1.5784,0.0,1.5784,1.5784,1.5784,1.5784,1.5784,1.5784,1.5784,1.5784,1.5784,1.5784,1.5784,1.5784,1.5784,1.5784,1.5784,1.5784,1.5831,1.6126,1.6239,1.6422,1.6924,1.6884,1.6647,1.6693,1.6707,1.6767,1.7072,1.6894,1.6774,1.7079,1.6881,1.678,1.7085,1.6881,1.6787,1.7092,1.6874,1.6707,1.6707,1.6707,1.6707,1.6707,1.6707,1.6687,1.6647,1.664,1.652,1.6226,1.6206,1.6099,1.5798,1.5784,1.5784,1.5784,1.5784,1.5784,1.5784,1.5784,1.5784,1.5784,1.5784,1.5784,1.5784,1.5784,1.5784,0.9138,0.9753,1.0154,0.9452,1.006,1.0723,1.045,1.0287,0.0,0.0,0.0,0.0,0.0,0.0,1.1694,1.2932,0.0,1.3787,1.5199,1.5785,1.6119,0.0,0.0,0.0,0.0,0.0,0.0,0.0,0.0,0.0,1.6039,1.5905,1.5784,1.5784,1.5784,1.5784,1.5784,1.5784,1.5784,1.5784,1.5784,1.5784,1.5784,1.5784,1.5784,1.5784,0.0,1.5784,1.5784,1.5784,1.5784,1.5784,1.5784,1.5784,1.5784,1.5784,1.5784,1.5784,1.5784,1.5932,1.6072,1.6072,1.6172,1.6333,1.6466,1.662,1.6851,1.7125,1.7099,1.6981,1.7134,1.7181,1.7215,1.74,1.7281,1.7215,1.7407,1.7275,1.7221,1.7414,1.7275,1.7221,1.7414,1.7268,1.7181,1.7181,1.7181,1.7181,1.7181,1.7181,1.7121,1.7012,1.6947,1.6827,1.6533,1.6506,1.6313,1.5811,1.5784,1.5784,1.5784,1.5784,1.5784,1.5784,1.5784,1.5784,1.5784,1.5784,1.5784,1.5784,1.5784,1.5784,0.9078,0.9606,1.0094,1.0013,1.0661,1.1309,1.1375,1.1136,1.0921,0.0,0.0,0.0,0.0,1.2331,0.0,1.4609,1.446,1.45,1.5358,1.5885,1.6166,1.6166,0.0,0.0,0.0,0.0,0.0,0.0,0.0,0.0,1.5791,1.5784,1.5784,1.5784,1.5784,1.5784,1.5784,1.5784,1.5784,1.5784,1.5784,1.5784,1.5784,1.5784,1.5784,1.5784,1.5784,1.5784,1.5784,1.5784,1.5784,1.5784,1.5784,1.5784,1.5784,1.5784,1.5872,1.5932,1.5932,1.6126,1.6373,1.6373,1.6526,1.672,1.6787,1.7018,1.7213,1.7286,1.73,1.7353,1.7522,1.7582,1.7582,1.7582,1.7582,1.7582,1.7582,1.7582,1.7582,1.7582,1.7582,1.7582,1.7582,1.7582,1.7582,1.7582,1.7582,1.7582,1.7582,1.7582,1.7495,1.7326,1.73,1.7186,1.6834,1.6747,1.6513,1.6066,1.5972,1.5932,1.5932,1.5818,1.5784,1.5784,1.5784,1.5784,1.5784,1.5784,1.5784,1.5784,1.5784,1.5784,0.9844,1.0037,1.0241,1.0768,1.0962,1.1096,1.1329,1.161,1.1886,1.2124,0.0,0.0,0.0,1.3587,1.4663,1.5538,1.5677,1.5704,1.5751,0.0,1.5865,1.5865,0.0,0.0,0.0,0.0,0.0,0.0,0.0,0.0,1.5784,1.5784,1.5784,1.5784,1.5784,1.5784,1.5784,1.5784,1.5784,1.5784,1.5784,1.5784,1.5784,1.5784,1.5784,1.5784,1.5784,1.5784,1.5784,1.5784,1.5784,1.5784,1.5784,1.5784,1.5784,1.5784,1.6005,1.6239,1.6239,1.6433,1.6673,1.6673,1.6687,1.676,1.7085,1.7186,1.7259,1.7475,1.7549,1.7555,1.7575,1.7582,1.7582,1.7582,1.7582,1.7582,1.7582,1.7582,1.7582,1.7582,1.7582,1.7582,1.7582,1.7582,1.7582,1.7582,1.7582,1.7582,1.7582,1.7582,1.7575,1.7555,1.7549,1.7435,1.7192,1.6867,1.6687,1.6647,1.6393,1.6239,1.6239,1.5979,1.5784,1.5784,1.5784,1.5784,1.5784,1.5784,1.5784,1.5784,1.5784,1.5784,0.9484,0.981,1.0214,1.0653,1.0995,0.0,0.0,1.2485,1.2839,1.3313,1.35,0.0,0.0,0.0,1.4963,1.5478,1.5712,1.5784,1.5784,1.5784,0.0,0.0,0.0,0.0,0.0,0.0,0.0,0.0,0.0,0.0,1.5784,1.5784,1.5784,1.5784,1.5784,1.5784,1.5784,1.5784,1.5784,1.5784,1.5784,1.5784,1.5784,1.5784,1.5784,1.5784,1.5784,1.5784,1.5784,1.5784,1.5784,1.5784,1.5784,1.5784,1.5852,1.6039,1.6179,1.6299,1.648,1.6734,1.7032,1.7032,1.7101,1.7275,1.7434,1.7474,1.7494,1.7549,1.7582,1.7582,1.7582,1.7582,1.7582,1.7582,1.7582,1.7582,1.7582,1.7582,1.7582,1.7582,1.7582,1.7582,1.7582,1.7582,1.7582,1.7582,1.7582,1.7582,1.7582,1.7582,1.7582,1.7582,1.7582,1.7542,1.7481,1.7315,1.7248,1.7248,1.6807,1.646,1.6328,1.6166,1.6019,1.5784,1.5784,1.5784,1.5784,1.5784,1.5784,1.5784,1.5784,1.5784,0.9377,0.971,1.0187,1.0519,0.0,0.0,1.2806,1.3193,1.354,1.4222,1.4289,1.4342,1.4723,0.0,0.0,0.0,1.5698,1.5784,1.5784,0.0,0.0,0.0,0.0,0.0,0.0,0.0,0.0,0.0,0.0,0.0,0.0,1.5784,1.5784,1.5784,1.5784,1.5784,1.5784,1.5784,1.5784,1.5784,1.5784,1.5784,1.5784,1.5784,1.5784,1.5784,1.5784,1.5784,1.5784,1.5784,1.5784,1.5784,1.5784,1.5838,1.5999,1.6199,1.6442,1.663,1.678,1.7041,1.734,1.734,1.7474,1.7582,1.7582,1.7582,1.7582,1.7582,1.7582,1.7582,1.7582,1.7582,1.7582,1.7582,1.7582,1.7582,1.7582,1.7582,1.7582,1.7582,1.7582,1.7582,1.7582,1.7582,1.7582,1.7582,1.7582,1.7582,1.7582,1.7582,1.7582,1.7582,1.7582,1.7582,1.7582,1.7582,1.7582,1.7582,1.7208,1.6854,1.661,1.646,1.6313,1.6112,1.6057,1.6057,1.6057,1.6057,1.6057,1.6057,1.6057,1.6057,0.976,0.9893,1.0187,1.0519,0.0,0.0,1.334,1.3613,1.386,1.479,1.4736,1.4703,1.5291,1.5164,0.0,1.5732,1.5778,1.5784,1.5784,0.0,0.0,0.0,0.0,0.0,0.0,0.0,0.0,0.0,0.0,0.0,0.0,1.5784,1.5784,1.5784,1.5784,1.5784,1.5784,1.5784,1.5784,1.5784,1.5784,1.5784,1.5784,1.5784,1.5784,1.5784,1.5784,1.5784,1.5784,1.5784,1.5784,1.5784,1.5784,1.6012,1.6321,1.6279,1.6697,1.7199,1.7206,1.7393,1.7582,1.7582,1.7582,1.7582,1.7582,1.7582,1.7582,1.7582,1.7582,1.7582,1.7582,1.7582,1.7582,1.7582,1.7582,1.7582,1.7582,1.7582,1.7582,1.7582,1.7582,1.7582,1.7582,1.7582,1.7582,1.7582,1.7582,1.7582,1.7582,1.7582,1.7582,1.7582,1.7582,1.7582,1.7582,1.7582,1.7582,1.7582,1.7582,1.7507,1.7213,1.6867,1.6707,1.6707,1.6707,1.6707,1.6707,1.6707,1.6707,1.6707,1.6707,1.6707,0.9424,0.971,1.0241,1.0742,0.0,0.0,0.0,1.4219,0.0,0.0,1.5337,1.519,1.5364,1.5324,0.0,1.5498,1.5698,1.5784,0.0,0.0,0.0,0.0,0.0,0.0,0.0,0.0,0.0,0.0,0.0,0.0,0.0,1.5784,1.5784,1.5784,1.5784,1.5784,1.5784,1.5784,1.5784,1.5784,1.5784,1.5784,1.5784,1.5784,1.5784,1.5784,1.5784,1.5784,1.5784,1.5784,1.5784,1.5784,1.5784,1.6012,1.6299,1.6506,1.682,1.7233,1.7434,1.7508,1.7582,1.7582,1.7582,1.7582,1.7582,1.7582,1.7582,1.7582,1.7582,1.7582,1.7582,1.7582,1.7582,1.7582,1.7582,1.7582,1.7582,1.7582,1.7582,1.7582,1.7582,1.7582,1.7582,1.7582,1.7582,1.7582,1.7582,1.7582,1.7582,1.7582,1.7582,1.7582,1.7582,1.7582,1.7582,1.7582,1.7582,1.7582,1.7582,1.7507,1.7213,1.7112,1.6921,1.6707,1.6707,1.6707,1.6707,1.6707,1.6707,1.6707,1.6707,1.6707,0.9577,0.9933,1.0461,1.1162,1.2174,1.3306,1.4576,0.0,0.0,0.0,1.5598,1.5431,1.5545,1.5478,0.0,1.5545,1.5712,1.5784,0.0,0.0,0.0,0.0,0.0,0.0,0.0,0.0,0.0,0.0,0.0,0.0,0.0,1.5784,1.5784,1.5784,1.5784,1.5784,1.5784,1.5784,1.5784,1.5784,1.5784,1.5784,1.5784,1.5784,1.5784,1.5784,1.5784,1.5784,1.5784,1.5784,1.5784,1.5784,1.5784,1.6012,1.6306,1.66,1.6894,1.7246,1.7534,1.7582,1.7582,1.7582,1.7582,1.7582,1.7582,1.7582,1.7582,1.7582,1.7582,1.7582,1.7582,1.7582,1.7582,1.7582,1.7582,1.7582,1.7582,1.7582,1.7582,1.7582,1.7582,1.7582,1.7582,1.7582,1.7582,1.7582,1.7582,1.7582,1.7582,1.7582,1.7582,1.7582,1.7582,1.7582,1.7582,1.7582,1.7582,1.7582,1.7582,1.7554,1.738,1.7373,1.7235,1.7054,1.7054,1.7054,1.7054,1.7054,1.7054,1.7054,1.7054,1.7054,1.0007,1.0334,1.0841,1.1725,1.2645,0.0,1.5117,1.5645,1.5784,1.5784,0.0,1.5518,1.5785,1.5611,1.5524,1.5738,1.5784,0.0,0.0,0.0,0.0,0.0,0.0,0.0,0.0,0.0,0.0,0.0,0.0,0.0,0.0,1.5784,1.5784,1.5784,1.5784,1.5784,1.5784,1.5784,1.5784,1.5784,1.5784,1.5784,1.5784,1.5784,1.5784,1.5784,1.5784,1.5784,1.5784,1.5784,1.5784,1.5784,1.5784,1.6012,1.6306,1.66,1.6894,1.7246,1.7534,1.7582,1.7582,1.7582,1.7582,1.7582,1.7582,1.7582,1.7582,1.7582,1.7582,1.7582,1.7582,1.7582,1.7582,1.7582,1.7582,1.7582,1.7582,1.7582,1.7582,1.7582,1.7582,1.7582,1.7582,1.7582,1.7582,1.7582,1.7582,1.7582,1.7582,1.7582,1.7582,1.7582,1.7582,1.7582,1.7582,1.7582,1.7582,1.7582,1.7582,1.7582,1.7582,1.7582,1.7582,1.7582,1.7582,1.7582,1.7582,1.7582,1.7582,1.7582,1.7582,1.7582,0.976,1.0327,0.0,1.1991,1.3407,1.479,1.5565,1.5738,1.5784,1.5784,1.5731,1.5752,1.5771,1.5731,1.5711,1.5771,1.5784,0.0,0.0,0.0,0.0,0.0,0.0,0.0,0.0,0.0,0.0,0.0,0.0,0.0,1.5784,1.5784,1.5784,1.5784,1.5784,1.5784,1.5784,1.5784,1.5784,0.0,1.5784,1.5784,1.5784,1.5784,1.5784,1.5784,1.5784,1.5784,1.5784,1.5784,1.5784,1.5784,1.5784,1.6012,1.6306,1.66,1.6894,1.7246,1.7534,1.7582,1.7582,1.7582,1.7582,1.7582,1.7582,1.7582,1.7582,1.7582,1.7582,1.7582,1.7582,1.7582,1.7582,1.7582,1.7582,1.7582,1.7582,1.7582,1.7582,1.7582,1.7582,1.7582,1.7582,1.7582,1.7582,1.7582,1.7582,1.7582,1.7582,1.7582,1.7582,1.7582,1.7582,1.7582,1.7582,1.7582,1.7582,1.7582,1.7582,1.7582,1.7582,1.7582,1.7582,1.7582,1.7582,1.7582,1.7582,1.7582,1.7582,1.7582,1.7582,1.7582,0.974,0.0,0.0,1.2585,0.0,1.5122,1.5524,1.5732,1.5784,1.5784,1.5784,1.5784,1.5784,1.5784,1.5784,1.5784,0.0,0.0,0.0,0.0,0.0,0.0,0.0,0.0,0.0,0.0,0.0,0.0,0.0,1.5784,1.5784,1.5784,1.5784,1.5784,1.5784,1.5784,1.5784,1.5784,1.5784,1.5784,1.5784,1.5784,1.5784,1.5784,1.5784,1.5784,1.5784,1.5784,1.5784,1.5784,1.5784,1.5784,1.5784,1.6012,1.6306,1.66,1.6894,1.7246,1.7534,1.7582,1.7582,1.7582,1.7582,1.7582,1.7582,1.7582,1.7582,1.7582,1.7582,1.7582,1.7582,1.7582,1.7582,1.7582,1.7582,1.7582,1.7582,1.7582,1.7582,1.7582,1.7582,1.7582,1.7582,1.7582,1.7582,1.7582,1.7709,1.7802,1.7802,1.7802,1.7856,1.8003,1.7756,1.7642,1.7796,1.7669,1.7582,1.7582,1.7582,1.7582,1.7582,1.7582,1.7582,1.7582,1.7582,1.7582,1.7582,1.7582,1.7582,1.7582,1.7582,1.7582,0.9753,0.0,1.1357,1.32,1.4309,0.0,1.5317,1.5578,1.5718,1.5771,1.5784,1.5784,1.5784,1.5784,1.5784,0.0,0.0,0.0,0.0,0.0,0.0,0.0,0.0,0.0,0.0,0.0,0.0,0.0,0.0,1.5784,1.5784,1.5784,1.5784,1.5784,1.5784,1.5784,1.5784,1.5784,1.5784,1.5784,1.5784,1.5784,1.5784,1.5784,1.5784,1.5784,1.5784,1.5784,1.5784,1.5784,1.5784,1.5784,1.5784,1.6012,1.6306,1.66,1.6894,1.7246,1.7534,1.7582,1.7582,1.7582,1.7582,1.7582,1.7582,1.7582,1.7582,1.7582,1.7582,1.7582,1.7582,1.7622,1.7662,1.7662,1.7702,1.7722,1.7669,1.7662,1.7682,1.7729,1.7742,1.7742,1.7742,1.7742,1.7742,1.7742,1.7956,1.8069,1.8069,1.8069,1.8217,1.8464,1.8043,1.7842,1.8049,1.7889,1.7716,1.7662,1.7662,1.7642,1.7589,1.7582,1.7582,1.7582,1.7582,1.7582,1.7582,1.7582,1.7582,1.7582,1.7582,1.7582,0.9559,0.0,1.2385,0.0,1.4309,1.4723,0.0,0.0,1.5524,0.0,1.5784,1.5784,1.5784,1.5784,0.0,0.0,0.0,0.0,0.0,0.0,0.0,0.0,0.0,0.0,0.0,0.0,0.0,0.0,1.5784,1.5784,1.5784,1.5784,1.5784,1.5784,1.5784,1.5784,1.5784,1.5784,1.5784,1.5784,1.5784,1.5784,1.5784,1.5784,1.5784,1.5784,1.5784,1.5784,1.5784,1.5784,1.5784,1.5784,1.5784,1.6012,1.6306,1.66,1.6894,1.7246,1.7534,1.7582,1.7582,1.7582,1.7582,1.7582,1.7582,1.7582,1.7582,1.7582,1.7582,1.7582,1.7582,1.7782,1.7935,1.7935,1.8183,1.8303,1.7989,1.7935,1.8009,1.8317,1.837,1.837,1.837,1.837,1.837,1.837,1.8404,1.843,1.843,1.843,1.8444,1.849,1.8417,1.8384,1.843,1.839,1.8263,1.7949,1.7935,1.7862,1.7595,1.7582,1.7582,1.7582,1.7582,1.7582,1.7582,1.7582,1.7582,1.7582,1.7582,1.7582,0.9869,1.0975,1.2098,0.0,1.3941,1.4389,1.481,0.0,1.5237,1.5524,1.5585,1.5638,1.5751,1.5784,0.0,0.0,0.0,0.0,0.0,0.0,0.0,0.0,0.0,0.0,0.0,0.0,0.0,0.0,1.5784,1.5784,1.5784,1.5784,1.5784,1.5784,1.5784,1.5784,1.5784,1.5784,1.5784,1.5784,1.5784,1.5784,1.5784,1.5784,1.5784,1.5784,1.5784,1.5784,1.5784,1.5784,1.5784,1.5784,1.5784,1.6012,1.6306,1.66,1.6894,1.7246,1.7534,1.7582,1.7582,1.7582,1.7582,1.7582,1.7582,1.7582,1.7582,1.7582,1.7582,1.7622,1.7796,1.7889,1.8035,1.8257,1.8397,1.8504,1.8475,1.841,1.8337,1.8464,1.849,1.849,1.849,1.849,1.849,1.849,1.8631,1.8731,1.8731,1.8731,1.8798,1.8965,1.8691,1.8557,1.8718,1.8584,1.8437,1.8303,1.8297,1.8156,1.7856,1.7842,1.7762,1.7589,1.7582,1.7582,1.7582,1.7582,1.7582,1.7582,1.7582,1.7582,0.0,0.0,1.1342,1.2572,1.3313,1.3861,0.0,0.0,1.4888,0.0,1.5291,1.5378,1.5665,0.0,0.0,0.0,0.0,0.0,0.0,0.0,0.0,0.0,0.0,0.0,0.0,0.0,0.0,0.0,1.5784,1.5784,1.5784,1.5784,1.5784,1.5784,1.5784,1.5784,1.5784,1.5784,1.5784,1.5784,1.5784,1.5784,1.5784,1.5784,1.5784,1.5784,1.5784,1.5784,1.5784,1.5784,1.5784,1.5784,1.5784,1.6059,1.6413,1.6627,1.6941,1.734,1.7508,1.7582,1.7582,1.7582,1.7582,1.7582,1.7582,1.7582,1.7582,1.7582,1.7582,1.7655,1.7909,1.8049,1.8237,1.8531,1.8657,1.8751,1.8891,1.8811,1.8711,1.8711,1.8711,1.8711,1.8711,1.8711,1.8711,1.8711,1.8898,1.9038,1.9038,1.9038,1.9118,1.9345,1.8978,1.8798,1.9018,1.8838,1.8677,1.8604,1.8597,1.8464,1.8115,1.8102,1.805,1.7816,1.7736,1.7662,1.7582,1.7582,1.7582,1.7582,1.7582,1.7582,0.0,0.971,0.0,1.1678,1.2415,0.0,0.0,0.0,0.0,1.4914,1.5028,1.5122,0.0,0.0,0.0,0.0,0.0,0.0,0.0,0.0,0.0,0.0,0.0,0.0,0.0,0.0,0.0,0.0,1.5784,1.5784,1.5784,1.5784,1.5784,1.5784,1.5784,1.5784,1.5784,1.5784,1.5784,1.5784,1.5784,1.5784,1.5784,1.5784,1.5784,1.5784,1.5784,1.5784,1.5784,1.5784,1.5784,1.5784,1.5784,1.6179,1.6687,1.67,1.7068,1.7562,1.7582,1.7582,1.7582,1.7582,1.7582,1.7582,1.7582,1.7582,1.7582,1.7582,1.7582,1.7655,1.7909,1.8257,1.8544,1.8831,1.9118,1.9252,1.8985,1.9132,1.9325,1.9325,1.9325,1.9325,1.9325,1.9325,1.9325,1.9325,1.939,1.9345,1.9345,1.9345,1.941,1.9424,1.9339,1.9383,1.9339,1.939,1.9199,1.8918,1.8905,1.8771,1.8477,1.847,1.8464,1.8444,1.8163,1.7822,1.7582,1.7582,1.7582,1.7582,1.7582,1.7582,0.0,0.0,0.0,1.1062,1.1785,1.2355,1.2826,1.3387,1.3915,1.4315,1.4549,1.477,0.0,0.0,0.0,0.0,0.0,0.0,0.0,0.0,0.0,0.0,0.0,0.0,0.0,0.0,0.0,0.0,0.0,1.5784,1.5784,1.5784,1.5784,1.5784,1.5784,1.5784,1.5784,1.5784,1.5784,1.5784,1.5784,1.5784,1.5784,1.5784,1.5784,1.5784,1.5784,1.5784,1.5784,1.5784,1.5784,1.5784,1.5784,1.5911,1.6186,1.6567,1.684,1.7074,1.7448,1.7582,1.7582,1.7582,1.7582,1.7582,1.7582,1.7582,1.7582,1.7582,1.7716,1.7929,1.825,1.8551,1.8844,1.9138,1.9292,1.9397,1.9232,1.9292,1.9424,1.9424,1.9424,1.9424,1.9424,1.9424,1.9424,1.9424,1.9424,1.9424,1.9424,1.9424,1.9424,1.9424,1.9424,1.9424,1.9424,1.9424,1.9325,1.9219,1.9205,1.9078,1.8778,1.8771,1.8684,1.8497,1.8384,1.8183,1.7883,1.7675,1.7582,1.7582,1.7582,1.7582,0.8591,0.0,0.0,0.0,0.0,1.1483,1.2271,0.0,1.322,1.3814,1.4088,0.0,0.0,0.0,0.0,0.0,0.0,0.0,0.0,0.0,0.0,0.0,0.0,0.0,0.0,0.0,0.0,0.0,0.0,0.0,1.5784,1.5784,1.5784,1.5784,1.5784,1.5784,1.5784,1.5784,1.5784,1.5784,1.5784,1.5784,1.5784,1.5784,1.5784,1.5784,1.5784,1.5784,1.5784,1.5784,1.5784,1.5784,1.5784,1.5892,1.6025,1.6413,1.6687,1.6914,1.7353,1.7502,1.7582,1.7582,1.7582,1.7582,1.7582,1.7582,1.7602,1.7709,1.7876,1.8116,1.8531,1.8851,1.9125,1.9377,1.9424,1.9424,1.9424,1.9424,1.9424,1.9424,1.9424,1.9424,1.9424,1.9424,1.9424,1.9424,1.9424,1.9424,1.9424,1.9424,1.9424,1.9424,1.9424,1.9424,1.9424,1.9424,1.9424,1.9424,1.9424,1.9279,1.9078,1.9072,1.8978,1.8791,1.8684,1.8537,1.8282,1.7936,1.7736,1.7729,1.7629,1.7582,0.0,0.0,0.0,0.0,0.0,0.0,1.2301,0.0,1.2214,1.3307,1.3567,0.0,0.0,0.0,0.0,0.0,0.0,0.0,0.0,0.0,0.0,0.0,0.0,0.0,0.0,0.0,0.0,0.0,1.5784,1.5784,1.5784,1.5784,1.5784,1.5784,1.5784,1.5784,1.5784,1.5784,1.5784,1.5784,1.5784,1.5784,1.5784,1.5784,1.5784,1.5784,1.5784,1.5784,1.5784,1.5784,1.5784,1.5784,1.5784,1.6005,1.6308,1.6328,1.6697,1.7192,1.7206,1.74,1.7582,1.7582,1.7582,1.7582,1.7582,1.7582,1.7649,1.7902,1.8002,1.8142,1.8784,1.9152,1.9424,1.9424,1.9424,1.9424,1.9424,1.9424,1.9424,1.9424,1.9424,1.9424,1.9424,1.9424,1.9424,1.9424,1.9424,1.9424,1.9424,1.9424,1.9424,1.9424,1.9424,1.9424,1.9424,1.9424,1.9424,1.9424,1.9424,1.9424,1.9424,1.9424,1.9424,1.9424,1.9085,1.8938,1.8931,1.8288,1.7995,1.8023,1.7742,1.7609,0.8371,0.0,0.0,0.0,0.0,0.0,0.0,0.0,0.0,1.2314,0.0,0.0,0.0,0.0,0.0,0.0,0.0,0.0,0.0,0.0,0.0,0.0,0.0,0.0,0.0,0.0,0.0,0.0,1.5784,1.5784,1.5784,1.5784,1.5784,1.5784,1.5784,1.5784,1.5784,1.5784,1.5784,1.5784,1.5784,1.5784,1.5784,1.5784,1.5784,1.5784,1.5784,1.5784,1.5784,1.5784,1.5784,1.5784,1.5784,1.5879,1.6005,1.6433,1.6687,1.6887,1.7367,1.7515,1.7582,1.7582,1.7582,1.7582,1.7582,1.7582,1.7649,1.7902,1.8149,1.8504,1.9092,1.9305,1.9424,1.9424,1.9424,1.9424,1.9424,1.9424,1.9424,1.9424,1.9424,1.9424,1.9424,1.9424,1.9424,1.9424,1.9424,1.9424,1.9424,1.9424,1.9424,1.9424,1.9424,1.9424,1.9424,1.9424,1.9424,1.9424,1.9424,1.9424,1.9424,1.9424,1.9424,1.9424,1.9285,1.9245,1.9239,1.8657,1.8364,1.8357,1.8277,1.8237,0.8959,0.0,0.0,0.0,0.0,0.0,1.0178,1.0733,0.0,0.0,0.0,0.0,0.0,0.0,0.0,0.0,0.0,0.0,0.0,0.0,0.0,0.0,0.0,0.0,0.0,1.5578,1.5651,1.5651,1.5758,1.5784,1.5784,1.5784,1.5784,1.5784,1.5784,1.5784,1.5784,1.5784,1.5784,1.5784,1.5784,1.5784,1.5784,1.5784,1.5784,1.5784,1.5784,1.5784,1.5784,1.5784,1.5784,1.5784,1.5784,1.5784,1.5838,1.6353,1.66,1.6774,1.7241,1.7534,1.7582,1.7582,1.7582,1.7582,1.7582,1.7582,1.7675,1.811,1.8531,1.8938,1.9336,1.9424,1.9424,1.9424,1.9424,1.9424,1.9424,1.9424,1.9424,1.9424,1.9424,1.9424,1.9424,1.9424,1.9424,1.9424,1.9424,1.9424,1.9424,1.9424,1.9424,1.9424,1.9424,1.9424,1.9424,1.9424,1.9424,1.9424,1.9424,1.9424,1.9424,1.9424,1.9424,1.9424,1.9424,1.9424,1.9424,1.8898,1.8611,1.849,1.849,1.849,0.9818,0.0,0.0,0.0,0.0,0.0,1.0624,1.0456,1.0485,0.0,0.0,0.0,0.0,0.0,0.0,0.0,0.0,0.0,0.0,0.0,0.0,0.0,0.0,0.0,1.5008,1.5197,1.5351,1.5351,1.5618,1.5785,1.5785,1.5764,1.5784,1.5784,1.5784,1.5784,1.5784,1.5784,1.5784,1.5784,1.5784,1.5784,1.5784,1.5784,1.5784,1.5784,1.5784,1.5784,1.5784,1.5784,1.5784,1.5784,1.5784,1.5784,1.5824,1.6199,1.6486,1.6754,1.7132,1.742,1.7582,1.7582,1.7582,1.7582,1.7582,1.7582,1.7709,1.8317,1.8891,1.9325,1.9417,1.9424,1.9424,1.9424,1.9424,1.9424,1.9424,1.9424,1.9424,1.9424,1.9424,1.9424,1.9424,1.9424,1.9424,1.9424,1.9424,1.9424,1.9424,1.9424,1.9424,1.9424,1.9424,1.9424,1.9424,1.9424,1.9424,1.9424,1.9424,1.9424,1.9424,1.9424,1.9424,1.9424,1.9424,1.9424,1.9424,1.9098,1.8844,1.8591,1.8591,1.8591,0.0,0.0,0.0,0.0,0.0,0.0,0.9493,0.9918,1.0646,0.0,0.0,0.0,0.0,0.0,0.0,0.0,0.0,0.0,0.0,0.0,0.0,0.0,0.0,0.0,1.4988,1.5062,1.5095,1.5095,1.5317,1.5478,1.5478,1.5705,1.5784,1.5784,1.5784,1.5784,1.5784,1.5784,1.5784,1.5784,1.5784,1.5784,1.5784,1.5784,1.5784,1.5784,1.5784,1.5784,1.5784,1.5784,1.5784,1.5784,1.5784,1.5784,1.5844,1.6426,1.666,1.678,1.7315,1.7535,1.7582,1.7582,1.7582,1.7582,1.7582,1.7582,1.7709,1.8317,1.8738,1.9065,1.9305,1.9424,1.9424,1.9424,1.9424,1.9424,1.9424,1.9424,1.9424,1.9424,1.9424,1.9424,1.9424,1.9424,1.9424,1.9424,1.9424,1.9424,1.9424,1.9424,1.9424,1.9424,1.9424,1.9424,1.9424,1.9424,1.9424,1.9424,1.9424,1.9424,1.9424,1.9424,1.9424,1.9424,1.9424,1.9424,1.9424,1.9305,1.9252,1.9199,1.9199,1.9199,0.0,0.0,0.0,1.1807,0.0,0.0,0.0,1.0331,1.0587,1.0936,1.1998,1.2848,0.0,0.0,0.0,0.0,0.0,0.0,0.0,0.0,0.0,0.0,0.0,0.0,1.4295,1.4569,1.4803,1.4995,1.5142,1.5177,1.5177,1.5451,1.5611,1.5611,1.5752,1.5784,1.5784,1.5784,1.5784,1.5784,1.5784,1.5784,1.5784,1.5784,1.5784,1.5784,1.5784,1.5784,1.5784,1.5784,1.5784,1.5784,1.5784,1.5784,1.5851,1.6493,1.6707,1.6787,1.7375,1.7582,1.7582,1.7582,1.7582,1.7582,1.7582,1.7796,1.8096,1.8404,1.8804,1.9178,1.939,1.9424,1.9424,1.9424,1.9424,1.9424,1.9424,1.9424,1.9424,1.9424,1.9424,1.9424,1.9424,1.9424,1.9424,1.9424,1.9424,1.9424,1.9424,1.9424,1.9424,1.9424,1.9424,1.9424,1.9424,1.9424,1.9424,1.9424,1.9424,1.9424,1.9424,1.9424,1.9424,1.9424,1.9424,1.9424,1.9424,1.9424,1.9424,1.9424,1.9424,1.9424,0.0,0.0,0.0,0.0,0.0,1.1927,0.0,0.0,0.0,1.1249,0.0,0.0,0.0,0.0,0.0,0.0,0.0,0.0,0.0,0.0,0.0,0.0,0.0,0.0,0.0,1.3935,1.4349,1.4807,1.4733,1.4747,1.4914,1.5157,1.5337,1.5398,1.5625,1.5772,1.5784,1.5784,1.5784,1.5784,1.5784,1.5784,1.5784,1.5784,1.5784,1.5784,1.5784,1.5784,1.5784,1.5784,1.5784,1.5784,1.5784,1.5784,1.5851,1.6493,1.6707,1.6787,1.7375,1.7582,1.7582,1.7582,1.7582,1.7582,1.7582,1.7929,1.8343,1.8457,1.8831,1.9225,1.9397,1.9424,1.9424,1.9424,1.9424,1.9424,1.9424,1.9424,1.9424,1.9424,1.9424,1.9424,1.9424,1.9424,1.9424,1.9424,1.9424,1.9424,1.9424,1.9424,1.9424,1.9424,1.9424,1.9424,1.9424,1.9424,1.9424,1.9424,1.9424,1.9424,1.9424,1.9424,1.9424,1.9424,1.9424,1.9424,1.9424,1.9424,1.9424,1.9424,1.9424,1.9424,0.0,0.0,0.0,0.0,1.3826,0.0,0.0,0.0,1.0862,1.1602,0.0,0.0,0.0,0.0,0.0,0.0,0.0,0.0,0.0,0.0,0.0,0.0,0.0,0.0,0.0,1.3105,1.3333,1.4122,1.3707,1.3748,1.4529,1.485,1.513,1.5391,1.5431,1.5571,1.5778,1.5784,1.5784,1.5784,1.5784,1.5784,1.5784,1.5784,1.5784,1.5784,1.5784,1.5784,1.5784,1.5784,1.5784,1.5784,1.5784,1.5784,1.5851,1.6493,1.6707,1.6787,1.7375,1.7582,1.7582,1.7582,1.7582,1.7582,1.7582,1.7629,1.7796,1.8337,1.8537,1.8711,1.9232,1.9424,1.9424,1.9424,1.9424,1.9424,1.9424,1.9424,1.9424,1.9424,1.9424,1.9424,1.9424,1.9424,1.9424,1.9424,1.9424,1.9424,1.9424,1.9424,1.9424,1.9424,1.9424,1.9424,1.9424,1.9424,1.9424,1.9424,1.9424,1.9424,1.9424,1.9424,1.9424,1.9424,1.9424,1.9424,1.9424,1.9424,1.9424,1.9424,1.9424,1.9424,0.0,0.0,0.0,0.0,0.0,0.0,1.195,0.0,1.104,0.0,0.0,0.0,0.0,0.0,0.0,0.0,0.0,0.0,0.0,0.0,0.0,0.0,0.0,0.0,0.0,0.0,0.0,0.0,1.318,1.3253,1.3933,1.4449,1.4763,1.4883,1.5217,1.5451,1.5578,1.5698,1.5784,1.5784,1.5784,1.5784,1.5784,1.5784,1.5784,1.5784,1.5784,1.5784,1.5784,1.5784,1.5784,1.5784,1.5784,1.5784,1.5831,1.6299,1.656,1.6767,1.7188,1.7494,1.7582,1.7582,1.7582,1.7582,1.7582,1.7829,1.8163,1.8417,1.8738,1.9058,1.9299,1.9424,1.9424,1.9424,1.9424,1.9424,1.9424,1.9424,1.9424,1.9424,1.9424,1.9424,1.9424,1.9424,1.9424,1.9424,1.9424,1.9424,1.9424,1.9424,1.9424,1.9424,1.9424,1.9424,1.9424,1.9424,1.9424,1.9424,1.9424,1.9424,1.9424,1.9424,1.9424,1.9424,1.9424,1.9424,1.9424,1.9424,1.9424,1.9424,1.9424,1.9424,1.7578,0.0,0.0,0.0,0.0,0.0,0.0,0.0,0.0,0.0,0.0,0.0,0.0,0.0,0.0,0.0,0.0,0.0,0.0,0.0,0.0,0.0,0.0,0.0,0.0,0.0,0.0,0.0,0.0,1.271,1.3553,1.4006,1.4306,1.4472,1.501,1.5317,1.5398,1.5685,1.5784,1.5784,1.5784,1.5784,1.5784,1.5784,1.5784,1.5784,1.5784,1.5784,1.5784,1.5784,1.5784,1.5784,1.5784,1.5784,1.5818,1.6166,1.646,1.6747,1.7099,1.7393,1.7582,1.7582,1.7582,1.7582,1.7582,1.7943,1.8377,1.8464,1.8858,1.9265,1.9403,1.9424,1.9424,1.9424,1.9424,1.9424,1.9424,1.9424,1.9424,1.9424,1.9424,1.9424,1.9424,1.9424,1.9424,1.9424,1.9424,1.9424,1.9424,1.9424,1.9424,1.9424,1.9424,1.9424,1.9424,1.9424,1.9424,1.9424,1.9424,1.9424,1.9424,1.9424,1.9424,1.9424,1.9424,1.9424,1.9424,1.9424,1.9424,1.9424,1.9424,1.9424,0.0,0.0,0.0,1.6807,0.0,0.0,0.0,0.0,1.3447,0.0,0.0,0.0,0.0,0.0,0.0,0.0,0.0,0.0,0.0,0.0,0.0,0.0,0.0,0.0,0.0,0.0,0.0,0.0,0.0,0.0,1.3507,1.362,1.3893,1.4502,1.4816,1.5156,1.5391,1.5685,1.5784,1.5784,1.5784,1.5784,1.5784,1.5784,1.5784,1.5784,1.5784,1.5784,1.5784,1.5784,1.5784,1.5784,1.5784,1.5784,1.5818,1.6166,1.646,1.6747,1.7099,1.7393,1.7582,1.7582,1.7582,1.7582,1.7582,1.7789,1.8096,1.8404,1.8704,1.9005,1.9292,1.9424,1.9424,1.9424,1.9424,1.9424,1.9424,1.9424,1.9424,1.9424,1.9424,1.9424,1.9424,1.9424,1.9424,1.9424,1.9424,1.9424,1.9424,1.9424,1.9424,1.9424,1.9424,1.9424,1.9424,1.9424,1.9424,1.9424,1.9424,1.9424,1.9424,1.9424,1.9424,1.9424,1.9424,1.9424,1.9424,1.9424,1.9424,1.9424,1.9424,1.9424,0.0,0.0,2.0761,1.7811,0.0,0.0,0.0,0.0,0.0,0.0,0.0,0.0,0.0,0.0,0.0,0.0,0.0,0.0,0.0,0.0,0.0,0.0,0.0,0.0,0.0,0.0,0.0,0.0,1.1415,0.0,0.0,1.3427,1.378,1.4222,1.4754,1.5149,1.5391,1.5685,1.5784,1.5784,1.5784,1.5784,1.5784,1.5784,1.5784,1.5784,1.5784,1.5784,1.5784,1.5784,1.5784,1.5784,1.5784,1.5784,1.5818,1.6166,1.646,1.6774,1.7268,1.7502,1.7582,1.7582,1.7582,1.7622,1.7829,1.8096,1.839,1.8691,1.8991,1.9239,1.9339,1.9424,1.9424,1.9424,1.9424,1.9424,1.9424,1.9424,1.9424,1.9424,1.9424,1.9491,1.9619,1.9653,1.9586,1.9457,1.9424,1.9424,1.9424,1.9424,1.9497,1.9633,1.9653,1.9653,1.9653,1.9653,1.9573,1.9437,1.9546,1.9573,1.943,1.9424,1.9424,1.9424,1.9424,1.9424,1.9424,1.9424,1.9424,1.9424,1.9424,1.9424,2.1114,2.1603,0.0,1.9023,1.8041,0.0,1.528,0.0,0.0,0.0,0.0,0.0,0.0,0.0,0.0,0.0,0.0,0.0,0.0,0.8898,0.0,0.0,0.0,0.0,0.0,0.0,1.0184,1.1049,1.1022,0.0,0.0,0.0,1.3674,1.4075,1.47,1.5149,1.5391,1.5685,1.5784,1.5784,1.5784,1.5784,1.5784,1.5784,1.5784,1.5784,1.5784,1.5784,1.5784,1.5784,1.5784,1.5784,1.5784,1.5892,1.6012,1.6206,1.6576,1.6934,1.7415,1.7582,1.7582,1.7582,1.7582,1.7642,1.7902,1.8257,1.8551,1.8838,1.9138,1.9424,1.9424,1.9424,1.9424,1.9424,1.9424,1.9424,1.9424,1.9424,1.9424,1.9424,1.9511,1.9579,1.9766,1.9887,1.9887,1.97,1.9673,1.9673,1.9673,1.9673,1.9746,1.9933,1.9953,1.9953,1.9953,1.9953,1.9873,1.9686,1.9853,1.9867,1.9679,1.9673,1.9673,1.9673,1.9673,1.9626,1.9519,1.9519,1.9466,1.9424,1.9424,1.9424]}]]